[[{"header":{"parameterUnit":"m.s-1","parameterCategory":1,"la1":30.6,"la2":29.2853,"lo1":-89.7004,"lo2":-87.6739,"dx":0.0162,"dy":0.0183,"nx":112,"ny":82,"refTime":"2023-01-07T06:00:00:Z","depth":0,"parameterNumber":2,"parameterNumberName":"U-component_of_WINDS"},"data":[0.0,0.0,0.0,0.0,0.0,0.0,0.0,0.0,0.0,0.0,0.0,0.0,0.0,0.0,0.0,0.0,0.0,0.0,0.0,0.0,0.0,0.0,0.0,0.0,0.0,0.0,0.0,0.0,0.0,0.0,0.0,0.0,0.0,0.0,0.0,0.0,0.0,0.0,0.0,0.0,0.0,0.0,0.0,0.0,0.0,0.0,0.0,0.0,0.0,0.0,0.0,0.0,0.0,0.0,0.0,0.0,0.0,0.0,0.0,0.0,0.0,0.0,0.0,0.0,0.0,0.0,0.0,0.0,0.0,0.0,0.0,0.0,0.0,0.0,0.0,0.0,0.0,0.0,0.0,0.0,0.0,0.0,0.0,0.0,0.0,0.0,0.0,0.0,0.0,0.0,1.1898,1.2118,1.3544,1.4708,1.5355,1.5089,1.4447,1.3314,0.0,0.0,0.0,0.0,0.0,0.0,0.0,0.0,0.0,0.0,0.0,0.0,0.0,0.0,0.0,0.0,0.0,0.0,0.0,0.0,0.0,0.0,0.0,0.0,0.0,0.0,0.0,0.0,0.0,0.0,0.0,0.0,0.0,0.0,0.0,0.0,0.0,0.0,0.0,0.0,0.0,0.0,0.0,0.0,0.0,0.0,0.0,0.0,0.0,0.0,0.0,0.0,0.0,0.0,0.0,0.0,0.0,0.0,0.0,0.0,0.0,0.0,0.0,0.0,0.0,0.0,0.0,0.0,0.0,0.0,0.0,0.0,0.0,0.0,0.0,0.0,0.0,0.0,0.0,0.0,0.0,0.0,0.0,0.0,0.0,0.0,0.0,0.0,0.0,0.0,0.0,0.0,0.0,0.0,0.0,0.0,0.0,0.0,0.0,0.0,0.0,0.0,0.0,0.0,1.233,1.2901,1.3768,1.4622,1.5435,1.5706,1.5323,1.4092,0.0,0.0,0.0,0.0,0.0,0.0,0.0,0.0,0.0,0.0,0.0,0.0,0.0,0.0,0.0,0.0,0.0,0.0,0.0,0.0,0.0,0.0,0.0,0.0,0.0,0.0,0.0,0.0,0.0,0.0,0.0,0.0,0.0,0.0,0.0,0.0,0.0,0.0,0.0,0.0,0.0,0.0,0.0,0.0,0.0,0.0,0.0,0.0,0.0,0.0,0.0,0.0,0.0,0.0,0.0,0.0,0.0,0.0,0.0,0.0,0.0,0.0,0.0,0.0,0.0,0.0,0.0,0.0,0.0,0.0,0.0,0.0,0.0,0.0,0.0,0.0,0.0,0.0,0.0,0.0,0.0,0.0,0.0,0.0,0.0,0.0,0.0,0.0,0.0,0.0,0.0,0.0,0.0,0.0,0.0,0.0,0.0,0.0,0.0,0.0,0.0,0.0,0.0,1.2225,1.3103,1.3895,1.46,1.5269,1.5701,1.6033,1.5463,1.3723,1.1995,0.0,0.0,0.0,0.0,0.0,0.0,0.0,0.0,0.0,0.0,0.0,0.0,0.0,0.0,0.0,0.0,0.0,0.0,0.0,0.0,0.0,0.0,0.0,0.0,0.0,0.0,0.0,0.0,0.0,0.0,0.0,0.0,0.0,0.0,0.0,0.0,0.0,0.0,0.0,0.0,0.0,0.0,0.0,0.0,0.0,0.0,0.0,0.0,0.0,0.0,0.0,0.0,0.0,0.0,0.0,0.0,0.0,0.0,0.0,0.0,0.0,0.0,0.0,0.0,0.0,0.0,0.0,0.0,0.0,0.0,0.0,0.0,0.0,0.0,0.0,0.0,0.0,0.0,0.0,0.0,0.0,0.0,0.0,0.0,0.0,0.0,0.0,0.0,0.0,0.0,0.0,0.0,0.0,0.0,0.0,0.0,0.0,0.0,0.0,0.0,0.0,0.0,1.2881,1.3671,1.4663,1.5308,1.578,1.6109,1.6469,1.5699,1.3469,1.2413,0.0,0.0,0.0,0.0,0.0,0.0,0.0,0.0,0.0,0.0,0.0,0.0,0.0,0.0,0.0,0.0,0.0,0.0,0.0,0.0,0.0,0.0,0.0,0.0,0.0,0.0,0.0,0.0,0.0,0.0,0.0,0.0,0.0,0.0,0.0,0.0,0.0,0.0,0.0,0.0,0.0,0.0,0.0,0.0,0.0,0.0,0.0,0.0,0.0,0.0,0.0,0.0,0.0,0.0,0.0,0.0,0.0,0.0,0.0,0.0,0.0,0.0,0.0,0.0,0.0,0.0,0.0,0.0,0.0,0.0,0.0,0.0,0.0,0.0,0.0,0.0,0.0,0.0,0.0,0.0,0.0,0.0,0.0,0.0,0.0,0.0,0.0,0.0,0.0,0.0,0.0,0.0,0.0,0.0,0.0,0.0,0.0,0.0,0.0,0.0,0.0,0.0,1.3042,1.3598,1.485,1.5274,1.5876,1.6719,1.7263,1.651,1.4086,1.3068,0.0,0.0,0.0,0.0,0.0,0.0,0.0,0.0,0.0,0.0,0.0,0.0,0.0,0.0,0.0,0.0,0.0,0.0,0.0,0.0,0.0,0.0,0.0,0.0,0.0,0.0,0.0,0.0,0.0,0.0,0.0,0.0,0.0,0.0,0.0,0.0,0.0,0.0,0.0,0.0,0.0,0.0,0.0,0.0,0.0,0.0,0.0,0.0,0.0,0.0,0.0,0.0,0.0,0.0,0.0,0.0,0.0,0.0,0.0,0.0,0.0,0.0,0.0,0.0,0.0,0.0,0.0,0.0,0.0,0.0,0.0,0.0,0.0,0.0,0.0,0.0,0.0,0.0,0.0,0.0,0.0,0.0,0.0,0.0,0.0,0.0,0.0,0.0,0.0,0.0,0.0,0.0,0.0,0.0,0.0,0.0,0.0,0.0,0.0,0.0,0.0,0.0,1.4416,1.5325,0.0,1.6381,1.6835,1.6294,1.7259,1.6689,1.3876,0.0,0.0,0.0,0.0,0.0,0.0,0.0,0.0,0.0,0.0,0.0,0.0,0.0,0.0,0.0,0.0,0.0,0.0,0.0,0.0,0.0,0.0,0.0,0.0,0.0,0.0,0.0,0.0,0.0,0.0,0.0,0.0,0.0,0.0,0.0,0.0,0.0,0.0,0.0,0.0,0.0,0.0,0.0,0.0,0.0,0.0,0.0,0.0,0.0,0.0,0.0,0.0,0.0,0.0,0.0,0.0,0.0,0.0,0.0,0.0,0.0,0.0,0.0,0.0,0.0,0.0,0.0,0.0,0.0,0.0,0.0,0.0,0.0,0.0,0.0,0.0,0.0,0.0,0.0,0.0,0.0,0.0,0.0,0.0,0.0,0.0,0.0,0.0,0.0,0.0,0.0,0.0,0.0,0.0,0.0,0.0,0.0,0.0,0.0,0.0,0.0,0.0,1.3673,1.5242,1.6298,0.0,1.7207,1.7609,1.6741,1.7681,1.7233,1.4604,0.0,0.0,0.0,0.0,0.0,0.0,0.0,0.0,0.0,0.0,0.0,0.0,0.0,0.0,0.0,0.0,0.0,0.0,0.0,0.0,0.0,0.0,0.0,0.0,0.0,0.0,0.0,0.0,0.0,0.0,0.0,0.0,0.0,0.0,0.0,0.0,0.0,0.0,0.0,0.0,0.0,0.0,0.0,0.0,0.0,0.0,0.0,0.0,0.0,0.0,0.0,0.0,0.0,0.0,0.0,0.0,0.0,0.0,0.0,0.0,0.0,0.0,0.0,0.0,0.0,0.0,0.0,0.0,0.0,0.0,0.0,0.0,0.0,0.0,0.0,0.0,0.0,0.0,0.0,0.0,0.0,0.0,0.0,0.0,0.0,0.0,0.0,0.0,0.0,0.0,0.0,0.0,0.0,0.0,0.0,0.0,0.0,0.0,0.0,0.0,0.0,0.0,1.4259,1.5278,1.6227,1.7147,1.7523,1.787,1.8348,1.8806,1.8366,0.0,0.0,0.0,0.0,0.0,0.0,0.0,0.0,0.0,0.0,0.0,0.0,0.0,0.0,0.0,0.0,0.0,0.0,0.0,0.0,0.0,0.0,0.0,0.0,0.0,0.0,0.0,0.0,0.0,0.0,0.0,0.0,0.0,0.0,0.0,0.0,0.0,0.0,0.0,0.0,0.0,0.0,0.0,0.0,0.0,0.0,0.0,0.0,0.0,0.0,0.0,0.0,0.0,0.0,0.0,0.0,0.0,0.0,0.0,0.0,0.0,0.0,0.0,0.0,0.0,0.0,0.0,0.0,0.0,0.0,0.0,0.0,0.0,0.0,0.0,0.0,0.0,0.0,0.0,0.0,0.0,0.0,0.0,0.0,0.0,0.0,0.0,0.0,0.0,0.0,0.0,0.0,0.0,0.0,0.0,0.0,0.0,0.0,0.0,0.0,0.0,0.0,0.0,1.5385,1.6929,1.8004,1.8272,1.8516,1.8614,1.8423,1.8806,1.8293,1.6384,0.0,0.0,0.0,0.0,0.0,0.0,0.0,0.0,0.0,0.0,0.0,0.0,0.0,0.0,0.0,0.0,0.0,0.0,0.0,0.0,0.0,0.0,0.0,0.0,0.0,0.0,0.0,0.0,0.0,0.0,0.0,0.0,0.0,0.0,0.0,0.0,0.0,0.0,0.0,0.0,0.0,0.0,0.0,0.0,0.0,0.0,0.0,0.0,0.0,0.0,0.0,0.0,0.0,0.0,0.0,0.0,0.0,0.0,0.0,0.0,0.0,0.0,0.0,0.0,0.0,0.0,0.0,0.0,0.0,0.0,0.0,0.0,0.0,0.0,0.0,0.0,0.0,0.0,0.0,0.0,0.0,0.0,0.0,0.0,0.0,0.0,0.0,0.0,0.0,0.0,0.0,0.0,0.0,0.0,0.0,0.0,0.0,0.0,0.0,0.0,0.0,0.0,1.5669,1.7461,1.8674,1.8674,1.8875,1.8895,1.8682,1.8909,1.8563,1.7431,0.0,0.0,0.0,0.0,0.0,0.0,0.0,0.0,0.0,0.0,0.0,0.0,0.0,0.0,0.0,0.0,0.0,0.0,0.0,0.0,0.0,0.0,0.0,0.0,0.0,0.0,0.0,0.0,0.0,0.0,0.0,0.0,0.0,0.0,0.0,0.0,0.0,0.0,0.0,0.0,0.0,0.0,0.0,0.0,0.0,0.0,0.0,0.0,0.0,0.0,0.0,0.0,0.0,0.0,0.0,0.0,0.0,0.0,0.0,0.0,0.0,0.0,0.0,0.0,0.0,0.0,0.0,0.0,0.0,0.0,0.0,0.0,0.0,0.0,0.0,0.0,0.0,0.0,0.0,0.0,0.0,0.0,0.0,0.0,0.0,0.0,0.0,0.0,0.0,0.0,0.0,0.0,0.0,0.0,0.0,0.0,0.0,0.0,0.0,0.0,0.0,0.0,1.5624,1.7311,1.8559,1.86,1.8771,1.8942,1.9075,1.9142,1.9096,1.906,0.0,0.0,0.0,0.0,0.0,0.0,0.0,0.0,0.0,0.0,0.0,0.0,0.0,0.0,0.0,0.0,0.0,0.0,0.0,0.0,0.0,0.0,0.0,0.0,0.0,0.0,0.0,0.0,0.0,0.0,0.0,0.0,0.0,0.0,0.0,0.0,0.0,0.0,0.0,0.0,0.0,0.0,0.0,0.0,0.0,0.0,0.0,0.0,0.0,0.0,0.0,0.0,0.0,0.0,0.0,0.0,0.0,0.0,0.0,0.0,0.7744,0.0,0.0,0.0,0.0,0.0,0.0,0.0,0.0,0.0,0.0,0.0,0.0,0.0,0.0,0.0,0.0,0.0,0.0,0.0,0.0,0.0,0.0,0.0,0.0,0.0,0.0,0.0,0.0,0.0,0.0,0.0,0.0,0.0,0.0,0.0,0.0,0.0,0.0,0.0,0.0,0.0,1.6689,1.7948,1.8941,1.9425,1.9282,1.9208,1.9274,1.9274,1.9153,1.8953,1.8322,0.0,0.0,0.0,0.0,0.0,0.0,0.0,0.0,0.0,0.0,0.0,0.0,0.0,0.0,0.0,0.0,0.0,0.0,0.0,0.0,0.0,0.0,0.0,0.0,0.0,0.0,0.0,0.0,0.0,0.0,0.0,0.0,0.0,0.0,0.0,0.0,0.0,0.0,0.0,0.0,0.0,0.0,0.0,0.0,0.0,0.0,0.0,0.0,0.0,0.0,0.0,0.0,0.0,0.0,0.0,0.0,0.0,0.0,0.0,0.0,0.8875,0.0,0.0,0.0,0.0,0.0,0.0,0.0,0.0,0.0,0.0,0.0,0.0,0.0,0.0,0.0,0.0,0.0,0.0,0.0,0.0,0.0,0.0,0.0,0.0,0.0,0.0,0.0,0.0,0.0,0.0,0.0,0.0,0.0,0.0,0.0,0.0,0.0,0.0,0.0,0.0,1.7571,1.8506,1.9284,1.9717,1.9412,1.9208,1.9274,1.9208,1.9168,1.8988,1.8968,0.0,0.0,0.0,0.0,0.0,0.0,0.0,0.0,0.0,0.0,0.0,0.0,0.0,0.0,0.0,0.0,0.0,0.0,0.0,0.0,0.0,0.0,0.0,0.0,0.0,0.0,0.0,0.0,0.0,0.0,0.0,0.0,0.0,0.0,0.0,0.0,0.0,0.0,0.0,0.0,0.0,0.0,0.0,0.0,0.0,0.0,0.0,0.0,0.0,0.0,0.0,0.0,0.0,1.3434,1.3647,1.3772,1.3905,1.452,1.5455,1.3926,1.2658,1.1519,0.0,0.0,0.0,0.0,0.0,0.0,0.0,0.0,0.0,0.0,0.0,0.0,0.0,0.0,0.0,0.0,0.0,0.0,0.0,0.0,0.0,0.0,0.0,0.0,0.0,1.7843,1.8185,0.0,0.0,0.0,0.0,0.0,0.0,0.0,0.0,0.0,0.0,0.0,0.0,1.8193,1.8962,1.9589,1.9723,1.9437,1.9274,1.9407,1.9274,1.9239,1.9323,1.9962,1.991,0.0,0.0,0.0,0.0,0.0,0.0,0.0,0.0,0.0,0.0,0.0,0.0,0.0,0.0,0.0,0.0,0.0,0.0,0.0,0.0,0.0,0.0,0.0,0.0,0.0,0.0,0.0,0.0,0.0,0.0,0.0,0.0,0.9556,0.8892,0.0,0.0,0.0,0.0,0.0,0.0,0.0,0.0,0.0,0.0,0.0,0.0,0.0,0.0,1.2194,1.3375,1.4006,1.3971,1.6165,1.7224,1.7261,1.8429,1.9023,1.9149,1.8634,0.0,1.356,1.16,0.0,0.0,0.0,0.0,0.0,0.0,0.0,0.0,0.0,0.0,0.0,0.0,0.0,0.0,0.0,0.0,0.0,0.0,0.0,0.0,0.0,0.0,1.6108,1.8245,1.927,1.9532,0.0,1.7516,1.6299,1.6033,0.0,0.0,0.0,0.0,0.0,0.0,0.0,0.0,1.8533,1.9212,1.9661,1.961,1.9713,1.9802,1.9802,1.9802,1.9918,2.0133,2.0065,2.0153,2.0422,1.9792,0.0,0.0,0.0,0.0,0.0,0.0,0.0,0.0,0.0,0.0,0.0,0.0,0.0,0.0,0.0,0.0,0.0,0.0,0.0,0.0,0.0,0.0,0.0,0.0,0.0,0.0,0.0,0.0,0.0,0.8639,0.9717,0.8657,0.8976,0.8721,0.0,0.0,0.0,0.0,0.0,0.0,0.0,0.0,0.0,1.2594,1.3991,1.5029,1.5646,1.6951,1.7622,1.7762,1.8719,1.9183,1.9308,1.9753,1.9912,1.9974,1.9582,1.85,1.6905,1.4763,1.3331,1.2373,0.0,0.0,0.0,0.0,0.0,1.1214,1.1441,1.183,0.0,0.0,0.0,0.0,0.0,0.0,0.0,0.0,0.0,0.0,0.0,0.0,0.0,1.923,2.0038,2.0254,2.0503,1.9614,1.8546,0.0,1.6802,1.6609,1.7939,0.0,0.0,0.0,0.0,1.9261,1.9687,1.9754,1.992,2.0534,2.0249,2.0048,2.0323,2.009,2.0037,2.0102,2.0296,2.0226,1.996,1.9917,1.9521,0.0,0.0,0.0,0.0,0.0,0.0,0.0,0.0,0.0,0.0,0.0,0.0,0.0,0.0,0.0,0.0,0.0,0.0,0.0,0.0,0.0,0.0,0.0,0.0,0.0,0.0,0.0,0.0,0.9238,1.0329,0.8737,0.9752,0.9942,0.0,0.0,0.0,0.0,0.0,0.0,1.1318,1.2738,1.4054,1.505,1.6565,1.782,1.8794,1.9841,2.0475,2.0569,2.0334,2.0228,2.0359,2.0086,2.0023,2.0085,1.981,1.9668,1.9452,1.7202,1.5771,1.4837,1.4113,1.3816,1.3898,1.4096,1.4258,1.4346,1.4407,1.4907,1.5347,1.4753,0.0,1.469,1.4139,0.0,0.0,0.0,0.0,1.256,1.4552,1.5918,1.7338,1.9782,2.042,2.0545,2.1087,2.0844,2.012,0.0,1.811,1.795,1.9219,0.0,0.0,0.0,0.0,1.9997,2.0659,2.0471,2.0554,2.1345,2.081,2.0589,2.1062,2.0673,2.0401,2.0401,2.0913,2.0797,1.9975,2.0386,2.0209,1.9128,0.0,0.0,0.0,0.0,0.0,0.0,0.0,0.0,0.0,0.0,0.0,0.0,0.0,0.0,0.0,0.0,0.0,0.0,0.0,0.0,0.0,0.0,0.0,0.0,0.0,0.0,0.0,0.0,0.0,1.0377,1.1591,0.0,0.0,0.0,0.0,1.1266,1.2076,1.2714,1.2962,1.5374,1.706,1.7696,1.943,2.0421,2.0469,2.0582,2.0586,2.0598,2.0482,2.0409,2.0366,2.0204,2.0074,2.0096,2.0302,2.0366,2.0158,1.7835,1.6866,1.6757,1.5421,1.4919,1.4939,1.4939,1.4939,1.4934,1.4899,1.5029,1.5154,1.4787,1.4252,1.3647,1.3627,1.3015,0.0,0.0,1.3694,1.4602,1.6848,1.7748,1.8465,2.0019,2.042,2.0431,2.0483,2.0594,2.0542,0.0,1.9466,1.9168,1.9675,0.0,1.9604,2.0642,2.0559,2.0448,2.0775,2.1295,2.1624,2.145,2.1533,2.1776,2.2167,2.1861,2.1596,2.1596,2.2083,2.2115,2.1605,2.1418,2.1125,2.061,1.9974,0.0,0.0,0.0,0.0,0.0,0.0,0.0,0.0,0.0,0.0,0.0,0.0,0.0,0.0,0.0,0.0,0.0,0.0,0.0,0.0,0.0,0.0,0.0,0.0,0.0,0.0,0.0,0.0,1.2189,1.3805,0.0,1.306,1.3121,1.3382,1.3589,1.4924,1.5775,1.5839,1.7667,1.8892,1.929,1.9486,1.9884,2.0618,2.0139,2.0164,2.0619,2.0685,2.062,2.0454,2.051,2.0404,2.0073,2.0153,2.0222,2.0101,1.9308,1.9057,1.9254,1.9179,1.9162,1.9158,1.9414,1.967,1.9896,1.921,1.9468,1.9969,1.9578,1.9261,1.8895,1.7818,1.7254,1.691,1.6167,1.6558,1.7336,1.7881,1.8798,1.9761,2.0236,2.0648,2.0948,2.1248,2.1156,2.0938,2.0793,2.0298,2.0253,2.1084,2.0675,2.0525,2.1487,2.1069,2.0878,2.1398,2.152,2.1782,2.2522,2.2499,2.251,2.2814,2.2583,2.2397,2.2397,2.226,2.1966,2.1492,2.1335,2.0969,2.0502,2.0825,2.0737,0.0,0.0,0.0,0.0,0.0,0.0,0.0,0.0,0.0,0.0,0.0,0.0,0.0,0.0,0.0,0.0,0.0,0.0,0.0,0.0,0.0,0.0,0.0,0.0,0.0,0.0,1.3658,1.3268,1.5386,1.6299,1.4997,1.5437,1.5752,1.5725,1.7166,1.798,1.7759,1.8895,1.9543,1.9687,1.9543,1.9857,2.0664,2.0367,2.0445,2.0751,2.0632,2.0445,2.013,2.0119,1.996,1.9696,1.9766,1.9766,1.9766,1.999,2.0296,2.0565,2.1199,2.1496,2.1617,2.1908,2.2185,2.2273,2.1439,2.1496,2.1924,2.1702,2.1554,2.1313,2.0184,1.9836,1.9651,1.8614,1.8875,1.9373,1.9229,1.9916,2.07,2.0855,2.1124,2.1424,2.1735,2.1494,2.1203,2.1203,2.0772,2.0617,2.1376,2.0946,2.0944,2.214,2.1507,2.1244,2.2237,2.2147,2.2262,2.2873,2.297,2.3075,2.3381,2.3439,2.321,2.2987,2.2956,2.2625,2.1681,2.2014,2.1973,2.1208,2.1861,2.1859,2.129,0.0,0.0,0.0,0.0,0.0,0.0,0.0,0.0,0.0,0.0,0.0,0.0,0.0,0.0,0.0,0.0,0.0,0.0,0.0,0.0,0.0,0.0,0.0,0.9606,1.2783,1.4749,1.3779,1.6192,1.7434,1.6197,1.7065,1.7715,1.7616,1.8751,1.916,1.8542,1.9019,1.9133,1.8797,1.9876,2.0493,2.0762,2.1185,2.1275,2.1007,2.0375,1.9745,1.9327,1.8983,1.8859,1.8869,1.905,1.9116,1.9235,1.9944,2.0418,2.0683,2.1206,2.169,2.198,2.2002,2.1929,2.1658,2.1222,2.0768,2.0462,2.0676,2.0605,2.0462,2.0462,2.0462,2.0462,2.0462,2.0462,2.0565,2.1,2.1124,2.1248,2.1683,2.1797,2.1807,2.1807,2.1655,2.1512,2.1512,2.0935,2.039,2.039,2.039,2.099,2.2562,2.1855,0.0,2.3265,2.3304,2.3008,2.2604,2.2956,2.3412,2.3857,2.4291,2.4146,2.3246,2.4159,2.3918,2.2195,2.3652,2.403,2.2804,2.3027,2.2724,2.194,0.0,0.0,0.0,0.0,0.0,0.0,0.0,0.0,0.0,0.0,0.0,0.0,0.0,0.0,0.0,0.0,0.0,0.0,0.0,0.0,0.0,0.0,1.2962,1.2811,1.454,1.6178,1.7288,1.798,1.8148,1.7666,1.833,1.8701,1.8301,1.8955,1.919,1.8757,1.8599,1.85,1.8231,1.8549,1.8805,1.9142,1.9276,1.9432,1.9653,2.0012,2.0149,2.0128,2.0118,2.0174,2.006,1.9636,1.9737,2.0102,2.0297,2.099,2.1891,2.1805,2.1929,2.2273,2.26,2.2583,2.2413,2.2136,2.1871,2.1648,2.1499,2.1424,2.1424,2.1424,2.1424,2.1424,2.1424,2.1424,2.1383,2.1166,2.1362,2.1494,2.1128,2.1343,2.1502,2.1436,2.1359,2.1282,2.1282,2.1156,2.0984,2.0984,2.0984,2.1106,2.1635,2.1482,0.0,2.2436,2.2608,2.3018,2.3888,2.4095,2.4134,2.4152,2.4372,2.3988,2.2849,2.3031,2.2832,2.2179,2.2734,2.3013,2.2983,2.3165,2.3199,0.0,0.0,0.0,0.0,0.0,0.0,0.0,0.0,0.0,0.0,0.0,0.0,0.0,0.0,0.0,0.0,0.0,0.0,0.0,0.0,0.0,0.0,1.2439,1.4407,1.5177,1.6155,1.7277,1.8516,1.8871,1.8701,1.7716,1.8987,1.9306,1.7995,1.8741,1.9028,1.8522,1.8025,1.7674,1.7561,1.791,1.8301,1.8781,1.9109,1.9394,1.9489,1.9907,2.0111,2.0151,2.0081,2.0124,0.0,1.9697,1.9742,2.0147,2.0315,2.0968,0.0,0.0,0.0,0.0,0.0,2.2553,2.2402,2.2252,2.2101,2.1959,2.1807,2.1807,2.1807,2.1807,2.1807,2.1807,2.1807,2.1731,2.1593,2.1326,2.1384,2.1441,2.1024,2.1166,2.1359,2.1205,2.1128,2.1051,2.1051,0.0,0.0,2.0964,2.1128,2.1326,2.1855,2.1669,2.1737,2.2528,2.2536,2.2649,2.3166,2.3412,2.3432,2.3256,2.378,0.0,0.0,0.0,2.307,2.307,2.2862,0.0,0.0,0.0,0.0,0.0,0.0,0.0,0.0,2.3931,2.3699,0.0,0.0,0.0,0.0,0.0,0.0,0.0,0.0,0.0,0.0,0.0,0.0,0.0,0.0,0.0,0.0,1.3313,1.4993,1.6674,1.7383,1.7841,1.8104,1.8887,1.8668,1.6985,1.8802,1.9253,1.7268,1.8131,1.8532,1.7885,0.0,0.0,0.0,0.0,1.8395,1.8964,1.9848,2.0139,1.9949,1.9875,1.981,1.9844,1.9505,1.9564,2.0036,1.961,1.9603,1.9793,2.011,2.0624,2.1183,2.1912,2.2486,2.2789,2.241,2.2268,2.2268,2.2029,0.0,0.0,2.1963,2.1963,2.1952,2.1901,2.189,2.1793,2.1741,2.1578,2.1512,2.1512,2.1359,2.1205,2.1205,2.1205,2.1128,2.1128,2.0974,2.0906,2.0906,2.0731,2.0566,2.0566,2.0886,2.1467,2.2473,2.1934,2.1788,2.2814,2.2577,2.2148,2.1696,0.0,0.0,2.2039,2.2879,2.296,2.1859,2.2951,2.3846,2.4198,2.3512,2.3524,2.4274,2.3928,2.3315,2.2624,2.3792,2.4372,2.4384,2.518,2.4838,0.0,0.0,0.0,0.0,0.0,0.0,0.0,0.0,0.0,0.0,0.0,0.0,0.0,0.0,0.0,1.1842,1.4409,1.6392,1.6788,1.684,1.6973,1.7278,1.6997,1.6751,1.6826,1.6992,1.7139,1.7118,1.7383,1.7195,1.6427,1.6358,0.0,1.5545,1.7017,1.7762,1.7772,1.8944,1.936,1.9075,0.0,0.0,2.0353,2.028,2.0496,2.0918,2.0556,2.0489,2.0789,2.0742,2.0839,2.1055,2.2398,2.3223,2.3551,2.3472,2.3393,2.3234,2.3154,2.3075,2.2915,2.2915,2.2915,2.2853,2.2323,2.2132,0.0,2.146,2.1282,2.1282,2.1282,2.1205,2.1138,2.0984,2.0984,2.0906,2.0731,2.0722,2.0654,2.0654,2.0644,2.0566,2.0566,2.0644,2.0781,2.1016,2.0995,2.1121,2.1291,2.1386,2.1734,2.2533,2.2838,2.2887,2.2534,2.2978,2.2664,2.1192,2.1653,2.2542,2.3843,2.3113,2.3345,2.4803,2.448,2.4537,2.5055,2.5249,2.5417,2.5417,2.5585,2.5539,0.0,0.0,0.0,0.0,0.0,0.0,0.0,0.0,0.0,0.0,0.0,0.8982,0.986,0.0,1.2608,1.3301,1.5034,1.6425,1.6551,1.6347,1.6332,1.6791,1.6721,1.6449,1.6048,1.6796,1.7118,1.6609,1.6844,1.6831,1.6314,1.6127,1.5989,1.5903,1.6986,1.7542,1.7465,1.8562,1.8942,1.8818,1.8834,1.9551,2.0797,2.0158,2.0478,2.1442,2.0844,2.0857,2.1256,2.1211,2.1197,2.1452,2.2341,2.2706,2.2922,2.315,2.3307,2.3314,2.3085,2.2922,2.2801,2.2573,2.2412,2.2302,2.191,2.1771,2.1653,2.1265,2.1138,2.1061,2.0964,2.0886,2.0886,2.0664,2.0664,2.0731,2.0644,2.0566,2.0566,2.0566,2.0566,2.0635,2.0859,2.0898,2.0898,2.0898,2.1253,2.156,2.156,2.171,2.1949,2.2171,2.2321,2.2189,2.166,2.192,2.194,2.1724,2.1558,2.1963,2.3129,2.2475,2.2706,2.393,2.3547,2.3849,2.4958,2.5199,2.5451,2.5739,2.6496,2.6439,0.0,0.0,0.0,0.0,0.0,0.0,0.0,0.8881,0.9115,1.113,1.1225,1.1225,1.2149,1.3024,1.3865,1.4496,1.5274,1.5892,1.6131,1.5921,1.5938,1.6403,1.664,1.6448,1.5477,1.6788,1.7278,1.626,1.6491,1.6567,1.6356,1.5956,1.593,1.618,1.6803,1.7158,1.7409,1.8175,1.8637,1.8592,1.8235,1.8998,2.0722,1.9678,2.0056,2.1588,2.0923,2.0828,2.1274,2.1274,2.1248,2.1325,2.1836,2.1858,2.18,2.2594,2.3022,2.3143,2.276,2.2635,2.2573,2.219,2.1922,2.1757,2.1588,2.1413,2.1238,2.1148,2.0974,2.0819,2.0644,2.0566,2.0566,2.042,2.0489,2.0566,2.0566,2.0566,2.0596,2.0605,2.0615,2.0761,2.1118,2.1264,2.1293,2.1286,2.1824,2.2122,2.2122,2.2277,2.2229,2.1709,2.1668,2.1489,2.0977,2.1046,2.1579,2.25,2.2022,2.2002,2.2713,2.2439,2.2618,2.3482,2.3176,2.3668,2.4935,2.5249,2.5707,2.6256,2.7481,2.7332,0.5927,0.6942,0.8378,0.8731,0.9142,1.0007,0.0,1.1311,1.0717,1.2446,1.2207,1.1849,1.2364,1.292,1.3492,1.386,1.4805,1.5587,1.5559,1.5726,1.5805,1.5867,1.5584,1.5604,1.6142,1.5806,1.589,1.6711,1.6245,1.5782,1.536,1.5608,1.5419,1.4679,1.5507,1.6196,1.6732,1.7485,1.7948,1.7972,1.8307,1.8741,1.9283,1.9195,1.9894,2.0941,2.0643,2.0671,2.0932,2.067,2.0237,1.9691,2.0893,2.117,2.117,2.2635,2.3143,2.3184,2.3132,2.3111,2.3101,2.3049,2.2878,2.2635,2.2009,2.1709,2.1451,2.083,2.0644,2.0644,2.0644,2.0566,2.0566,2.0566,2.0566,2.0566,2.0566,2.0489,2.0458,2.0774,2.0751,2.0723,2.1161,2.1541,2.174,2.1783,2.1855,2.1967,2.1967,2.1967,2.203,2.2135,2.2306,2.2344,2.2295,2.2109,2.2244,2.2858,2.2541,2.2754,2.3589,2.3846,2.4373,2.5204,2.5738,2.6535,2.7552,2.736,2.7572,2.806,2.8057,2.7809,0.9209,0.9371,0.9725,1.1112,1.1431,1.1659,1.2589,1.2065,1.194,1.3856,1.3701,1.3499,1.4396,1.4461,1.4501,0.0,1.5155,1.5505,1.5505,1.5655,1.5726,1.5647,1.5503,1.5548,1.5964,1.5677,1.5562,1.5892,1.5317,1.4934,1.4773,1.485,1.4858,1.4798,1.551,1.6234,1.7005,1.7273,1.7665,1.8035,1.7383,1.79,1.9318,1.8749,1.9179,2.0356,2.042,2.0467,2.0338,2.0338,1.9962,1.9569,2.0454,2.0593,2.0493,2.2208,2.2876,2.2991,2.2884,2.2711,2.259,2.2323,2.2005,2.1659,2.139,2.1164,2.0948,2.0693,2.0566,2.0566,2.0498,2.042,2.042,2.0255,2.0177,2.0177,2.0177,2.0368,2.0528,2.0709,2.0866,2.1087,2.1504,2.1722,2.1854,2.2179,2.236,2.2456,2.2456,2.2532,2.2519,2.2359,2.2271,2.2232,2.2306,2.2231,2.2476,2.2998,2.2692,2.2804,2.3438,2.3276,2.3618,2.4474,2.506,2.5926,2.7103,2.7313,2.7633,2.8139,2.8331,2.8265,1.0418,1.0546,1.0678,1.2405,1.2821,1.2914,1.308,1.268,1.2727,1.4607,1.4579,1.4568,1.5414,1.5386,1.5275,1.5355,1.5426,1.5505,1.5426,1.5576,1.5647,1.5426,1.5426,1.5497,1.5647,1.546,1.5239,1.5061,1.4614,1.4338,1.4338,1.4272,1.4353,1.4625,1.5393,1.6038,1.6609,1.7019,1.7388,1.7628,1.6702,1.7162,1.8672,1.8269,1.8742,1.9943,2.0108,2.009,1.9925,1.9887,1.9751,1.9633,2.0134,2.0177,2.0215,2.1557,2.2206,2.2371,2.2193,2.208,2.1873,2.1537,2.1205,2.0906,2.0906,2.0741,2.0566,2.0566,2.0566,2.0489,2.0342,2.0264,2.0108,1.9942,1.9863,1.9901,1.9935,2.0198,2.048,2.0714,2.0922,2.1259,2.1671,2.1736,2.1839,2.2129,2.2451,2.2618,2.2803,2.2969,2.3027,2.2715,2.2412,2.231,2.2478,2.2478,2.269,2.3178,2.2814,2.2784,2.3188,2.314,2.3464,2.4119,2.4895,2.5775,2.6931,2.7361,2.7863,2.8455,2.8611,2.8699,0.7562,0.9138,1.0704,1.1453,1.2579,1.3601,1.4126,1.352,1.3184,1.4111,1.4286,1.4346,1.4577,1.4927,1.5204,1.5204,1.5355,1.5426,1.5204,1.5355,1.5426,1.5204,1.5204,1.5204,0.0,1.4952,1.4745,1.4693,1.4413,1.4206,1.4206,1.4206,1.3974,1.3476,1.4746,1.5265,1.4993,1.6512,1.6962,1.6332,1.6597,1.6617,1.6574,1.7708,1.8896,1.9907,1.9512,1.9567,1.9816,1.9263,1.9259,1.9576,1.9645,1.9872,2.0342,2.0761,2.1091,2.1245,2.1235,2.1225,2.1225,2.1215,2.1061,2.0906,2.0906,2.0741,2.0566,2.0566,2.0489,2.0342,2.0264,2.0108,1.9942,1.9863,1.9863,1.9976,2.0139,2.0079,2.0163,2.0961,2.0934,2.0974,2.156,2.1713,2.1722,2.1731,2.1919,2.2274,2.2715,2.2969,2.3135,2.3125,2.3105,2.3105,2.3105,2.3105,2.3105,2.3115,2.3105,2.3105,2.3115,2.4221,2.4819,2.4904,2.6395,2.7491,2.7962,2.8221,2.8721,2.9441,2.9002,2.8921,0.9387,1.0892,1.2311,1.3367,1.3675,1.3762,1.3593,1.3063,1.2811,1.3446,1.3071,1.284,1.3531,1.3863,1.415,1.4271,1.4751,1.5057,1.4816,1.4856,1.4856,1.4633,1.4856,0.0,0.0,0.0,0.0,1.4329,1.3852,1.3485,1.3304,1.317,1.3345,1.376,1.4303,1.5112,1.6059,1.6196,1.6272,1.6377,1.6732,1.687,1.6878,1.8327,1.9136,1.9503,1.9216,1.9154,1.9272,1.8905,1.8772,1.8843,1.9399,1.9636,1.9706,2.042,2.0731,2.0809,2.1128,2.1138,2.0984,2.0984,2.0896,2.0731,2.0731,2.0644,2.0566,2.042,2.0342,2.0264,2.0108,1.9872,1.9636,1.9548,1.9602,1.9679,1.9552,1.9919,2.0368,2.082,2.1092,2.1318,2.1624,2.1741,2.1741,2.1741,2.1919,2.2185,2.253,2.2706,2.2882,2.2882,2.3057,2.3135,2.3135,2.3135,2.3135,2.3135,2.3135,2.3222,2.358,2.4176,2.4911,2.583,2.6824,2.7679,2.8522,2.8924,2.9248,2.9485,2.9128,2.9035,1.0683,1.1864,1.2717,1.3734,1.3697,1.3347,1.2861,1.2608,1.2477,1.2721,1.205,1.1696,1.2369,1.2549,1.2602,1.2787,1.3444,1.4003,1.4143,1.4308,1.4403,1.4348,1.464,1.4665,0.0,0.0,0.0,1.3949,1.3477,1.306,1.2768,1.2741,1.3099,1.376,1.4313,1.5027,1.598,1.6033,1.603,1.5906,1.6468,1.6788,1.7033,1.8256,1.8984,1.9152,1.9002,1.8922,1.8851,1.8692,1.8523,1.8594,1.9082,1.924,1.9311,2.0098,2.0333,2.0411,2.0809,2.0886,2.0819,2.0819,2.0731,2.0566,2.0489,2.0489,2.0411,2.0177,2.0108,2.0029,1.9784,1.9557,1.9356,1.9245,1.9326,1.9431,1.953,1.9903,2.0386,2.0783,2.1105,2.1383,2.1651,2.1741,2.1741,2.1741,2.183,2.2097,2.2353,2.2706,2.2882,2.2882,2.3193,2.331,2.3154,2.3281,2.3301,2.3154,2.3232,2.3563,2.4062,2.4584,2.5312,2.6388,2.7138,2.7909,2.8679,2.9079,2.9301,2.9485,2.9128,2.9035,1.1413,1.1949,1.2009,1.2755,1.2753,1.2526,1.2077,1.215,1.2218,1.1964,1.1352,1.0866,1.0957,1.0934,1.0885,1.1037,1.1769,1.258,1.3185,1.3661,1.4049,1.4402,1.4556,1.4435,1.4172,0.0,0.0,1.3632,0.0,1.2973,1.2693,1.2933,1.3152,1.338,1.462,1.5096,1.4714,1.5971,1.6049,1.509,1.5816,1.646,1.696,1.7708,1.8353,1.8922,1.8692,1.862,1.8612,1.8362,1.8425,1.8665,1.8692,1.8772,1.9002,1.9627,1.9863,1.9942,2.0411,2.0566,2.0566,2.0566,2.0566,2.0566,2.0342,2.0264,2.0186,1.9942,1.9715,1.9557,1.9301,1.917,1.9048,1.9162,1.9194,1.9433,1.9931,2.0114,2.0307,2.0836,2.0988,2.1177,2.1642,2.1731,2.1651,2.1731,2.1741,2.182,2.2353,2.2784,2.3047,2.3047,2.3506,2.3594,2.3174,2.3535,2.3613,2.3193,2.363,2.4179,2.4682,2.5497,2.6158,2.6694,2.7616,2.8138,2.8431,2.8712,2.9024,2.9485,2.9035,2.8943,1.197,1.2944,1.376,1.3266,1.2973,1.2673,1.2157,1.1929,1.1586,1.0741,1.003,0.9221,0.8451,0.9537,1.0438,1.0192,1.1715,1.2924,1.3075,1.2994,1.3141,1.3758,1.4043,1.4314,1.4443,1.4268,0.0,0.0,1.3656,1.3418,1.3322,1.3286,1.3481,1.3995,1.4544,1.4941,1.5033,1.5196,1.4977,1.4566,1.5884,1.6542,1.6632,1.8103,1.8425,1.7764,1.7529,1.7367,1.7196,1.696,1.7212,1.7789,1.8193,1.8353,1.8353,1.9469,1.9775,1.9766,2.0401,2.0566,2.0566,2.0566,2.0489,2.0342,2.0342,2.0186,1.9951,1.9715,1.9548,1.9311,1.9152,1.9129,1.9126,1.8985,1.9458,1.9852,1.9789,2.0047,2.0352,2.0718,2.0916,2.1177,2.1909,2.1544,2.1365,2.1919,2.183,2.1741,2.182,2.2176,2.2441,2.253,2.289,2.3086,2.3057,2.389,2.4355,2.4245,2.5002,2.5595,2.6036,2.6501,2.7082,2.7918,2.8331,2.8756,2.9204,2.9338,2.9393,2.9485,2.9209,2.9035,1.275,1.3491,1.4088,1.3243,1.29,1.2458,1.1395,1.1093,1.0639,0.9426,0.8389,0.7506,0.6946,0.7957,0.8857,0.8693,1.0411,1.1892,1.2335,1.2378,1.2613,1.3404,1.3755,1.4004,1.4072,1.4096,1.4109,0.0,1.3926,1.3747,1.3687,1.3699,1.3955,1.4484,1.4652,1.4843,1.5131,1.4816,1.4817,1.4977,1.6049,1.6706,1.7049,1.8193,1.8353,1.761,0.0,1.7204,1.696,1.6886,1.6976,1.7302,1.7708,1.7781,1.7789,1.8904,1.9292,1.9292,2.001,2.0255,2.0333,2.0411,2.0333,2.0108,2.0029,1.9872,1.9627,1.9399,1.9161,1.9002,1.8754,1.8885,1.9055,1.9063,1.948,1.9963,1.9949,2.0326,2.0645,2.0934,2.1544,2.2059,2.258,2.2059,2.1882,2.2658,2.2334,2.1909,2.1731,2.1998,2.2353,2.253,2.321,2.3702,2.3781,2.4795,2.5359,2.5255,2.583,2.651,2.6891,2.7273,2.7771,2.8525,2.8719,2.8943,2.9301,2.9209,2.9209,2.9312,2.9128,2.8943,1.3566,1.3827,1.3704,1.306,1.2826,1.2217,1.0505,1.0097,0.9598,0.7954,0.6769,0.5959,0.5886,0.6538,0.7095,0.725,0.8906,1.0543,1.1563,1.1827,1.2225,1.3175,1.3529,1.3655,1.352,1.3909,1.418,1.418,1.4158,1.419,1.4128,1.4371,1.4649,1.4952,1.4825,1.486,1.5082,1.4824,1.4985,1.565,1.6147,1.6804,1.7619,1.8112,1.8112,1.7789,0.0,0.0,1.7147,1.7147,1.7139,1.7057,1.731,1.7221,1.7212,1.8256,1.8656,1.8745,1.9627,1.9863,1.9863,2.0186,2.0108,1.9784,1.9636,1.939,1.9222,1.9002,1.8851,1.8612,1.8442,1.8684,1.901,1.9178,1.9504,1.9906,2.0223,2.0645,2.1096,2.1392,2.2264,2.3028,2.324,2.2921,2.2843,2.3577,2.3086,2.2451,2.2073,2.2438,2.2782,2.288,2.4106,2.4887,2.4794,2.5991,2.6587,2.6201,2.6653,2.7136,2.7565,2.7952,2.8331,2.8746,2.8757,2.885,2.9035,2.885,2.885,2.9035,2.885,2.8757,1.3885,1.3999,1.4059,1.3338,1.2973,1.2442,1.0715,1.0097,0.9167,0.6716,0.601,0.546,0.4413,0.5866,0.7312,0.7512,0.9448,1.1115,1.1721,1.1746,1.1919,1.2529,1.3035,1.339,1.3757,1.4188,0.0,0.0,0.0,1.4975,1.5632,1.5666,1.587,1.6338,1.5487,1.5058,1.509,1.4657,1.481,1.5477,1.6064,1.664,1.7212,1.7789,1.7546,1.664,0.0,0.0,1.5982,1.5982,1.6312,1.6812,1.7057,1.6976,1.6894,1.8256,1.8576,1.8496,1.9539,1.9784,1.9715,1.9872,1.9794,1.9636,1.939,1.9231,1.9002,1.8772,1.8612,1.8442,1.8442,1.8802,1.9178,1.9153,1.9701,2.0215,2.0275,2.0645,2.1096,2.1392,2.19,2.2325,2.2511,2.3076,2.3501,2.356,2.3704,2.3737,2.3444,2.385,2.4108,2.3643,2.4906,2.5743,2.5792,2.6634,2.7274,2.72,2.7909,2.8446,2.8533,2.8626,2.8669,2.8757,2.8757,2.885,2.885,2.885,2.885,2.885,2.885,2.8664,1.3908,1.3975,1.3977,1.3236,1.2973,1.2247,0.9832,0.8989,0.7968,0.5232,0.4575,0.4283,0.3646,0.5134,0.6584,0.7089,0.888,1.0484,1.1243,1.1335,1.1658,1.247,1.2852,1.3266,1.3905,1.4274,1.4497,0.0,0.0,1.5646,1.6171,1.6301,1.6196,1.5884,1.5333,1.5166,1.5409,1.5068,1.547,1.6624,1.6722,1.7049,1.7546,1.7781,1.7456,1.6722,1.664,0.0,1.6237,1.6237,1.6566,1.7066,1.7221,1.7302,1.7465,1.8353,1.8603,1.8603,1.9231,1.9399,1.932,1.924,1.924,1.924,1.9082,1.8843,1.8683,1.8603,1.8362,1.8193,1.8193,1.8533,1.8922,1.9127,1.992,2.0727,2.1177,2.1624,2.1989,2.2097,2.2706,2.3212,2.3434,2.4008,2.4522,2.4978,2.5413,2.5476,2.4601,2.5853,2.6409,2.5413,2.6357,2.7194,2.7475,2.785,2.8131,2.8131,2.8533,2.8757,2.8571,2.8581,2.8571,2.8373,2.8373,2.8373,2.8373,2.8373,2.8373,2.8373,2.8373,2.8279,1.3825,1.3928,1.384,1.3119,1.2851,1.1979,0.9144,0.8013,0.6811,0.4272,0.3514,0.3351,0.3465,0.4583,0.5752,0.663,0.8138,0.9567,1.0479,1.0967,1.1508,1.2447,1.2817,1.3266,1.392,1.4209,0.0,0.0,0.0,0.0,1.6654,1.6885,1.646,1.5416,1.5166,1.5249,1.5733,1.5484,1.6139,1.7619,1.7221,1.7383,1.7951,1.77,1.7375,1.7139,1.7057,0.0,0.0,1.673,1.6984,1.7392,1.7392,1.7635,1.804,1.8531,1.87,1.8692,1.8922,1.9002,1.8922,1.8692,1.8772,1.8931,1.8692,1.8531,1.8362,1.8353,1.8201,1.804,1.804,1.8314,1.8708,1.9179,2.0088,2.1069,2.1872,2.2344,2.2706,2.2706,2.3416,2.41,2.4114,2.4702,2.5411,2.6023,2.6881,2.6948,2.5664,2.7601,2.8689,2.7634,2.7984,2.8508,2.9026,2.8873,2.8757,2.8757,2.8757,2.8664,2.8488,2.8395,2.829,2.8092,2.7998,2.7998,2.7998,2.7998,2.7998,2.7998,2.7998,2.7998,1.3697,1.379,1.3717,1.3273,1.2545,1.152,0.9794,0.8172,0.6519,0.4604,0.3757,0.3464,0.4016,0.4615,0.5445,0.6622,0.78,0.8861,0.9708,1.0729,1.157,1.1977,1.2693,1.3266,1.3564,1.392,0.0,0.0,0.0,0.0,1.778,1.7883,1.735,1.6312,1.5318,1.5068,1.565,1.5333,1.5914,1.7392,1.6984,1.7057,1.77,1.7294,1.7131,1.7057,1.6812,0.0,0.0,1.673,1.6984,1.7392,1.7392,1.7635,1.804,1.8531,1.8612,1.8523,1.8843,1.8851,1.8692,1.8523,1.8523,1.87,1.8523,1.8442,1.8362,1.8121,1.804,1.804,1.804,1.8314,1.8776,1.9513,2.0079,2.0659,2.1569,2.2087,2.2441,2.2441,2.3057,2.3493,2.3222,2.4478,2.5391,2.5351,2.6808,2.7667,2.689,2.8589,2.995,3.0435,2.9454,2.9131,3.0011,2.9257,2.8757,2.8757,2.8757,2.8757,2.8757,2.8488,2.8395,2.8395,2.8092,2.7998,2.7998,2.7998,2.7998,2.7998,2.7998,2.7904,1.3757,1.3863,1.3645,1.3127,1.2248,1.1009,0.9077,0.7578,0.6018,0.4161,0.3482,0.3436,0.4022,0.4461,0.5082,0.6117,0.6979,0.783,0.8731,0.9548,1.0514,1.1844,1.2277,1.2982,0.0,0.0,0.0,0.0,0.0,0.0,1.7954,1.7359,1.6542,1.5401,1.5318,1.5567,1.6147,1.6386,1.696,1.804,1.7546,1.7383,1.7546,1.7221,1.6968,1.6812,1.6738,0.0,0.0,1.6566,1.6968,1.7546,1.7473,1.7797,1.8451,1.862,1.862,1.8612,1.8603,1.8603,1.8442,1.8201,1.8201,1.8282,1.8201,1.8201,1.8121,1.8031,1.804,1.804,1.804,1.8478,1.9081,1.9312,2.0256,2.1172,2.1686,2.2183,2.2706,2.2784,2.3232,2.3503,2.3319,2.4573,2.5741,2.6571,2.8172,2.923,2.9255,2.9788,3.0322,3.0878,3.0362,3.0453,3.1412,3.017,2.9371,2.9371,2.9024,2.8757,2.8581,2.8488,2.8301,2.8196,2.8092,2.7998,2.7998,2.7998,2.7904,2.7726,2.7726,2.782,1.3014,1.3271,1.3214,1.2699,1.1662,1.0395,0.8822,0.7269,0.5658,0.415,0.3517,0.3435,0.425,0.4369,0.4685,0.575,0.6245,0.6892,0.7891,0.8651,0.9748,1.1434,1.171,1.2549,0.0,1.5196,0.0,0.0,0.0,0.0,0.0,1.7269,1.6221,1.5151,1.5484,1.5982,1.6714,1.7196,1.7691,1.8193,1.7781,1.7546,1.731,1.7057,1.6812,1.6648,0.0,0.0,0.0,1.6484,1.6968,1.7619,1.7546,1.7959,1.8612,1.8531,1.8451,1.8451,1.8362,1.8282,1.8273,1.804,1.804,1.804,1.804,1.804,1.804,1.804,1.7951,1.7895,1.8006,1.8469,1.8889,1.9116,2.0102,2.1061,2.1438,2.2054,2.2708,2.2862,2.3144,2.3456,2.3759,2.442,2.5498,2.7117,2.8614,2.9768,3.0267,3.0232,3.0362,3.0722,3.0633,3.0812,3.1601,3.0351,2.9463,2.9463,2.9013,2.8757,2.8488,2.8395,2.829,2.8092,2.7998,2.7998,2.7998,2.7998,2.7904,2.7726,2.7726,2.7978,1.1098,1.1724,1.2201,1.1778,1.0652,0.9554,0.9428,0.7444,0.549,0.4989,0.4001,0.3584,0.4859,0.4398,0.4281,0.5684,0.5791,0.6116,0.7271,0.838,0.9524,1.0676,1.101,1.1816,1.3571,1.5641,0.0,0.0,0.0,0.0,0.0,1.7908,1.6935,1.6131,1.5809,1.6221,1.7359,1.744,1.7521,1.77,1.7465,1.731,1.7049,1.6812,1.6566,0.0,0.0,0.0,0.0,1.6492,1.6984,1.7392,1.7619,1.8031,1.8362,1.8121,1.804,1.804,1.804,1.804,1.804,1.804,1.804,1.804,1.804,1.804,1.804,1.804,1.787,1.7784,1.8071,1.815,1.8228,1.8888,1.9534,2.019,2.068,2.1532,2.2273,2.2434,2.2852,2.3369,2.4335,2.4132,2.4459,2.6351,2.7677,2.8683,2.9043,2.9738,3.0295,3.0453,2.992,2.9749,3.017,2.9371,2.885,2.885,2.8757,2.8757,2.8757,2.8571,2.8395,2.8395,2.8092,2.7998,2.7998,2.7998,2.7998,2.7998,2.7998,2.8516,1.0545,1.0816,1.0859,1.0608,0.9637,0.8605,0.7939,0.6398,0.4946,0.4291,0.3599,0.3492,0.4666,0.4862,0.4969,0.5353,0.5764,0.6193,0.671,0.776,0.9326,1.1574,1.3745,1.5255,0.0,0.0,0.0,0.0,0.0,0.0,0.0,1.8162,1.7577,1.6706,1.696,1.7204,1.744,1.7853,1.7942,1.77,1.7473,1.7229,1.6812,1.6566,0.0,0.0,0.0,0.0,0.0,1.6484,1.6648,1.6984,1.7221,1.7465,1.7716,1.7789,1.7781,1.7781,1.7951,1.804,1.804,1.804,1.787,1.7781,1.7781,1.787,1.7951,1.787,1.7781,1.7725,1.8014,1.8279,1.8647,1.9138,1.9797,2.0442,2.0655,2.118,2.1745,2.182,2.2252,2.2754,2.3063,2.373,2.469,2.5978,2.7347,2.8678,3.0138,3.0232,3.0543,3.1448,3.0283,2.9749,3.0362,2.9818,2.9452,2.9452,2.9024,2.8757,2.8757,2.8757,2.8664,2.8664,2.8571,2.856,2.856,2.856,2.8827,2.9332,2.9509,3.0426,0.9162,0.9634,0.9743,0.9583,0.8743,0.7837,0.7291,0.6044,0.4871,0.431,0.3761,0.3689,0.4629,0.4834,0.4973,0.5404,0.582,0.6453,0.7505,0.8373,0.9899,1.2425,1.4953,0.0,0.0,0.0,0.0,0.0,0.0,0.0,0.0,1.8362,1.8091,1.77,1.77,1.77,1.761,1.8031,1.7951,1.7456,1.7221,1.6976,1.6566,1.6558,0.0,0.0,0.0,0.0,0.0,1.6722,1.673,1.673,1.7131,1.7383,1.7392,1.7546,1.7619,1.77,1.7861,1.7951,1.7951,1.787,1.7781,1.77,1.7619,1.787,1.8031,1.7708,1.7781,1.8049,1.804,1.8386,1.8789,1.9173,1.9694,2.0089,2.0179,2.0752,2.1211,2.1293,2.1858,2.2483,2.281,2.3594,2.4644,2.5685,2.6965,2.8342,3.0114,3.0206,3.0531,3.1713,3.0476,2.9658,3.0102,2.9738,2.9463,2.9463,2.9024,2.8757,2.8757,2.8757,2.8757,2.8757,2.8757,2.8757,2.8757,2.8932,2.9272,2.9769,3.0702,3.1688,0.0,0.8058,0.8765,0.8669,0.7846,0.7147,0.7324,0.6226,0.0,0.4827,0.4332,0.4104,0.4723,0.4495,0.459,0.5698,0.5929,0.6789,0.9176,1.0144,1.1378,1.3432,1.4962,0.0,0.0,0.0,0.0,0.0,0.0,0.0,0.0,1.8439,1.8491,1.8647,1.8014,1.7781,1.804,1.7951,1.7627,1.7057,1.6812,1.6566,1.6394,1.6566,0.0,0.0,0.0,0.0,0.0,1.7139,1.7147,1.6812,1.7456,1.7546,1.7392,1.7392,1.7546,1.77,1.77,1.7781,1.7951,1.77,1.77,1.7619,1.7473,1.7789,1.8184,1.7627,1.8031,1.8584,1.8294,1.8469,1.8789,1.9126,1.9255,1.939,1.9557,2.0094,2.0609,2.0761,2.1598,2.2388,2.3248,2.3614,2.4247,2.531,2.649,2.7677,2.9178,2.9623,3.0226,3.1448,3.0464,2.9658,2.9577,2.9117,2.8757,2.8757,2.8757,2.8757,2.8757,2.8757,2.8757,2.8757,2.8757,2.885,2.8839,2.9301,2.9588,2.9736,3.16,3.2453,0.6145,0.0,0.6861,0.6821,0.662,0.6343,0.0,0.5466,0.4913,0.469,0.4326,0.4282,0.5046,0.5261,0.5462,0.5836,0.6434,0.7437,0.9263,1.2315,1.4852,1.606,1.6805,1.7273,0.0,0.0,0.0,0.0,0.0,0.0,0.0,1.7921,1.8133,1.8005,1.7966,1.7951,1.804,1.7716,1.731,1.6812,1.673,1.6566,1.6394,1.6476,0.0,0.0,0.0,0.0,1.7147,1.731,1.7229,1.7049,1.7538,1.7546,1.7392,1.7538,1.7619,1.77,1.77,1.77,1.77,1.7375,1.7212,1.7302,1.7392,1.7878,1.8273,1.7781,1.8031,1.846,1.8556,1.8602,1.8798,1.9181,1.9375,1.9557,1.9557,1.9869,2.0093,2.0172,2.1053,2.1866,2.1987,2.3202,2.4283,2.423,2.5286,2.6414,2.7723,2.8844,3.009,3.1488,3.1613,3.1335,3.0633,2.9474,2.8757,2.8757,2.8757,2.8757,2.8757,2.8757,2.8757,2.8757,2.8757,2.9024,2.9543,2.9566,3.0228,3.1536,3.1783,3.231,0.5591,0.5908,0.6233,0.6233,0.6131,0.5959,0.5702,0.5362,0.508,0.4821,0.4643,0.4679,0.5246,0.5655,0.6027,0.6413,0.774,0.9318,1.1028,1.3483,1.5458,1.6344,1.6788,0.0,0.0,0.0,0.0,0.0,0.0,0.0,0.0,1.7037,1.72,1.7232,1.7196,1.7291,1.7546,1.7139,1.673,1.6229,1.6229,1.6147,1.6064,1.6394,1.673,0.0,0.0,0.0,1.74,1.7465,1.7383,1.7302,1.7708,1.7708,1.7546,1.7781,1.7781,1.77,1.77,1.7619,1.7546,1.7212,1.7302,1.7465,1.7392,1.804,1.8603,1.8031,1.8353,1.8922,1.8772,1.8851,1.9002,1.9222,1.9381,1.9478,1.9478,1.9627,1.9841,2.0197,2.1262,2.2241,2.2539,2.4019,2.4985,2.455,2.5306,2.6262,2.6988,2.8528,2.9957,3.1141,3.1819,3.1965,3.1436,3.0102,2.9106,2.885,2.8757,2.8757,2.8757,2.8757,2.8757,2.8757,2.9024,2.9301,2.9646,3.0114,3.0729,3.1553,3.2165,3.2623,0.5449,0.5992,0.6495,0.6247,0.595,0.576,0.576,0.5562,0.5349,0.516,0.5141,0.5275,0.5623,0.6021,0.6535,0.7265,0.9438,1.1627,1.3468,1.4432,1.5198,1.5956,1.6243,0.0,0.0,0.0,0.0,0.0,0.0,0.0,0.0,1.6035,1.6138,1.6439,1.6316,1.6509,1.705,1.6617,1.6229,1.5816,1.5816,1.5816,1.5899,1.6402,1.673,0.0,0.0,0.0,1.7392,1.7546,1.7546,1.7392,1.7797,1.7789,1.77,1.7878,1.7789,1.7619,1.7619,1.7619,1.7627,1.7294,1.7546,1.7959,1.7716,1.8201,1.886,1.8432,1.8887,1.9399,1.8931,1.9073,1.9301,1.9301,1.9381,1.9381,1.9381,1.9604,1.9991,2.0652,2.1838,2.291,2.3805,2.5104,2.5872,2.5147,2.5783,2.6253,2.6444,2.8049,2.959,3.0548,3.1501,3.1991,3.1977,3.0722,2.9635,2.9024,2.8839,2.8757,2.8757,2.8757,2.885,2.8943,2.9301,2.9577,2.976,3.0758,3.1217,3.1139,3.2398,3.2885,0.5614,0.6704,0.7473,0.5991,0.5602,0.5536,0.5536,0.5526,0.5529,0.5644,0.5785,0.6115,0.6937,0.7168,0.7435,0.8199,1.0821,1.3429,1.5088,1.6534,1.7523,1.7649,0.0,0.0,0.0,0.0,0.0,0.0,0.0,0.0,0.0,0.0,1.5741,1.6162,1.6448,1.6618,1.6834,1.6571,1.6484,1.6566,1.6394,1.6394,1.6566,1.6648,1.6902,0.0,0.0,1.7392,1.7392,1.7392,1.7392,1.74,1.7473,1.7473,1.7473,1.7473,1.7473,1.7473,1.7473,1.8023,1.8647,1.7853,1.7789,1.804,1.8371,1.8612,1.8843,1.9417,1.9496,1.9301,1.9231,1.9222,1.9301,1.9478,1.9557,1.9636,1.9784,2.0146,2.0732,2.1551,2.2562,2.3591,2.4278,2.5229,2.553,2.4702,2.4869,2.5089,2.5181,2.6595,2.8191,2.9572,3.1247,3.2214,3.2028,3.1258,3.0441,2.9726,2.9106,2.8757,2.8757,2.8757,2.9035,2.9393,2.9485,3.0034,3.1026,3.0949,3.1217,3.1862,3.1934,3.1882,0.5626,0.6413,0.7166,0.7245,0.7924,0.8511,0.8511,0.8773,0.8749,0.7843,0.7905,0.8086,0.7944,0.8648,0.9979,1.2226,1.3085,1.3976,1.5505,1.5807,1.6139,0.0,0.0,0.0,0.0,0.0,0.0,0.0,0.0,0.0,0.0,0.0,1.5267,1.5544,1.5627,1.5971,1.6602,1.6445,1.6296,1.6409,1.6245,1.6327,1.6409,1.6484,1.673,1.6984,0.0,1.6976,1.7221,1.7221,1.731,1.7392,1.7392,1.7392,1.7473,1.7789,1.8014,1.8238,1.863,1.9256,1.9797,1.8859,1.8941,1.9461,1.9156,1.9173,1.9453,1.9798,1.9712,1.965,2.0491,2.0585,2.062,2.0799,2.0857,2.0695,2.0289,2.0355,2.0799,2.1578,2.2848,2.4122,2.4909,2.6158,2.6909,2.6224,2.6174,2.6012,2.5326,2.6908,2.826,2.8648,3.0761,3.2087,3.2141,3.1719,3.0812,2.9106,2.8932,2.8943,2.9209,2.9209,2.9393,2.9852,3.0125,3.0487,3.1128,3.1395,3.1584,3.1849,3.2025,3.2025,0.5614,0.6276,0.7165,0.8455,0.9431,1.0295,1.1078,1.1447,1.1302,1.0189,1.0377,1.0348,0.9303,1.0199,1.2057,1.5046,1.4696,1.4577,1.5956,1.5495,0.0,0.0,0.0,0.0,0.0,0.0,0.0,0.0,0.0,0.0,0.0,0.0,1.4985,1.5112,1.5184,1.5638,1.6513,1.6599,1.6541,1.6327,1.6245,1.6162,1.6162,1.6237,1.6402,1.6648,1.6476,1.664,1.6976,1.6976,1.7057,1.7229,1.7229,1.731,1.7546,1.8175,1.8789,1.9483,1.9934,2.0643,2.1115,2.0022,2.0182,2.0636,2.0083,1.9931,2.0139,2.057,2.0486,2.0543,2.1514,2.1828,2.189,2.2239,2.2247,2.2083,2.1412,2.1332,2.1662,2.2402,2.371,2.4898,2.5597,2.7092,2.7857,2.7174,2.7267,2.7021,2.5779,2.7372,2.8444,2.8277,3.029,3.167,3.1866,3.1896,3.1039,2.8932,2.8943,2.9209,2.976,2.9669,2.9852,3.0306,3.0769,3.0949,3.1128,3.1673,3.1849,3.1749,3.2038,3.2125,0.57,0.7119,0.8543,0.8685,0.7844,0.7852,1.112,1.1095,1.0756,1.2009,1.2677,1.267,1.1516,1.1592,1.2295,1.3747,1.4791,1.5928,1.7359,0.0,0.0,0.0,0.0,0.0,0.0,0.0,0.0,0.0,0.0,0.0,0.0,0.0,0.0,1.5174,1.5995,1.6491,1.6577,1.7412,1.7559,1.7057,1.6566,1.6394,1.6394,1.6162,1.6245,1.6394,1.6394,1.6566,1.6738,1.6738,1.673,1.6738,1.6738,1.7139,1.7772,1.8381,1.9552,2.0894,2.0797,2.1507,2.2381,2.1517,2.0934,2.0664,2.1425,2.1041,2.0752,2.2432,2.2739,2.2408,2.1521,2.1919,2.2707,2.3363,2.3304,2.3314,2.3604,2.3953,2.4445,2.5385,2.5831,2.6152,2.6351,2.729,2.7371,2.5913,2.6505,2.694,2.6268,2.7288,2.8277,2.8869,3.0058,3.0856,3.0881,3.1442,3.1331,3.0181,2.9669,2.976,3.0487,3.0306,3.0397,3.0847,3.0859,3.1128,3.1661,3.1661,3.1749,3.1661,3.1749,3.1849,0.5944,0.7722,0.9451,0.9698,0.9746,1.0454,1.308,1.3806,1.3952,1.4412,1.4942,1.4911,1.3681,1.4209,1.499,1.5386,1.628,1.7207,0.0,0.0,0.0,0.0,0.0,0.0,0.0,0.0,0.0,0.0,0.0,0.0,0.0,0.0,0.0,1.585,1.6042,1.6232,1.6572,1.7093,1.7189,1.7074,1.721,1.7306,1.7139,1.704,1.6939,1.698,1.7373,1.7244,1.673,1.7286,1.7123,1.6566,1.7131,1.7683,1.8381,1.9562,2.0807,2.1886,2.2274,2.2905,2.3564,2.3005,2.2833,2.2882,2.3095,2.2857,2.2767,2.3432,2.3819,2.4089,2.4111,2.4285,2.454,2.4891,2.4884,2.473,2.4398,2.4367,2.4577,2.4997,2.5554,2.6008,2.6268,2.7208,2.7602,2.6829,2.7114,2.7167,2.6131,2.6744,2.7463,2.7929,2.956,3.0891,3.1485,3.1249,3.14,3.2199,3.1144,3.0633,3.0758,3.0668,3.0859,3.1395,3.1395,3.1484,3.1661,3.1661,3.1661,3.1661,3.1849,3.195,0.6411,0.7781,0.9226,1.0145,1.0761,1.1765,1.4369,1.538,1.589,1.6398,1.6587,1.6291,1.5209,1.598,1.6674,0.0,1.728,0.0,0.0,0.0,0.0,0.0,0.0,0.0,0.0,0.0,0.0,0.0,0.0,0.0,0.0,0.0,0.0,0.0,1.6403,1.6598,1.6884,1.732,1.7626,1.768,1.802,1.794,1.76,1.7314,1.7329,1.7508,1.7863,1.7754,1.7375,1.8006,1.7997,1.7423,1.7755,1.8461,1.9552,2.0663,2.1762,2.2735,2.3519,2.4089,2.458,2.4368,2.4371,2.4364,2.446,2.4313,2.4182,2.4577,2.5039,2.5566,2.6135,2.6117,2.5962,2.6191,2.6174,2.6008,2.5432,2.5348,2.5348,2.5348,2.5852,2.6268,2.6185,2.6907,2.7425,2.6971,2.7174,2.7026,2.62,2.684,2.7521,2.8094,2.9633,3.0953,3.1647,3.1271,3.1592,3.2911,3.2168,3.1761,3.1965,3.1952,3.2052,3.2077,3.2077,3.2001,3.1661,3.1661,3.1661,3.1661,3.1937,3.2038,0.7021,0.7347,0.7748,0.9867,1.0228,1.0976,1.4569,1.5259,1.568,1.7889,1.7503,1.6619,1.602,1.6402,0.0,1.6475,1.7589,0.0,0.0,0.0,0.0,0.0,0.0,0.0,0.0,0.0,0.0,0.0,0.0,0.0,0.0,0.0,0.0,0.0,1.7382,1.7794,1.7373,1.8419,1.8985,1.9214,1.8927,1.8395,1.7517,1.6923,1.7093,1.7887,1.7778,1.8103,1.8736,1.8886,1.9265,1.9483,1.87,1.9492,2.1145,2.1593,2.245,2.3502,2.4419,2.4975,2.5394,2.5638,2.5138,2.4646,2.5483,2.515,2.4836,2.6154,2.6473,2.6588,2.7093,2.6891,2.6727,2.7149,2.7067,2.6985,2.7149,2.7231,2.7231,2.7231,2.7219,2.6962,2.6351,2.653,2.6609,2.5938,2.6225,2.6609,2.6598,2.7597,2.8746,2.9884,3.0444,3.0842,3.115,3.1591,3.1915,3.1996,3.2408,3.3169,3.4345,3.4332,3.3888,3.298,3.2993,3.2575,3.1749,3.1749,3.1749,3.1749,3.195,3.2125,0.7014,0.9194,1.1196,1.1165,1.2984,1.5044,1.6018,1.589,1.6174,1.8405,1.8228,1.7578,1.7289,1.7566,0.0,1.7239,0.0,0.0,0.0,0.0,0.0,0.0,0.0,0.0,0.0,0.0,0.0,0.0,0.0,0.0,0.0,0.0,0.0,0.0,1.8259,1.8192,1.8172,1.8705,1.8917,1.875,1.9264,1.9344,1.9103,1.8671,1.8571,1.882,1.9353,1.9227,1.8736,1.8877,1.935,1.9928,2.0391,2.1372,2.2618,2.3281,2.3926,2.4526,2.467,2.5015,2.5451,2.5859,2.5803,2.5711,2.6336,2.6276,2.6054,2.6619,2.6746,2.6955,2.7522,2.7638,2.7557,2.7638,2.7638,2.7708,2.8259,2.8327,2.8327,2.8327,2.8028,2.762,2.7305,2.7192,2.6856,2.6324,2.6454,2.659,2.6473,2.7192,2.8116,2.8979,2.9548,3.016,3.0955,3.1159,3.1635,3.2521,3.2778,3.3052,3.3294,3.3251,3.3348,3.3518,3.353,3.3373,3.3116,3.3116,3.3116,3.3116,3.3386,3.3484,0.88,1.0833,1.2594,1.3606,1.5309,1.6943,1.7534,1.7196,1.7244,1.8767,1.9008,1.8849,1.8392,1.9023,0.0,0.0,0.0,0.0,0.0,0.0,0.0,0.0,0.0,0.0,0.0,0.0,0.0,0.0,0.0,0.0,0.0,0.0,0.0,0.0,1.8731,1.8687,1.8917,1.915,1.9418,1.961,1.9912,2.0058,2.0089,1.949,1.9347,1.9561,2.0127,2.0174,1.994,1.9592,2.0306,2.1568,2.1799,2.2693,2.3833,2.4205,2.4653,2.5035,2.5035,2.5338,2.5801,2.6163,2.6334,2.6391,2.6707,2.6727,2.6644,2.6727,2.688,2.7126,2.7534,2.78,2.7973,2.8122,2.8122,2.8271,2.8578,2.8645,2.8645,2.8645,2.8391,2.8113,2.7765,2.7336,2.6868,2.6348,2.631,2.6408,2.6602,2.7252,2.7947,2.8518,2.9352,3.0047,3.062,3.0856,3.1356,3.2252,3.2428,3.2591,3.2949,3.3488,3.3896,3.384,3.4087,3.4204,3.4095,3.4095,3.4165,3.4389,3.4428,3.4454,1.1439,1.2251,1.2885,1.6501,1.7233,1.7477,1.8986,1.9054,1.8865,1.9198,1.9924,2.0285,1.947,2.0501,0.0,0.0,0.0,0.0,0.0,0.0,0.0,0.0,0.0,0.0,0.0,0.0,0.0,0.0,0.0,0.0,0.0,0.0,0.0,0.0,1.8942,1.9292,1.9551,1.9788,2.0307,0.0,2.0723,2.0601,2.0654,1.9795,1.9707,2.022,2.0349,2.0987,2.1789,2.088,2.1859,2.3758,2.3001,2.3587,2.479,2.4686,2.488,2.524,2.5484,2.5782,2.624,2.6479,2.6561,2.6561,2.6561,2.6561,2.6644,2.6644,2.6951,2.7267,2.7267,2.7615,2.8042,2.8431,2.851,2.851,2.859,2.8669,2.8669,2.8669,2.8633,2.844,2.7956,2.7363,2.6795,2.6214,2.6088,2.6245,2.6973,2.7682,2.8157,2.8373,2.9592,3.029,3.0124,3.066,3.1211,3.1535,3.1609,3.1984,3.2955,3.4451,3.4927,3.4206,3.4754,3.4952,3.4788,3.487,3.5157,3.5694,3.5359,3.5142,1.093,1.3549,1.6072,1.7049,1.8566,1.9761,1.9673,2.0322,2.0824,2.0366,2.041,2.0669,2.1187,0.0,0.0,0.0,0.0,0.0,0.0,0.0,0.0,0.0,0.0,0.0,0.0,0.0,0.0,0.0,0.0,0.0,0.0,0.0,0.0,1.9933,1.9671,1.9638,1.9906,2.0274,2.0659,0.0,2.1445,2.1573,2.1282,2.1056,2.0996,2.1171,2.1091,2.1389,2.1958,2.2165,2.2866,2.3928,2.442,2.4902,2.5413,2.5507,2.5572,2.5492,2.5576,2.5724,2.5979,2.6063,2.6146,2.6324,2.6324,2.6385,2.6539,2.6809,2.7126,2.7603,2.8099,2.8271,2.851,2.8907,2.8816,2.8882,2.939,2.9611,2.9767,2.9767,2.9479,2.9214,2.8938,2.8084,2.7243,2.6634,2.6802,2.7066,2.739,2.7695,2.8078,2.8565,2.925,2.9784,3.0098,3.0795,3.1272,3.1347,3.1522,3.1736,3.2139,3.3139,3.3955,3.4643,3.5329,3.5852,3.6243,3.6844,3.7232,3.7372,3.6752,3.6531,1.218,1.4716,1.7002,1.927,2.0453,2.1037,2.0858,2.153,2.2101,2.1678,2.1592,2.1694,0.0,0.0,0.0,0.0,0.0,0.0,0.0,0.0,0.0,0.0,0.0,0.0,0.0,0.0,0.0,0.0,0.0,0.0,0.0,1.9386,1.9198,1.9878,1.9628,1.9692,1.9959,2.0606,2.0979,2.1155,2.214,2.2436,2.2205,2.1595,2.1318,2.1369,2.1348,2.1778,2.2372,2.2807,2.3618,2.4588,2.5005,2.5416,2.5728,2.5728,2.5644,2.5559,2.5464,2.5464,2.5549,2.5549,2.5884,2.6218,2.6218,2.6539,2.6857,2.7033,2.7371,2.7788,2.8111,2.8351,2.859,2.8736,2.8961,2.9197,2.9378,2.9599,2.9754,2.9599,2.9515,2.9378,2.895,2.8142,2.7532,2.7365,2.7314,2.7335,2.7469,2.759,2.7774,2.809,2.8641,2.9162,2.968,3.0315,3.0908,3.1259,3.1434,3.1522,3.1743,3.2394,3.326,3.4175,3.5301,3.6206,3.6959,3.7577,3.8113,3.8575,3.74,3.7014,1.3088,1.5306,1.7255,2.155,2.2237,2.1865,2.1939,2.2555,2.304,2.2798,2.2919,0.0,0.0,0.0,0.0,0.0,0.0,0.0,0.0,0.0,0.0,0.0,0.0,0.0,0.0,0.0,0.0,0.0,0.0,0.0,2.0775,1.9922,1.9438,1.9456,1.9561,1.9747,2.007,2.0855,2.1352,2.1578,2.2499,2.2953,2.3027,2.186,2.1399,2.1491,2.1688,2.2231,2.3094,2.3276,2.4021,2.5126,2.5285,2.5444,2.5749,2.5743,2.5615,2.5486,2.5296,2.5179,2.52,2.5274,2.5695,2.6185,2.6351,2.6857,2.7348,2.7348,2.7615,2.7962,2.7962,2.8283,2.851,2.851,2.8882,2.9263,2.904,2.9197,2.9275,2.9131,2.9275,2.9334,2.8774,2.8318,2.8017,2.8009,2.7721,2.7507,2.7482,2.7523,2.7523,2.7523,2.8046,2.8664,2.9219,2.9817,3.0553,3.1309,3.1429,3.1569,3.1817,3.2286,3.2938,3.3654,3.519,3.639,3.7142,3.7794,3.8575,3.9337,3.7947,3.7477,1.0669,1.4295,1.8515,2.1799,2.2665,2.2665,2.2335,2.31,2.3865,0.0,2.3497,0.0,0.0,0.0,0.0,0.0,0.0,0.0,0.0,0.0,0.0,0.0,0.0,0.0,0.0,0.0,0.0,0.0,0.0,0.0,2.0464,1.932,1.9096,2.0054,2.006,2.0232,2.0653,2.145,2.1934,2.2025,2.2174,2.2482,2.2783,2.2091,2.2025,2.2564,2.247,2.2907,2.3795,2.4013,2.4294,2.4657,2.5485,2.5476,2.5136,2.6126,2.5826,2.5009,2.5419,2.5293,2.5031,2.5611,2.5935,2.6268,2.6857,2.7452,2.78,2.78,2.8111,2.8431,2.8431,2.8431,2.851,2.851,2.8724,2.887,2.8882,2.8961,2.9131,2.9131,2.9456,2.9591,2.9151,2.9308,2.9117,2.787,2.7988,2.8017,2.74,2.759,2.7723,2.7523,2.8195,2.8781,2.9187,3.0064,3.086,3.1425,3.1771,3.2128,3.2561,3.2988,3.3382,3.3746,3.5268,3.6403,3.6936,3.8487,3.9265,3.9424,3.8797,3.8634,1.1768,1.5712,1.9492,2.2171,2.3065,2.3185,2.2798,2.3258,2.3641,2.3522,0.0,0.0,0.0,0.0,0.0,0.0,0.0,0.0,0.0,0.0,0.0,0.0,0.0,0.0,0.0,0.0,0.0,0.0,0.0,2.0801,2.1341,2.0302,2.0042,2.0807,2.0744,2.0803,2.105,2.1819,2.2466,2.3044,2.2703,2.2663,2.3033,2.2745,2.2621,2.2668,2.2849,2.3267,2.3898,2.4231,2.4449,2.4581,2.5385,2.5514,2.5322,2.6083,2.6072,2.5627,2.5749,2.5847,2.5923,2.6183,2.6867,2.7697,2.795,2.8549,2.9153,2.9153,2.9236,2.9328,2.9027,2.8955,2.8883,2.8582,2.8578,2.8736,2.9028,2.904,2.904,2.9341,2.9664,3.005,3.0472,3.0118,2.96,2.9088,2.873,2.8279,2.7696,2.8039,2.8222,2.7973,2.8542,2.9102,2.9547,2.9997,3.0515,3.1062,3.1512,3.191,3.2095,3.2863,3.3409,3.3701,3.5437,3.6589,3.6923,3.8383,3.9177,3.9352,3.8649,3.8296,1.242,1.5647,1.8251,2.1596,2.2562,2.2796,2.3191,2.339,2.3463,0.0,0.0,0.0,0.0,0.0,0.0,0.0,0.0,0.0,0.0,0.0,0.0,0.0,0.0,0.0,0.0,0.0,0.0,0.0,0.0,2.1651,2.2125,2.1339,2.1041,2.1501,2.1385,2.1418,2.1533,2.2199,2.2868,2.3557,2.2972,2.2818,2.3022,2.2898,2.2785,2.2703,2.3124,2.3536,2.3895,2.4224,2.444,2.4681,2.53,2.5555,2.5696,2.6372,2.6451,2.6136,2.6384,2.6494,2.6625,2.6921,2.779,2.87,2.8798,2.9397,3.0001,3.0001,3.0086,2.9989,2.9605,2.9496,2.94,2.9003,2.8879,2.8986,2.9287,2.9263,2.9328,2.9845,3.0024,3.0406,3.132,3.0703,2.9984,3.0033,2.9335,2.8606,2.7987,2.8417,2.8675,2.8481,2.883,2.9329,2.9808,3.0002,3.0294,3.0912,3.1376,3.1695,3.1886,3.2776,3.3391,3.3596,3.5485,3.6579,3.6796,3.8073,3.8909,3.9227,3.8662,3.8453,1.0822,1.1926,1.3348,1.9335,2.0552,2.0923,2.3328,2.37,2.3569,0.0,0.0,0.0,0.0,0.0,0.0,0.0,0.0,0.0,0.0,0.0,0.0,0.0,0.0,0.0,0.0,0.0,0.0,0.0,0.0,2.1998,2.24,2.1688,2.1534,2.2121,2.1908,2.1934,2.236,2.2839,2.3027,2.2846,2.2433,2.2341,2.2513,2.209,2.2342,2.321,2.3398,2.3568,2.381,2.3831,2.4277,2.489,2.5439,2.5694,2.6038,2.7397,2.7083,2.6149,2.7464,2.737,2.6779,2.7903,2.8332,2.8528,2.9165,2.9506,2.9748,2.9748,2.9917,3.0074,3.0062,3.005,3.0037,3.0013,2.9946,2.9745,2.9452,2.9871,3.0317,3.0532,3.0532,3.0683,3.1158,3.0864,3.041,2.9864,2.9578,2.9118,2.8368,2.861,2.8803,2.8803,2.8958,2.9289,2.9803,3.0228,3.0736,3.1223,3.1682,3.2025,3.2428,3.297,3.3353,3.3682,3.5154,3.6192,3.6614,3.7827,3.8577,3.894,3.9493,4.001,0.9225,1.0633,1.2201,1.5865,1.8383,2.0128,2.099,2.235,2.339,2.315,0.0,0.0,0.0,0.0,0.0,0.0,0.0,0.0,0.0,0.0,0.0,0.0,0.0,0.0,0.0,0.0,0.0,0.0,0.0,0.0,2.3149,2.2694,2.2553,2.2875,2.2592,2.2381,2.2402,2.3023,2.3244,2.3005,2.2685,2.2686,2.2945,2.2784,2.2802,2.2944,2.3318,2.3614,2.3841,2.3841,2.4015,2.4466,2.5098,2.5452,2.5786,2.6661,2.7038,2.7176,2.7666,2.811,2.8489,2.8987,2.9412,2.9854,3.0132,3.032,3.0508,3.0508,3.0596,3.06,3.0429,3.0334,3.0337,3.0068,3.0219,3.0393,3.0407,3.0482,3.0607,3.0921,3.122,3.1529,3.2042,3.1539,3.0952,3.0719,3.009,2.9434,2.8922,2.9387,2.9685,2.9435,2.9822,3.0144,3.0312,3.0467,3.0672,3.087,3.1325,3.1685,3.1874,3.2483,3.2896,3.2911,3.4082,3.5185,3.6178,3.7571,3.8363,3.8632,3.9629,4.0053,0.7693,0.9017,1.0544,1.3118,1.5653,1.7931,1.9522,2.1226,2.2602,2.2977,0.0,0.0,0.0,0.0,0.0,0.0,0.0,0.0,0.0,0.0,0.0,0.0,0.0,0.0,0.0,0.0,0.0,0.0,0.0,0.0,2.3677,2.3298,2.3075,2.3075,2.294,2.2713,2.2402,2.3271,2.3408,2.2775,2.3154,2.3382,2.3429,2.3429,2.3426,2.3408,2.3776,2.3734,2.3493,2.3667,2.4005,2.4356,2.5179,2.5807,2.6358,2.6991,2.7607,2.8105,2.8221,2.8847,2.9489,2.9623,3.0053,3.0487,3.0487,3.0679,3.0883,3.0883,3.0972,3.0979,3.0966,3.1074,3.0931,3.0431,3.0608,3.0994,3.1189,3.111,3.1158,3.1468,3.1776,3.2069,3.2632,3.1792,3.1138,3.1258,3.0389,2.9651,2.9401,2.9837,3.0144,3.0007,3.0326,3.0568,3.0568,3.0568,3.0642,3.0642,3.1035,3.1267,3.1329,3.1955,3.2518,3.2912,3.3799,3.4916,3.627,3.746,3.8172,3.8446,3.9803,4.0382,0.0,0.0,0.0,1.1191,1.2451,1.42,1.8933,2.0269,2.1029,2.2913,0.0,0.0,0.0,0.0,0.0,0.0,0.0,0.0,0.0,0.0,0.0,0.0,0.0,0.0,0.0,0.0,0.0,0.0,0.0,2.374,2.3959,2.3519,2.3161,2.2724,2.2958,2.2902,2.2413,2.3587,2.3493,2.2165,2.3727,2.424,2.3805,2.3898,2.4158,2.4584,2.4713,2.4039,2.2882,2.358,2.4179,2.4702,2.5889,2.6902,2.7817,2.8468,2.8715,2.8735,2.9295,2.9444,2.9507,2.9829,3.0057,3.0216,3.0216,3.0397,3.0578,3.0578,3.0769,3.1151,3.1825,3.2105,3.2021,3.1337,3.1292,3.1435,3.158,3.1743,3.1963,3.2182,3.2182,3.23,3.2605,3.1695,3.1057,3.1391,3.0417,2.9679,2.9822,2.9974,3.0172,3.0266,3.0447,3.0582,3.0568,3.0568,3.0642,3.0762,3.0702,3.0762,3.1087,3.136,3.2205,3.3683,3.4348,3.5447,3.6874,3.7452,3.7982,3.846,4.0167,4.1107,0.583,0.0,0.0,0.0,0.0,0.0,0.0,0.0,1.844,0.0,0.0,0.0,0.0,0.0,0.0,0.0,0.0,0.0,0.0,0.0,0.0,0.0,0.0,0.0,0.0,0.0,0.0,0.0,2.4814,2.4791,2.5276,2.4264,2.3653,2.3666,2.346,2.3232,2.2863,2.374,2.3722,2.2793,2.4135,2.4785,2.4925,2.5272,2.5677,2.5902,2.5294,2.4702,2.4296,2.5316,2.6214,2.6955,2.6786,2.7309,2.8206,2.7823,2.8065,2.8499,2.8632,2.9003,2.95,2.984,2.9977,2.9977,2.9977,3.0148,3.0306,3.0578,3.0769,3.1128,3.1813,3.219,3.2275,3.1673,3.1588,3.1602,3.1404,3.1508,3.1817,3.2109,3.2372,3.2423,3.2124,3.2,3.1688,3.0923,3.063,3.0298,2.9865,2.9974,3.0111,3.0158,3.0233,3.028,3.0387,3.0387,3.0447,3.0642,3.0702,3.0881,3.1234,3.1382,3.2063,3.3282,3.4117,3.5149,3.6393,3.7338,3.8296,3.9146,4.059,4.1707,0.0,0.0,0.0,0.0,0.0,0.0,0.0,0.0,0.0,0.0,0.0,0.0,0.0,0.0,0.0,0.0,0.0,0.0,0.0,0.0,0.0,0.0,0.0,0.0,0.0,0.0,0.0,2.5505,2.5172,2.5117,2.5475,2.4624,2.4185,2.4145,2.4106,2.3821,2.3423,2.4443,2.4545,2.385,2.5403,2.6162,2.6197,2.6723,2.6953,2.7058,2.6532,2.6273,2.6284,2.751,2.7698,2.7314,2.7633,2.8198,2.8835,2.8346,2.8696,2.9229,2.8696,2.9148,2.9943,2.9691,2.9703,2.9886,2.9886,3.0148,3.0487,3.0668,3.1205,3.1689,3.1883,3.2284,3.2492,3.1945,3.1703,3.1513,3.1481,3.1457,3.1522,3.2109,3.2167,3.215,3.2,3.2024,3.1752,3.1087,3.0892,3.0708,3.0324,3.0192,3.0172,3.028,3.028,3.0456,3.0884,3.0913,3.1137,3.1672,3.1438,3.1574,3.2362,3.2092,3.2771,3.4472,3.5038,3.5933,3.7205,3.7735,3.8642,3.9813,4.1021,4.1843,0.0,0.0,0.0,0.0,0.0,0.0,0.0,0.0,0.0,0.0,0.0,0.0,0.0,0.0,0.0,0.0,0.0,0.0,0.0,0.0,0.0,0.0,0.0,0.0,0.0,2.4886,2.5333,2.5501,2.5257,2.5159,2.5135,2.4957,2.4731,2.4574,2.4722,2.4562,2.4192,2.5258,2.5588,2.506,2.6997,2.7808,2.7636,2.8084,2.8187,2.7959,2.8028,2.8096,2.8131,2.9499,2.8751,2.7004,2.8574,2.9439,2.9762,2.9591,3.0023,3.0476,2.9301,2.9658,3.0476,2.9669,2.968,3.0068,3.0068,3.0499,3.1038,3.1038,3.1925,3.2599,3.209,3.2483,3.2784,3.2278,3.1832,3.1603,3.194,3.1635,3.1527,3.2204,3.1905,3.1749,3.2234,3.1895,3.1664,3.1735,3.1425,3.1133,3.1054,3.0616,3.0366,3.0522,3.0522,3.086,3.1565,3.1804,3.2205,3.3181,3.2537,3.2735,3.4088,3.3273,3.3943,3.6426,3.6657,3.7415,3.873,3.8553,3.9137,4.0514,4.1394,4.1799,0.0,0.0,0.0,0.0,0.0,0.0,0.0,1.0652,1.1972,0.0,0.0,0.0,0.0,0.0,0.0,0.0,0.0,0.0,0.0,0.0,0.0,0.0,0.0,0.0,0.0,2.5683,2.5874,2.5676,2.6181,2.6416,2.6212,2.5776,2.561,2.5707,2.498,2.4636,2.4791,2.4864,2.4937,2.5148,2.6551,2.7513,2.8171,2.909,2.9353,2.9015,2.8371,2.8039,2.7914,2.8609,2.9484,3.0428,3.047,3.0925,3.1392,3.0147,3.0181,3.0722,2.9909,3.0181,3.0902,3.1092,3.1181,3.1193,3.0824,3.1181,3.1813,3.2025,3.255,3.2957,3.2857,3.3076,3.3263,3.3238,3.326,3.3384,3.3557,3.3356,3.3143,3.3184,3.2545,3.2044,3.2097,3.2555,3.2746,3.227,3.2838,3.282,3.1392,3.1442,3.1287,3.0276,3.0172,3.0276,3.056,3.1557,3.2318,3.2632,3.3484,3.426,3.4935,3.4607,3.5206,3.6958,3.848,3.9357,3.9633,4.0303,4.0762,4.1057,4.1972,4.236,0.0,0.0,0.0,0.6995,0.0,0.0,0.0,0.0,1.1283,1.4075,0.0,0.0,0.0,0.0,0.0,0.0,0.0,0.0,0.0,0.0,0.0,0.0,0.0,0.0,0.0,0.0,2.6096,2.5489,2.6028,2.6336,2.6227,2.5865,2.584,2.6078,2.5481,2.5409,2.5852,2.6107,2.6422,2.6899,2.8001,2.8713,2.9058,2.9654,2.9767,2.9419,2.8937,2.8621,2.8534,2.9246,3.0165,3.1051,3.1004,3.1267,3.156,3.0656,3.0734,3.1169,3.0453,3.0722,3.1484,3.1747,3.1752,3.1721,3.2148,3.2739,3.327,3.362,3.3894,3.4063,3.4063,3.4134,3.4223,3.4252,3.4138,3.4087,3.4187,3.3955,3.3588,3.3537,3.3367,3.2973,3.19,3.2309,3.2544,3.1797,3.2527,3.2991,3.2441,3.2316,3.2288,3.2451,3.2511,3.269,3.314,3.3931,3.4605,3.5136,3.5581,3.6191,3.7122,3.668,3.7292,3.9135,4.0429,4.0995,4.0806,4.1647,4.1813,4.1312,4.2113,4.2518,0.0,0.0,0.0,0.0,0.0,0.7937,0.0,0.0,0.0,0.0,0.0,0.0,0.0,0.0,0.0,0.0,0.0,0.0,0.0,0.0,0.0,0.0,0.0,0.0,0.0,0.0,2.5707,2.5236,2.5174,2.5376,2.5826,2.5665,2.5795,2.6119,2.605,2.6177,2.6621,2.7369,2.7977,2.845,2.9492,2.9897,2.9702,2.9998,2.9908,2.9561,2.9419,2.9275,2.9283,3.0065,3.0516,3.0756,3.1223,3.1387,3.1484,3.1128,3.1294,3.1637,3.1015,3.1431,3.2296,3.2442,3.2386,3.2394,3.372,3.4439,3.4775,3.5222,3.5379,3.5379,3.5379,3.5299,3.5232,3.5517,3.4995,3.4713,3.5262,3.4903,3.4375,3.4145,3.4337,3.4001,3.233,3.2558,3.2786,3.215,3.2912,3.3662,3.3804,3.3531,3.3701,3.4722,3.4826,3.5117,3.5812,3.6283,3.6949,3.7799,3.7799,3.8302,3.9557,3.9066,3.9661,4.1507,4.2187,4.2362,4.2105,4.2875,4.2745,4.1799,4.2394,4.2875,0.0,0.0,0.0,0.0,0.8175,0.0,0.0,0.0,0.0,0.8936,0.0,0.0,0.0,0.0,0.0,0.0,0.0,0.0,0.0,0.0,0.0,0.0,0.0,0.0,0.0,0.0,0.0,2.5144,2.376,2.3703,2.5539,2.5598,2.5727,2.5898,2.6094,2.6188,2.6263,2.7022,2.7573,2.789,2.8911,2.9429,2.9431,2.9921,3.0139,3.0177,2.9419,2.9341,2.9636,2.9971,3.0253,3.0493,3.1539,3.2077,3.2213,3.1484,3.1661,3.2201,3.1637,3.2305,3.3444,3.3847,3.4059,3.4359,3.545,3.5505,3.5385,3.6385,3.6703,3.6703,3.6703,3.6316,3.6133,3.7315,3.6661,3.6303,3.8056,3.7769,3.6906,3.5967,3.5394,3.4874,3.4321,3.4957,3.5641,3.5766,3.6667,3.6906,3.5592,3.588,3.5786,3.4663,3.4643,3.4789,3.4867,3.6174,3.7295,3.7921,3.9391,4.0546,4.1388,4.156,4.2004,4.2807,4.3128,4.3406,4.3681,4.4011,4.3781,4.3185,4.3403,4.3843,0.0,0.0,0.0,0.0,0.0,0.0,0.8039,0.0,0.7796,0.0,0.0,0.0,0.0,0.0,0.0,0.0,0.0,0.0,0.0,0.0,0.0,0.0,0.0,0.0,0.0,0.0,0.0,0.0,0.0,2.257,2.4391,2.4632,2.4987,2.5611,2.5864,2.6404,2.7251,2.7704,2.8331,2.9139,2.953,2.977,2.9819,3.033,3.0482,3.0317,3.0469,3.042,3.0388,3.0792,3.0984,3.1137,3.1907,3.23,3.2388,3.2025,3.2113,3.2388,3.2612,3.3021,3.3619,3.4715,3.5913,3.7074,3.711,3.7542,3.8111,3.8471,3.8861,3.9137,3.9308,3.9114,3.9158,3.9733,3.9479,3.942,4.0385,4.0397,4.0061,3.9489,3.9742,3.9877,3.948,3.7197,3.5401,3.563,3.6552,3.707,3.6669,3.7083,3.746,3.7644,3.8257,3.8702,3.8702,3.9876,4.0742,4.0992,4.1904,4.2756,4.3529,4.4079,4.4647,4.5243,4.6244,4.6473,4.5926,4.6516,4.6506,4.5972,4.4699,4.4438,1.2827,0.0,0.0,0.0,0.0,0.0,0.0,0.0,0.0,0.0,0.0,0.0,0.0,0.0,0.0,0.0,0.0,0.0,0.0,0.0,0.0,0.0,0.0,0.0,0.0,0.0,0.0,0.0,0.0,0.0,2.3529,2.3928,2.4467,2.5398,2.589,2.6776,2.8088,2.8384,2.903,2.9923,3.0215,3.0355,3.0355,3.0983,3.1119,3.0996,3.1355,3.1523,3.1474,3.1727,3.1921,3.2122,3.2598,3.2736,3.2562,3.2487,3.2486,3.2584,3.3119,3.3687,3.4276,3.562,3.7377,3.8965,3.871,3.9454,4.0451,4.0532,4.087,4.1294,4.1553,4.1426,4.1426,4.1838,4.168,4.1621,4.2218,4.2397,4.2392,4.2308,4.2953,4.351,4.3404,4.0193,3.7584,3.7552,3.8278,3.8835,3.8892,3.9185,3.969,4.0474,4.1342,4.1869,4.1869,4.2635,4.3302,4.3784,4.4383,4.502,4.5629,4.622,4.6917,4.7731,4.8687,4.883,4.822,4.8637,4.8592,4.8017,4.5974,4.5429,0.0,0.0,0.0,1.1013,0.0,0.0,0.0,0.0,0.8498,0.0,0.0,0.0,0.0,0.0,0.0,0.0,0.0,0.0,0.0,0.0,0.0,0.0,0.0,0.0,0.0,0.0,0.0,0.0,0.0,0.0,2.3355,2.4005,2.46,2.5398,2.6219,2.713,2.8066,2.8718,2.9155,2.9561,3.0673,3.1057,3.0895,3.1709,3.2245,3.2547,3.1809,3.2132,3.3159,3.2749,3.2787,3.3196,3.3482,3.3398,3.2995,3.2562,3.2543,3.282,3.2997,3.4295,3.5898,3.6914,3.8158,3.94,4.0172,4.0988,4.1713,4.2317,4.25,4.2603,4.2754,4.2389,4.2178,4.3053,4.2524,4.2117,4.3257,4.3454,4.3396,4.3344,4.3397,4.3716,4.4619,4.4552,4.4212,4.376,4.4181,4.4118,4.2948,4.3141,4.3017,4.2325,4.2379,4.2448,4.2448,4.2792,4.3666,4.5216,4.6556,4.7399,4.7596,4.7741,4.8505,4.9855,4.9296,4.9453,5.0294,4.9718,4.9135,4.848,4.7292,4.7124,0.0,0.0,1.8568,1.4184,0.0,0.0,0.0,0.0,0.0,0.0,0.0,0.0,0.0,0.0,0.0,0.0,0.0,0.0,0.0,0.0,0.0,0.0,0.0,0.0,0.0,0.0,0.0,0.0,0.0,0.0,0.0,2.3863,2.4521,2.5519,2.6287,2.7378,2.8904,2.9285,2.9992,3.0869,3.1483,3.1796,3.1709,3.2506,3.2747,3.2489,3.2789,3.3211,3.3696,3.3517,3.3991,3.4767,3.4446,3.4454,3.4428,3.33,3.2934,3.3109,3.4225,3.5482,3.6917,3.8228,3.94,4.0433,4.1113,4.205,4.2907,4.3118,4.3469,4.3885,4.4223,4.4248,4.4314,4.542,4.5619,4.5809,4.668,4.7441,4.7901,4.7872,4.8564,4.9167,4.8997,4.9374,4.8828,4.6274,4.5429,4.5031,4.4811,4.4783,4.4626,4.4263,4.4922,4.539,4.539,4.5996,4.6585,4.7158,4.7607,4.8055,4.8536,4.8407,4.9017,5.0488,5.0643,5.0837,5.127,5.1572,5.131,5.0629,5.0243,4.943,1.9058,2.029,0.0,1.6666,1.6827,0.0,1.2341,0.0,0.0,0.0,0.0,0.0,0.0,0.0,0.0,0.0,0.0,0.0,0.0,0.0,0.0,0.0,0.0,0.0,0.0,0.0,0.0,0.0,0.0,0.0,0.0,0.0,2.4226,2.5403,2.6563,2.7923,2.9671,3.0263,3.0983,3.1809,3.2014,3.2171,3.2448,3.2653,3.2779,3.2775,3.3212,3.3748,3.4237,3.4594,3.5232,3.5871,3.5721,3.5764,3.5751,3.4115,3.3854,3.4536,3.5818,3.7096,3.836,3.9486,4.0611,4.1625,4.2117,4.2948,4.3913,4.4188,4.4379,4.4769,4.5642,4.5718,4.5898,4.6974,4.7704,4.8164,4.8677,4.9599,5.0365,5.049,5.1229,5.1776,5.1842,5.2104,5.1312,4.8425,4.7501,4.7065,4.6748,4.6649,4.651,4.6234,4.6916,4.7317,4.7317,4.7976,4.8372,4.8372,4.9003,4.9274,4.92,4.9584,5.0086,5.0642,5.1401,5.18,5.1864,5.2595,5.2513,5.1736,5.1783,5.0947]},{"header":{"parameterUnit":"m.s-1","parameterCategory":1,"la1":30.6,"la2":29.2853,"lo1":-89.7004,"lo2":-87.6739,"dx":0.0162,"dy":0.0183,"nx":112,"ny":82,"refTime":"2023-01-07T06:00:00:Z","depth":0,"parameterNumber":3,"parameterNumberName":"V-component_of_WINDS"},"data":[0.0,0.0,0.0,0.0,0.0,0.0,0.0,0.0,0.0,0.0,0.0,0.0,0.0,0.0,0.0,0.0,0.0,0.0,0.0,0.0,0.0,0.0,0.0,0.0,0.0,0.0,0.0,0.0,0.0,0.0,0.0,0.0,0.0,0.0,0.0,0.0,0.0,0.0,0.0,0.0,0.0,0.0,0.0,0.0,0.0,0.0,0.0,0.0,0.0,0.0,0.0,0.0,0.0,0.0,0.0,0.0,0.0,0.0,0.0,0.0,0.0,0.0,0.0,0.0,0.0,0.0,0.0,0.0,0.0,0.0,0.0,0.0,0.0,0.0,0.0,0.0,0.0,0.0,0.0,0.0,0.0,0.0,0.0,0.0,0.0,0.0,0.0,0.0,0.0,0.0,2.6108,2.7059,2.7315,2.7661,2.8133,2.6807,2.5666,2.504,0.0,0.0,0.0,0.0,0.0,0.0,0.0,0.0,0.0,0.0,0.0,0.0,0.0,0.0,0.0,0.0,0.0,0.0,0.0,0.0,0.0,0.0,0.0,0.0,0.0,0.0,0.0,0.0,0.0,0.0,0.0,0.0,0.0,0.0,0.0,0.0,0.0,0.0,0.0,0.0,0.0,0.0,0.0,0.0,0.0,0.0,0.0,0.0,0.0,0.0,0.0,0.0,0.0,0.0,0.0,0.0,0.0,0.0,0.0,0.0,0.0,0.0,0.0,0.0,0.0,0.0,0.0,0.0,0.0,0.0,0.0,0.0,0.0,0.0,0.0,0.0,0.0,0.0,0.0,0.0,0.0,0.0,0.0,0.0,0.0,0.0,0.0,0.0,0.0,0.0,0.0,0.0,0.0,0.0,0.0,0.0,0.0,0.0,0.0,0.0,0.0,0.0,0.0,0.0,2.6144,2.7667,2.8228,2.8389,2.8134,2.776,2.6674,2.4655,0.0,0.0,0.0,0.0,0.0,0.0,0.0,0.0,0.0,0.0,0.0,0.0,0.0,0.0,0.0,0.0,0.0,0.0,0.0,0.0,0.0,0.0,0.0,0.0,0.0,0.0,0.0,0.0,0.0,0.0,0.0,0.0,0.0,0.0,0.0,0.0,0.0,0.0,0.0,0.0,0.0,0.0,0.0,0.0,0.0,0.0,0.0,0.0,0.0,0.0,0.0,0.0,0.0,0.0,0.0,0.0,0.0,0.0,0.0,0.0,0.0,0.0,0.0,0.0,0.0,0.0,0.0,0.0,0.0,0.0,0.0,0.0,0.0,0.0,0.0,0.0,0.0,0.0,0.0,0.0,0.0,0.0,0.0,0.0,0.0,0.0,0.0,0.0,0.0,0.0,0.0,0.0,0.0,0.0,0.0,0.0,0.0,0.0,0.0,0.0,0.0,0.0,0.0,2.6366,2.794,2.8969,2.9123,2.9021,2.8768,2.8629,2.747,2.4885,2.3415,0.0,0.0,0.0,0.0,0.0,0.0,0.0,0.0,0.0,0.0,0.0,0.0,0.0,0.0,0.0,0.0,0.0,0.0,0.0,0.0,0.0,0.0,0.0,0.0,0.0,0.0,0.0,0.0,0.0,0.0,0.0,0.0,0.0,0.0,0.0,0.0,0.0,0.0,0.0,0.0,0.0,0.0,0.0,0.0,0.0,0.0,0.0,0.0,0.0,0.0,0.0,0.0,0.0,0.0,0.0,0.0,0.0,0.0,0.0,0.0,0.0,0.0,0.0,0.0,0.0,0.0,0.0,0.0,0.0,0.0,0.0,0.0,0.0,0.0,0.0,0.0,0.0,0.0,0.0,0.0,0.0,0.0,0.0,0.0,0.0,0.0,0.0,0.0,0.0,0.0,0.0,0.0,0.0,0.0,0.0,0.0,0.0,0.0,0.0,0.0,0.0,0.0,2.8429,2.9485,2.9899,2.9881,2.9679,2.9212,2.9257,2.8032,2.5067,2.4232,0.0,0.0,0.0,0.0,0.0,0.0,0.0,0.0,0.0,0.0,0.0,0.0,0.0,0.0,0.0,0.0,0.0,0.0,0.0,0.0,0.0,0.0,0.0,0.0,0.0,0.0,0.0,0.0,0.0,0.0,0.0,0.0,0.0,0.0,0.0,0.0,0.0,0.0,0.0,0.0,0.0,0.0,0.0,0.0,0.0,0.0,0.0,0.0,0.0,0.0,0.0,0.0,0.0,0.0,0.0,0.0,0.0,0.0,0.0,0.0,0.0,0.0,0.0,0.0,0.0,0.0,0.0,0.0,0.0,0.0,0.0,0.0,0.0,0.0,0.0,0.0,0.0,0.0,0.0,0.0,0.0,0.0,0.0,0.0,0.0,0.0,0.0,0.0,0.0,0.0,0.0,0.0,0.0,0.0,0.0,0.0,0.0,0.0,0.0,0.0,0.0,0.0,2.8785,2.9497,2.9784,3.0468,3.0335,2.8958,2.9454,2.8311,2.4771,2.3215,0.0,0.0,0.0,0.0,0.0,0.0,0.0,0.0,0.0,0.0,0.0,0.0,0.0,0.0,0.0,0.0,0.0,0.0,0.0,0.0,0.0,0.0,0.0,0.0,0.0,0.0,0.0,0.0,0.0,0.0,0.0,0.0,0.0,0.0,0.0,0.0,0.0,0.0,0.0,0.0,0.0,0.0,0.0,0.0,0.0,0.0,0.0,0.0,0.0,0.0,0.0,0.0,0.0,0.0,0.0,0.0,0.0,0.0,0.0,0.0,0.0,0.0,0.0,0.0,0.0,0.0,0.0,0.0,0.0,0.0,0.0,0.0,0.0,0.0,0.0,0.0,0.0,0.0,0.0,0.0,0.0,0.0,0.0,0.0,0.0,0.0,0.0,0.0,0.0,0.0,0.0,0.0,0.0,0.0,0.0,0.0,0.0,0.0,0.0,0.0,0.0,0.0,2.8757,2.9916,0.0,3.0487,3.0529,2.9244,3.0044,2.92,2.5824,0.0,0.0,0.0,0.0,0.0,0.0,0.0,0.0,0.0,0.0,0.0,0.0,0.0,0.0,0.0,0.0,0.0,0.0,0.0,0.0,0.0,0.0,0.0,0.0,0.0,0.0,0.0,0.0,0.0,0.0,0.0,0.0,0.0,0.0,0.0,0.0,0.0,0.0,0.0,0.0,0.0,0.0,0.0,0.0,0.0,0.0,0.0,0.0,0.0,0.0,0.0,0.0,0.0,0.0,0.0,0.0,0.0,0.0,0.0,0.0,0.0,0.0,0.0,0.0,0.0,0.0,0.0,0.0,0.0,0.0,0.0,0.0,0.0,0.0,0.0,0.0,0.0,0.0,0.0,0.0,0.0,0.0,0.0,0.0,0.0,0.0,0.0,0.0,0.0,0.0,0.0,0.0,0.0,0.0,0.0,0.0,0.0,0.0,0.0,0.0,0.0,0.0,2.6835,2.9124,3.0332,0.0,3.0568,3.0654,2.944,3.0319,2.9698,2.6897,0.0,0.0,0.0,0.0,0.0,0.0,0.0,0.0,0.0,0.0,0.0,0.0,0.0,0.0,0.0,0.0,0.0,0.0,0.0,0.0,0.0,0.0,0.0,0.0,0.0,0.0,0.0,0.0,0.0,0.0,0.0,0.0,0.0,0.0,0.0,0.0,0.0,0.0,0.0,0.0,0.0,0.0,0.0,0.0,0.0,0.0,0.0,0.0,0.0,0.0,0.0,0.0,0.0,0.0,0.0,0.0,0.0,0.0,0.0,0.0,0.0,0.0,0.0,0.0,0.0,0.0,0.0,0.0,0.0,0.0,0.0,0.0,0.0,0.0,0.0,0.0,0.0,0.0,0.0,0.0,0.0,0.0,0.0,0.0,0.0,0.0,0.0,0.0,0.0,0.0,0.0,0.0,0.0,0.0,0.0,0.0,0.0,0.0,0.0,0.0,0.0,0.0,2.8289,2.9984,3.068,3.0153,3.0815,3.0796,2.9506,3.0096,2.9679,0.0,0.0,0.0,0.0,0.0,0.0,0.0,0.0,0.0,0.0,0.0,0.0,0.0,0.0,0.0,0.0,0.0,0.0,0.0,0.0,0.0,0.0,0.0,0.0,0.0,0.0,0.0,0.0,0.0,0.0,0.0,0.0,0.0,0.0,0.0,0.0,0.0,0.0,0.0,0.0,0.0,0.0,0.0,0.0,0.0,0.0,0.0,0.0,0.0,0.0,0.0,0.0,0.0,0.0,0.0,0.0,0.0,0.0,0.0,0.0,0.0,0.0,0.0,0.0,0.0,0.0,0.0,0.0,0.0,0.0,0.0,0.0,0.0,0.0,0.0,0.0,0.0,0.0,0.0,0.0,0.0,0.0,0.0,0.0,0.0,0.0,0.0,0.0,0.0,0.0,0.0,0.0,0.0,0.0,0.0,0.0,0.0,0.0,0.0,0.0,0.0,0.0,0.0,2.8783,3.0074,3.0718,3.056,3.0664,3.0375,2.9483,3.0096,2.9999,2.8812,0.0,0.0,0.0,0.0,0.0,0.0,0.0,0.0,0.0,0.0,0.0,0.0,0.0,0.0,0.0,0.0,0.0,0.0,0.0,0.0,0.0,0.0,0.0,0.0,0.0,0.0,0.0,0.0,0.0,0.0,0.0,0.0,0.0,0.0,0.0,0.0,0.0,0.0,0.0,0.0,0.0,0.0,0.0,0.0,0.0,0.0,0.0,0.0,0.0,0.0,0.0,0.0,0.0,0.0,0.0,0.0,0.0,0.0,0.0,0.0,0.0,0.0,0.0,0.0,0.0,0.0,0.0,0.0,0.0,0.0,0.0,0.0,0.0,0.0,0.0,0.0,0.0,0.0,0.0,0.0,0.0,0.0,0.0,0.0,0.0,0.0,0.0,0.0,0.0,0.0,0.0,0.0,0.0,0.0,0.0,0.0,0.0,0.0,0.0,0.0,0.0,0.0,2.9162,3.0243,3.0773,3.0773,3.0651,3.0385,2.9897,3.0261,3.0292,2.9741,0.0,0.0,0.0,0.0,0.0,0.0,0.0,0.0,0.0,0.0,0.0,0.0,0.0,0.0,0.0,0.0,0.0,0.0,0.0,0.0,0.0,0.0,0.0,0.0,0.0,0.0,0.0,0.0,0.0,0.0,0.0,0.0,0.0,0.0,0.0,0.0,0.0,0.0,0.0,0.0,0.0,0.0,0.0,0.0,0.0,0.0,0.0,0.0,0.0,0.0,0.0,0.0,0.0,0.0,0.0,0.0,0.0,0.0,0.0,0.0,0.0,0.0,0.0,0.0,0.0,0.0,0.0,0.0,0.0,0.0,0.0,0.0,0.0,0.0,0.0,0.0,0.0,0.0,0.0,0.0,0.0,0.0,0.0,0.0,0.0,0.0,0.0,0.0,0.0,0.0,0.0,0.0,0.0,0.0,0.0,0.0,0.0,0.0,0.0,0.0,0.0,0.0,2.954,3.0442,3.0888,3.0955,3.0783,3.0609,3.0526,3.0485,3.0559,3.0651,0.0,0.0,0.0,0.0,0.0,0.0,0.0,0.0,0.0,0.0,0.0,0.0,0.0,0.0,0.0,0.0,0.0,0.0,0.0,0.0,0.0,0.0,0.0,0.0,0.0,0.0,0.0,0.0,0.0,0.0,0.0,0.0,0.0,0.0,0.0,0.0,0.0,0.0,0.0,0.0,0.0,0.0,0.0,0.0,0.0,0.0,0.0,0.0,0.0,0.0,0.0,0.0,0.0,0.0,0.0,0.0,0.0,0.0,0.0,0.0,1.4641,0.0,0.0,0.0,0.0,0.0,0.0,0.0,0.0,0.0,0.0,0.0,0.0,0.0,0.0,0.0,0.0,0.0,0.0,0.0,0.0,0.0,0.0,0.0,0.0,0.0,0.0,0.0,0.0,0.0,0.0,0.0,0.0,0.0,0.0,0.0,0.0,0.0,0.0,0.0,0.0,0.0,3.0898,3.0931,3.0908,3.139,3.0858,3.0443,3.0401,3.0401,3.08,3.17,3.0644,0.0,0.0,0.0,0.0,0.0,0.0,0.0,0.0,0.0,0.0,0.0,0.0,0.0,0.0,0.0,0.0,0.0,0.0,0.0,0.0,0.0,0.0,0.0,0.0,0.0,0.0,0.0,0.0,0.0,0.0,0.0,0.0,0.0,0.0,0.0,0.0,0.0,0.0,0.0,0.0,0.0,0.0,0.0,0.0,0.0,0.0,0.0,0.0,0.0,0.0,0.0,0.0,0.0,0.0,0.0,0.0,0.0,0.0,0.0,0.0,1.6094,0.0,0.0,0.0,0.0,0.0,0.0,0.0,0.0,0.0,0.0,0.0,0.0,0.0,0.0,0.0,0.0,0.0,0.0,0.0,0.0,0.0,0.0,0.0,0.0,0.0,0.0,0.0,0.0,0.0,0.0,0.0,0.0,0.0,0.0,0.0,0.0,0.0,0.0,0.0,0.0,3.1215,3.1261,3.1316,3.1553,3.0915,3.0443,3.0401,3.0443,3.0675,3.1291,3.1258,0.0,0.0,0.0,0.0,0.0,0.0,0.0,0.0,0.0,0.0,0.0,0.0,0.0,0.0,0.0,0.0,0.0,0.0,0.0,0.0,0.0,0.0,0.0,0.0,0.0,0.0,0.0,0.0,0.0,0.0,0.0,0.0,0.0,0.0,0.0,0.0,0.0,0.0,0.0,0.0,0.0,0.0,0.0,0.0,0.0,0.0,0.0,0.0,0.0,0.0,0.0,0.0,0.0,2.001,2.0619,2.1308,2.1617,2.2359,2.324,2.165,2.0257,1.9077,0.0,0.0,0.0,0.0,0.0,0.0,0.0,0.0,0.0,0.0,0.0,0.0,0.0,0.0,0.0,0.0,0.0,0.0,0.0,0.0,0.0,0.0,0.0,0.0,0.0,2.9404,2.9102,0.0,0.0,0.0,0.0,0.0,0.0,0.0,0.0,0.0,0.0,0.0,0.0,3.1354,3.1558,3.1656,3.1411,3.0806,3.0401,3.0316,3.0401,3.0492,3.0625,3.1791,3.1709,0.0,0.0,0.0,0.0,0.0,0.0,0.0,0.0,0.0,0.0,0.0,0.0,0.0,0.0,0.0,0.0,0.0,0.0,0.0,0.0,0.0,0.0,0.0,0.0,0.0,0.0,0.0,0.0,0.0,0.0,0.0,0.0,1.672,1.6463,0.0,0.0,0.0,0.0,0.0,0.0,0.0,0.0,0.0,0.0,0.0,0.0,0.0,0.0,1.9049,2.0401,2.1061,2.1108,2.3301,2.4372,2.4537,2.5599,2.6182,2.6356,2.6245,0.0,2.098,1.9211,0.0,0.0,0.0,0.0,0.0,0.0,0.0,0.0,0.0,0.0,0.0,0.0,0.0,0.0,0.0,0.0,0.0,0.0,0.0,0.0,0.0,0.0,2.5285,2.9341,3.0103,2.9933,0.0,2.9008,2.823,2.8337,0.0,0.0,0.0,0.0,0.0,0.0,0.0,0.0,3.2263,3.1817,3.1312,3.0488,3.0211,3.006,3.006,3.006,3.0381,3.115,3.1495,3.1786,3.2055,3.1067,0.0,0.0,0.0,0.0,0.0,0.0,0.0,0.0,0.0,0.0,0.0,0.0,0.0,0.0,0.0,0.0,0.0,0.0,0.0,0.0,0.0,0.0,0.0,0.0,0.0,0.0,0.0,0.0,0.0,1.5666,1.683,1.6455,1.6706,1.6664,0.0,0.0,0.0,0.0,0.0,0.0,0.0,0.0,0.0,1.9674,2.0742,2.1664,2.2449,2.3655,2.4255,2.4225,2.5413,2.6283,2.682,2.7438,2.8045,2.8526,2.8228,2.7171,2.5419,2.3062,2.1861,2.1431,0.0,0.0,0.0,0.0,0.0,2.0869,2.0746,2.0909,0.0,0.0,0.0,0.0,0.0,0.0,0.0,0.0,0.0,0.0,0.0,0.0,0.0,3.0775,3.1605,3.1792,3.2812,3.2007,3.0714,0.0,2.8525,2.848,3.0303,0.0,0.0,0.0,0.0,3.3871,3.2603,3.1921,3.1725,3.2077,3.1331,3.1019,3.1445,3.1084,3.1002,3.1402,3.1858,3.1902,3.1331,3.1566,3.0938,0.0,0.0,0.0,0.0,0.0,0.0,0.0,0.0,0.0,0.0,0.0,0.0,0.0,0.0,0.0,0.0,0.0,0.0,0.0,0.0,0.0,0.0,0.0,0.0,0.0,0.0,0.0,0.0,1.6496,1.7535,1.6964,1.7684,1.7936,0.0,0.0,0.0,0.0,0.0,0.0,1.8651,2.0091,2.1334,2.2313,2.3331,2.4304,2.5284,2.633,2.6805,2.6807,2.723,2.7841,2.8542,2.8686,2.9134,2.9777,2.9232,2.9022,2.8838,2.6113,2.4875,2.4694,2.4079,2.4296,2.4944,2.4788,2.4695,2.4599,2.4337,2.4446,2.468,2.4312,0.0,2.4691,2.4245,0.0,0.0,0.0,0.0,2.1864,2.4704,2.6232,2.8018,3.1812,3.268,3.3039,3.4243,3.352,3.2199,0.0,2.9699,2.9727,3.1516,0.0,0.0,0.0,0.0,3.4462,3.3061,3.2602,3.2734,3.3505,3.2665,3.2319,3.306,3.2451,3.2022,3.2022,3.2669,3.2488,3.1205,3.2309,3.2029,3.017,0.0,0.0,0.0,0.0,0.0,0.0,0.0,0.0,0.0,0.0,0.0,0.0,0.0,0.0,0.0,0.0,0.0,0.0,0.0,0.0,0.0,0.0,0.0,0.0,0.0,0.0,0.0,0.0,0.0,1.9212,1.9102,0.0,0.0,0.0,0.0,1.9612,2.1128,2.191,2.1787,2.4016,2.5174,2.4923,2.5784,2.6255,2.6317,2.7313,2.7821,2.7837,2.8981,2.9556,2.9633,2.9673,2.9761,2.9793,2.9677,2.9633,2.9468,2.6818,2.5726,2.568,2.5414,2.5327,2.5361,2.5361,2.5361,2.5227,2.4314,2.3935,2.3902,2.413,2.3838,2.3401,2.3367,2.2886,0.0,0.0,2.36,2.4789,2.7494,2.8821,2.9985,3.2193,3.268,3.2696,3.2779,3.264,3.2557,0.0,3.1456,3.0675,3.1487,0.0,3.3448,3.3851,3.4903,3.5239,3.4068,3.4413,3.4438,3.367,3.3477,3.3693,3.4463,3.3824,3.3414,3.3414,3.4005,3.4055,3.3268,3.3458,3.3159,3.2352,3.0904,0.0,0.0,0.0,0.0,0.0,0.0,0.0,0.0,0.0,0.0,0.0,0.0,0.0,0.0,0.0,0.0,0.0,0.0,0.0,0.0,0.0,0.0,0.0,0.0,0.0,0.0,0.0,0.0,2.0087,2.1565,0.0,2.1523,2.1623,2.1945,2.2504,2.3654,2.4292,2.4274,2.5706,2.6732,2.7169,2.77,2.8136,2.8379,2.903,2.9203,2.8907,2.9268,2.9862,3.0612,3.0551,3.0973,3.1814,3.1786,3.1742,3.1704,3.0749,2.9914,2.9228,2.9534,3.0079,3.0659,3.0474,3.0728,3.0931,2.9723,2.9835,3.0604,3.0879,3.0824,3.0385,2.9076,2.8574,2.8142,2.7039,2.7557,2.8569,2.9037,3.0377,3.1779,3.2542,3.3044,3.3524,3.4005,3.3694,3.3346,3.3437,3.2641,3.2255,3.3416,3.3739,3.3991,3.4386,3.4551,3.4576,3.4579,3.4272,3.4523,3.5696,3.5317,3.5333,3.6158,3.5449,3.4988,3.4988,3.4774,3.4314,3.3573,3.365,3.3396,3.2652,3.2377,3.2085,0.0,0.0,0.0,0.0,0.0,0.0,0.0,0.0,0.0,0.0,0.0,0.0,0.0,0.0,0.0,0.0,0.0,0.0,0.0,0.0,0.0,0.0,0.0,0.0,0.0,0.0,2.1543,2.1441,2.3356,2.4509,2.4,2.4231,2.4725,2.5411,2.6183,2.6532,2.6328,2.7492,2.8303,2.8512,2.9248,2.9718,2.9926,3.0482,3.0453,2.9913,3.0019,3.0312,3.0849,3.0833,3.1331,3.214,3.2097,3.2097,3.2097,3.2303,3.1858,3.1218,3.218,3.2943,3.3447,3.3257,3.3518,3.3811,3.27,3.2943,3.376,3.3902,3.3997,3.3779,3.2459,3.2054,3.1755,3.0375,3.0651,3.1307,3.1074,3.2027,3.3127,3.3375,3.3806,3.4286,3.4783,3.4565,3.4263,3.4263,3.3404,3.2994,3.3879,3.3848,3.401,3.4921,3.4419,3.433,3.5414,3.5101,3.5283,3.6605,3.6406,3.6571,3.7417,3.7149,3.6786,3.6257,3.6207,3.5515,3.4032,3.4723,3.4657,3.3776,3.3986,3.3499,3.2166,0.0,0.0,0.0,0.0,0.0,0.0,0.0,0.0,0.0,0.0,0.0,0.0,0.0,0.0,0.0,0.0,0.0,0.0,0.0,0.0,0.0,0.0,0.0,1.9805,2.2141,2.3718,2.3392,2.4463,2.5486,2.6175,2.5782,2.6264,2.8191,2.86,2.854,2.8013,2.9428,2.9889,2.9083,3.0315,3.0961,3.0781,3.1556,3.1542,3.0709,3.1226,3.1143,3.0483,3.0676,3.0775,3.0792,3.0634,3.0593,3.0634,3.1155,3.1291,3.1397,3.2968,3.3399,3.3209,3.3241,3.3289,3.335,3.2679,3.2599,3.2746,3.2611,3.2656,3.2746,3.2746,3.2746,3.2746,3.2746,3.2746,3.2911,3.3607,3.3806,3.4005,3.47,3.4883,3.4899,3.4899,3.4994,3.5105,3.5105,3.3831,3.279,3.279,3.279,3.3429,3.5416,3.4638,0.0,3.6519,3.6934,3.682,3.6174,3.6738,3.7466,3.8179,3.8874,3.8642,3.7201,3.8289,3.7725,3.4839,3.6596,3.7003,3.5795,3.5628,3.4333,3.1774,0.0,0.0,0.0,0.0,0.0,0.0,0.0,0.0,0.0,0.0,0.0,0.0,0.0,0.0,0.0,0.0,0.0,0.0,0.0,0.0,0.0,0.0,2.3028,2.3112,2.3961,2.5032,2.6243,2.7424,2.7945,2.7465,2.8362,2.8936,2.9006,2.8911,2.913,2.9873,2.9764,2.9895,3.0493,3.0871,3.099,3.0784,3.0999,3.0948,3.0553,3.1112,3.1627,3.2056,3.2039,3.2442,3.3222,3.2679,3.2687,3.3128,3.3284,3.3429,3.3548,3.3417,3.3289,3.3178,3.3664,3.3958,3.4023,3.3924,3.4003,3.4145,3.4239,3.4286,3.4286,3.4286,3.4286,3.4286,3.4286,3.4286,3.422,3.3872,3.4187,3.4565,3.4309,3.4659,3.5088,3.5152,3.5198,3.5245,3.5245,3.4864,3.458,3.458,3.458,3.4781,3.5305,3.5055,0.0,3.6256,3.6356,3.6837,3.8228,3.856,3.8811,3.903,3.9193,3.8764,3.7469,3.7036,3.6539,3.5841,3.5515,3.5101,3.4559,3.5165,3.472,0.0,0.0,0.0,0.0,0.0,0.0,0.0,0.0,0.0,0.0,0.0,0.0,0.0,0.0,0.0,0.0,0.0,0.0,0.0,0.0,0.0,0.0,2.3271,2.5465,2.669,2.6887,2.725,2.8241,2.9059,2.9354,2.891,2.9518,2.9871,2.9655,2.956,2.9724,3.0225,3.0297,3.0458,3.0726,3.1336,3.154,3.1256,3.1491,3.134,3.0889,3.1248,3.172,3.2249,3.2293,3.284,0.0,3.3439,3.3684,3.4374,3.4661,3.5069,0.0,0.0,0.0,0.0,0.0,3.4399,3.4497,3.4594,3.4691,3.4804,3.4899,3.4899,3.4899,3.4899,3.4899,3.4899,3.4899,3.4947,3.4894,3.4462,3.4725,3.4988,3.4647,3.4881,3.5198,3.5291,3.5337,3.5383,3.5383,0.0,0.0,3.5412,3.5337,3.5492,3.6016,3.5535,3.5471,3.6406,3.624,3.6423,3.7435,3.7834,3.8051,3.8136,3.8617,0.0,0.0,0.0,3.692,3.692,3.6059,0.0,0.0,0.0,0.0,0.0,0.0,0.0,0.0,3.2489,3.2175,0.0,0.0,0.0,0.0,0.0,0.0,0.0,0.0,0.0,0.0,0.0,0.0,0.0,0.0,0.0,0.0,2.4907,2.7329,2.9926,3.0108,2.9839,2.9543,2.9791,3.0021,3.002,2.9799,2.9789,3.0061,3.0325,3.0242,2.9766,0.0,0.0,0.0,0.0,3.2184,3.1875,3.223,3.2073,3.1314,3.15,3.1702,3.1911,3.2143,3.2722,3.351,3.3625,3.4126,3.4984,3.5545,3.6084,3.6506,3.5409,3.4792,3.4594,3.4841,3.4955,3.4955,3.5083,0.0,0.0,3.5148,3.5148,3.5131,3.5048,3.5032,3.5046,3.4963,3.5041,3.5105,3.5105,3.5198,3.5291,3.5291,3.5291,3.5337,3.5337,3.5429,3.5492,3.5492,3.5549,3.5622,3.5622,3.5458,3.5726,3.6852,3.5969,3.5554,3.6688,3.6307,3.5791,3.5404,0.0,0.0,3.6499,3.7703,3.7836,3.6379,3.727,3.7793,3.7801,3.7265,3.6748,3.6328,3.5643,3.4242,3.2012,3.3049,3.3546,3.3561,3.3873,3.3567,0.0,0.0,0.0,0.0,0.0,0.0,0.0,0.0,0.0,0.0,0.0,0.0,0.0,0.0,0.0,2.4689,2.7532,2.9725,3.0287,3.1016,3.1099,3.0078,3.035,3.0219,2.9144,2.9881,3.0292,3.0102,3.0108,3.0238,3.0573,3.0765,0.0,3.1009,3.1342,3.1555,3.1572,3.1066,3.0832,3.0825,0.0,0.0,3.3707,3.3751,3.4622,3.605,3.5425,3.5667,3.6373,3.5746,3.5554,3.5744,3.6372,3.6454,3.6266,3.6317,3.6368,3.647,3.6521,3.6571,3.6671,3.6671,3.6671,3.6572,3.6073,3.5939,0.0,3.5365,3.5245,3.5245,3.5245,3.5291,3.5354,3.5446,3.5446,3.5492,3.5549,3.5532,3.5594,3.5594,3.5577,3.5622,3.5622,3.5577,3.5633,3.5857,3.5643,3.5501,3.5786,3.5592,3.5816,3.677,3.7636,3.7903,3.7318,3.8054,3.7719,3.5799,3.5682,3.6075,3.6891,3.6455,3.612,3.5921,3.5953,3.5535,3.4643,3.4912,3.4984,3.4984,3.5054,3.4991,0.0,0.0,0.0,0.0,0.0,0.0,0.0,0.0,0.0,0.0,0.0,2.1161,2.2676,0.0,2.5707,2.6825,2.9034,3.0729,3.1127,3.1741,3.1881,3.1087,3.0636,3.0295,3.0023,2.9992,3.0102,3.0431,3.0702,3.0999,3.134,3.1481,3.1551,3.1551,3.1448,3.1164,3.0713,3.059,3.0609,3.0708,3.1657,3.3026,3.4784,3.5091,3.601,3.7326,3.6656,3.7053,3.815,3.7682,3.7466,3.7343,3.7366,3.7053,3.6506,3.6338,3.6585,3.6951,3.6588,3.6506,3.6489,3.6125,3.6041,3.604,3.5754,3.5702,3.5682,3.5392,3.5354,3.54,3.5412,3.5458,3.5458,3.5611,3.5611,3.5549,3.5577,3.5622,3.5622,3.5622,3.5622,3.574,3.6129,3.6197,3.6197,3.6197,3.6443,3.6602,3.6602,3.6491,3.653,3.6898,3.7332,3.7297,3.6589,3.6844,3.6695,3.5799,3.5352,3.5492,3.6305,3.5794,3.5301,3.4981,3.4746,3.4539,3.4352,3.4683,3.5031,3.5426,3.6469,3.639,0.0,0.0,0.0,0.0,0.0,0.0,0.0,2.1309,2.2142,2.5446,2.5511,2.5361,2.6659,2.7459,2.8115,2.876,3.014,3.1359,3.2004,3.2284,3.2319,3.202,3.0969,3.0451,3.1043,3.0287,3.0078,3.0905,3.1512,3.1825,3.1758,3.2179,3.2127,3.1585,3.1436,3.0953,3.0002,3.0549,3.0864,3.1096,3.223,3.3751,3.5532,3.6054,3.6938,3.7963,3.7553,3.8163,3.9387,3.9387,3.9135,3.867,3.7821,3.7107,3.646,3.6158,3.6488,3.7036,3.6423,3.6224,3.6125,3.5512,3.5426,3.5504,3.5402,3.5462,3.5522,3.5371,3.5429,3.552,3.5577,3.5622,3.5622,3.5728,3.5667,3.5622,3.5622,3.5622,3.5673,3.587,3.5887,3.6141,3.6949,3.7204,3.7254,3.7055,3.7422,3.7745,3.7745,3.7631,3.7364,3.6855,3.6969,3.6848,3.6332,3.6089,3.6092,3.6538,3.5937,3.5904,3.6705,3.5909,3.5334,3.4978,3.436,3.4118,3.432,3.4912,3.5545,3.6305,3.7998,3.7793,1.7459,1.8444,2.0101,1.9844,2.1538,2.3718,0.0,2.5109,2.4795,2.6241,2.603,2.5851,2.6667,2.8025,2.9266,3.0064,3.1391,3.2316,3.2438,3.2422,3.2406,3.2354,3.1601,3.0958,3.0681,3.0855,3.1185,3.1595,3.2056,3.2004,3.1319,3.2002,3.179,3.0434,3.0766,3.0784,3.0341,3.0904,3.1562,3.2422,3.3197,3.4518,3.6266,3.6291,3.7025,3.8368,3.8418,3.847,3.8551,3.867,3.7861,3.6646,3.6741,3.6852,3.6852,3.6937,3.7036,3.7102,3.7019,3.6986,3.697,3.6887,3.697,3.6937,3.6449,3.631,3.6236,3.5717,3.5577,3.5577,3.5577,3.5622,3.5622,3.5622,3.5622,3.5622,3.5622,3.5667,3.5977,3.6718,3.6865,3.7194,3.7979,3.8662,3.8819,3.7919,3.7855,3.7858,3.7858,3.7858,3.7776,3.7578,3.8248,3.87,3.8616,3.7911,3.7764,3.8421,3.7701,3.7869,3.9259,3.8162,3.7711,3.8079,3.7625,3.7546,3.7923,3.8181,3.8654,3.9338,3.97,3.9349,2.1828,2.2078,2.25,2.4105,2.5825,2.7302,2.811,2.8424,2.9006,3.0581,3.0416,3.0143,3.0698,3.1013,3.1274,0.0,3.2133,3.2507,3.2507,3.2457,3.2422,3.2439,3.214,3.1879,3.1673,3.0767,3.0541,3.1359,3.1231,3.0961,3.0627,3.0959,3.0803,3.0007,2.9953,3.0056,3.0211,3.1001,3.2034,3.339,3.4676,3.5902,3.7109,3.74,3.7641,3.7885,3.8405,3.8291,3.7851,3.7851,3.7542,3.6999,3.6338,3.6214,3.6406,3.6419,3.6788,3.7153,3.6622,3.6522,3.6505,3.6073,3.6085,3.6226,3.5954,3.5929,3.592,3.5661,3.5622,3.5622,3.5684,3.5728,3.5728,3.58,3.5844,3.5844,3.5844,3.6185,3.6655,3.6979,3.745,3.8042,3.8794,3.9187,3.9426,3.9401,3.9321,3.9289,3.9289,3.9223,3.9005,3.8533,3.8381,3.8314,3.8248,3.793,3.7967,3.8656,3.7952,3.7953,3.9008,3.817,3.7614,3.7507,3.7682,3.7899,3.8173,3.8647,3.9281,4.0,4.0462,4.0555,2.3817,2.44,2.4854,2.7379,2.9311,3.061,3.0815,3.1383,3.231,3.3795,3.353,3.3108,3.3434,3.2995,3.2573,3.2557,3.2523,3.2507,3.2523,3.2473,3.2439,3.2523,3.2523,3.2489,3.2439,3.1008,3.0398,3.1225,3.0638,3.0229,3.0229,3.026,3.0092,2.9656,2.9728,3.0006,3.0431,3.1674,3.3049,3.4596,3.6023,3.7016,3.7656,3.7875,3.7796,3.7508,3.7818,3.7784,3.7473,3.7206,3.7146,3.712,3.6137,3.5844,3.5912,3.5877,3.6237,3.6686,3.6039,3.5856,3.5869,3.5318,3.5291,3.5492,3.5492,3.5566,3.5622,3.5622,3.5622,3.5667,3.5773,3.5817,3.5905,3.5975,3.6019,3.6087,3.6336,3.6816,3.7329,3.7757,3.8334,3.8951,3.9705,3.9825,4.0014,4.0546,4.0502,4.0387,4.0305,4.0188,3.9884,3.9343,3.8819,3.8449,3.8351,3.8351,3.8521,3.8959,3.8538,3.8488,3.8975,3.8321,3.7733,3.7318,3.7791,3.8213,3.8462,3.9257,3.9978,4.0638,4.1243,4.1562,2.1502,2.3961,2.6493,2.8171,3.0939,3.3454,3.4104,3.3887,3.3684,3.4279,3.3656,3.2993,3.2934,3.2755,3.2606,3.2606,3.2557,3.2523,3.2606,3.2557,3.2523,3.2606,3.2606,3.2606,0.0,3.1883,3.1441,3.1508,3.0733,3.0291,3.0291,3.0291,2.9968,2.9231,3.0402,3.1126,3.1258,3.3299,3.4971,3.6257,3.7059,3.7542,3.7667,3.7126,3.7085,3.7439,3.6697,3.6801,3.7465,3.6807,3.6412,3.6242,3.6182,3.6036,3.5773,3.5599,3.545,3.5358,3.5341,3.5325,3.5325,3.5308,3.54,3.5492,3.5492,3.5566,3.5622,3.5622,3.5667,3.5773,3.5817,3.5905,3.5975,3.6019,3.6019,3.6224,3.7092,3.7369,3.7922,3.9422,3.979,4.0078,4.0763,4.0836,4.0853,4.0871,4.0793,4.06,4.0355,4.0188,4.007,4.0054,4.002,4.002,4.002,4.002,4.002,4.0037,4.002,4.002,4.0037,3.9332,3.8957,3.8903,3.8949,3.9262,3.9934,4.0871,4.1594,4.2045,4.2396,4.2476,2.4137,2.6459,2.8829,3.0926,3.2811,3.4063,3.3857,3.4254,3.4495,3.3916,3.2762,3.1781,3.1494,3.1882,3.1969,3.1315,3.2556,3.3425,3.2891,3.2787,3.2787,3.2866,3.2787,0.0,0.0,0.0,0.0,3.0729,3.0047,2.942,2.8858,2.8898,2.8947,2.9011,2.9986,3.1157,3.2564,3.4147,3.5705,3.722,3.7362,3.745,3.7468,3.6759,3.6565,3.668,3.6523,3.6599,3.6824,3.6707,3.6643,3.6585,3.6293,3.6165,3.6105,3.5728,3.5549,3.5503,3.5337,3.5354,3.5446,3.5446,3.5475,3.5549,3.5549,3.5577,3.5622,3.5728,3.5773,3.5817,3.5905,3.6036,3.6165,3.6191,3.6672,3.7206,3.7559,3.8469,3.9336,3.9783,4.0303,4.0735,4.0884,4.0888,4.0888,4.0888,4.0793,4.0648,4.0436,4.0337,4.0238,4.0238,4.0138,4.007,4.007,4.007,4.007,4.007,4.007,4.002,3.9833,3.9451,3.9292,3.9397,3.9768,4.0273,4.0734,4.1501,4.1965,4.2109,4.2381,4.2445,2.6607,2.8466,3.0142,3.2553,3.3689,3.4102,3.3724,3.4174,3.4513,3.3799,3.2444,3.1283,3.1003,3.0867,3.0613,2.9942,3.1105,3.2204,3.2527,3.2519,3.2733,3.3396,3.3077,3.2745,0.0,0.0,0.0,3.0432,2.9745,2.8991,2.818,2.8449,2.8909,2.9508,3.0521,3.2042,3.4076,3.5385,3.6647,3.7933,3.765,3.7487,3.7376,3.6816,3.6468,3.6402,3.6502,3.6544,3.6602,3.6684,3.6748,3.669,3.6461,3.6377,3.6318,3.5888,3.5756,3.5711,3.5503,3.5458,3.552,3.552,3.5549,3.5622,3.5667,3.5667,3.5711,3.5844,3.5905,3.5949,3.6062,3.6208,3.6404,3.6772,3.7324,3.793,3.8537,3.9486,4.0227,4.0353,4.0758,4.1076,4.0935,4.0888,4.0888,4.0888,4.084,4.0697,4.0534,4.0337,4.0238,4.0238,4.0375,4.0375,4.0104,4.0324,4.0358,4.0104,4.0037,4.0002,4.0046,3.9727,3.9732,4.0058,4.0615,4.099,4.1148,4.1917,4.2238,4.2109,4.2381,4.2445,2.8608,2.995,3.0683,3.3012,3.3661,3.3726,3.3868,3.3842,3.3797,3.3784,3.2508,3.1334,3.1157,2.9837,2.873,2.8567,2.859,2.9457,3.183,3.199,3.2504,3.4137,3.3476,3.2612,3.1831,0.0,0.0,3.0618,0.0,2.9137,2.8342,2.9048,2.9891,3.0772,3.208,3.3708,3.5742,3.695,3.7809,3.8307,3.7949,3.7632,3.7431,3.7126,3.6811,3.6544,3.6684,3.6742,3.6725,3.6829,3.6753,3.6632,3.6684,3.6643,3.6502,3.6148,3.6019,3.5975,3.5711,3.5622,3.5622,3.5622,3.5622,3.5622,3.5773,3.5817,3.5861,3.5975,3.6122,3.6208,3.6301,3.6437,3.6787,3.7607,3.7875,3.8345,3.9975,4.0342,4.0507,4.1115,4.1192,4.1117,4.0918,4.0871,4.0935,4.0871,4.0888,4.0823,4.0534,4.0271,4.0121,4.0121,4.0713,4.0865,4.0138,4.0764,4.0899,4.0172,3.9917,4.0043,4.0675,4.0216,4.0279,4.0909,4.133,4.152,4.1367,4.2169,4.2429,4.2109,4.2445,4.2508,2.9626,3.1444,3.322,3.3462,3.3577,3.3671,3.386,3.3921,3.3647,3.2572,3.1098,2.947,2.7643,2.8711,2.9476,2.8195,3.0921,3.3449,3.4061,3.3632,3.3575,3.4486,3.3695,3.2921,3.263,3.2045,0.0,0.0,3.0672,3.0136,2.9922,3.0194,3.1004,3.2378,3.4056,3.5415,3.6519,3.7612,3.8267,3.8446,3.7879,3.7596,3.7577,3.6913,3.6753,3.7034,3.7167,3.7243,3.7301,3.7431,3.7337,3.7087,3.6891,3.6811,3.6811,3.6233,3.6045,3.6028,3.5694,3.5622,3.5622,3.5622,3.5667,3.5773,3.5773,3.5861,3.5993,3.6122,3.6191,3.6318,3.6402,3.6943,3.7537,3.7871,3.8814,3.9817,4.035,4.0876,4.127,4.1328,4.1272,4.1117,4.0776,4.0948,4.1041,4.0793,4.084,4.0888,4.0823,4.0631,4.0485,4.0436,4.0458,4.0391,4.0138,4.0557,4.0735,4.0551,4.08,4.0961,4.0868,4.0614,4.0723,4.1197,4.1222,4.1451,4.1901,4.2094,4.2174,4.2109,4.2302,4.2445,3.1165,3.257,3.3803,3.3619,3.3605,3.3542,3.3093,3.268,3.2029,3.0592,2.8783,2.7064,2.5699,2.7078,2.809,2.7158,3.0023,3.2897,3.4357,3.378,3.3735,3.5148,3.4045,3.2991,3.2558,3.2036,3.1689,0.0,3.1278,3.1058,3.1106,3.1506,3.2481,3.4123,3.5155,3.628,3.7449,3.8099,3.835,3.8267,3.7809,3.7523,3.7411,3.6891,3.6811,3.7129,0.0,3.7319,3.7431,3.7485,3.7466,3.7317,3.7126,3.7069,3.7087,3.6509,3.6284,3.6284,3.5915,3.58,3.5756,3.5711,3.5756,3.5905,3.5949,3.6036,3.6148,3.6293,3.6419,3.6502,3.6609,3.7265,3.8011,3.8443,3.9501,4.0482,4.0902,4.1218,4.1408,4.1307,4.0948,4.0628,4.0319,4.0628,4.0724,4.0252,4.05,4.0776,4.0871,4.0728,4.0534,4.0436,4.0815,4.0848,4.0372,4.1063,4.1383,4.1012,4.1137,4.1214,4.1409,4.1206,4.1367,4.1894,4.1786,4.1916,4.2238,4.2302,4.2302,4.2254,4.2381,4.2508,3.2751,3.3382,3.3497,3.3585,3.3633,3.334,3.2094,3.1076,2.9986,2.844,2.6412,2.4822,2.4518,2.5281,2.6023,2.6142,2.8033,3.0618,3.382,3.3397,3.3587,3.5713,3.4345,3.2967,3.2241,3.199,3.1849,3.1849,3.1987,3.2059,3.2107,3.2854,3.4096,3.5876,3.6013,3.6779,3.8289,3.8368,3.8285,3.8018,3.781,3.7522,3.7147,3.693,3.693,3.7087,0.0,0.0,3.741,3.741,3.7392,3.7429,3.7334,3.7354,3.7337,3.6816,3.6615,3.6591,3.6148,3.6019,3.6019,3.5861,3.5905,3.6062,3.6165,3.6276,3.6343,3.6502,3.6602,3.6725,3.6788,3.7475,3.8338,3.9105,3.9989,4.0814,4.1464,4.1408,4.118,4.1093,4.0583,4.0087,3.9851,4.0103,4.017,3.963,3.9986,4.0502,4.0865,4.0688,4.0474,4.0441,4.1336,4.1624,4.0859,4.1797,4.2138,4.1526,4.1238,4.139,4.2043,4.1833,4.2002,4.2618,4.2634,4.2571,4.2445,4.2571,4.2571,4.2445,4.2571,4.2634,3.3316,3.3797,3.4153,3.3644,3.3577,3.3277,3.2024,3.1076,2.9752,2.7191,2.5773,2.4376,2.2441,2.4201,2.6145,2.686,2.9295,3.2053,3.4777,3.4356,3.4131,3.5138,3.4181,3.335,3.301,3.2827,0.0,0.0,0.0,3.3633,3.3333,3.4178,3.5437,3.7131,3.7621,3.7983,3.8307,3.8433,3.8332,3.8068,3.7845,3.7595,3.7337,3.7087,3.7203,3.7595,0.0,0.0,3.788,3.788,3.7739,3.754,3.7429,3.7466,3.7503,3.6816,3.6655,3.6696,3.6174,3.6062,3.6122,3.6036,3.6079,3.6165,3.6276,3.636,3.6502,3.6643,3.6725,3.6788,3.6788,3.7918,3.9105,3.9269,4.0393,4.1446,4.1569,4.1408,4.118,4.1093,4.0758,4.0483,4.0402,3.9969,3.9698,3.9799,3.9645,3.9899,4.1019,4.0897,4.0723,4.095,4.1247,4.1399,4.1276,4.1807,4.1999,4.1884,4.2167,4.2372,4.2502,4.2439,4.2504,4.2634,4.2634,4.2571,4.2571,4.2571,4.2571,4.2571,4.2571,4.2696,3.337,3.3532,3.3743,3.36,3.3577,3.2975,3.0485,2.8949,2.7115,2.3847,2.2488,2.1531,2.0419,2.2688,2.5007,2.5781,2.8819,3.1793,3.3846,3.4124,3.4345,3.4972,3.4146,3.3462,3.316,3.3024,3.2948,0.0,0.0,3.4531,3.4288,3.5563,3.6809,3.7879,3.8189,3.8256,3.8138,3.8252,3.805,3.7559,3.7559,3.7411,3.7203,3.7069,3.7223,3.7559,3.7595,0.0,3.7792,3.7792,3.7649,3.7447,3.7354,3.7317,3.7241,3.6811,3.6708,3.6708,3.636,3.6293,3.6335,3.6377,3.6377,3.6377,3.6461,3.6585,3.6667,3.6708,3.6829,3.6891,3.6891,3.779,3.8796,3.9217,4.0394,4.1346,4.1117,4.0884,4.071,4.0697,4.0337,4.0003,3.9783,3.937,3.9053,3.8832,3.8946,3.9417,4.0541,4.0776,4.0861,4.0868,4.1173,4.1281,4.1119,4.1878,4.2301,4.2301,4.2502,4.2634,4.2759,4.2775,4.2759,4.2867,4.2867,4.2867,4.2867,4.2867,4.2867,4.2867,4.2867,4.2929,3.3172,3.3214,3.3208,3.352,3.3478,3.247,2.9003,2.6837,2.4561,2.0996,1.9431,1.8766,1.8924,2.111,2.3284,2.453,2.7472,3.0344,3.2493,3.3258,3.3901,3.4669,3.4054,3.3462,3.3196,3.3073,0.0,0.0,0.0,0.0,3.5313,3.6627,3.7632,3.8156,3.8256,3.8223,3.7984,3.8086,3.7792,3.7147,3.7354,3.7279,3.7009,3.7108,3.7261,3.7392,3.7429,0.0,0.0,3.7577,3.7484,3.7297,3.7297,3.7182,3.6987,3.6766,3.6702,3.6684,3.6544,3.6502,3.6544,3.6684,3.6643,3.6561,3.6684,3.6766,3.6829,3.6811,3.6908,3.6987,3.6987,3.7549,3.8357,3.9322,4.0289,4.0909,4.0707,4.0517,4.0337,4.0337,3.9952,3.952,3.9351,3.8962,3.8574,3.84,3.8568,3.921,4.0479,4.0728,4.0783,4.0776,4.1294,4.148,4.1071,4.2011,4.2634,4.2634,4.2634,4.2696,4.2837,4.2899,4.2945,4.3052,4.3113,4.3113,4.3113,4.3113,4.3113,4.3113,4.3113,4.3113,3.2865,3.3292,3.3322,3.3481,3.3113,3.1868,2.8645,2.6319,2.3912,2.0765,1.8888,1.803,1.8694,1.9601,2.1247,2.4289,2.5514,2.7474,3.1507,3.1834,3.2224,3.3821,3.3725,3.3462,3.3364,3.3196,0.0,0.0,0.0,0.0,3.6658,3.6869,3.7208,3.7739,3.8153,3.8252,3.8018,3.8189,3.7951,3.7297,3.7484,3.7429,3.7108,3.7299,3.7374,3.7429,3.754,0.0,0.0,3.7577,3.7484,3.7297,3.7297,3.7182,3.6987,3.6766,3.6725,3.6748,3.6585,3.6602,3.6684,3.6748,3.6748,3.6702,3.6748,3.6788,3.6829,3.6948,3.6987,3.6987,3.6987,3.7549,3.8497,4.0007,4.0272,4.0329,4.078,4.068,4.0485,4.0485,4.0138,3.9884,4.002,3.9172,3.8913,3.9985,3.9188,3.9329,4.1805,4.102,4.0475,4.0943,4.1869,4.2189,4.1496,4.2173,4.2634,4.2634,4.2634,4.2634,4.2634,4.2837,4.2899,4.2899,4.3052,4.3113,4.3113,4.3113,4.3113,4.3113,4.3113,4.3174,3.2607,3.3262,3.3352,3.3538,3.2328,3.0454,2.7937,2.4785,2.17,1.9163,1.7309,1.6521,1.7773,1.8232,1.9303,2.2058,2.3945,2.5811,2.7904,2.9386,3.0752,3.2104,3.2192,3.2335,0.0,0.0,0.0,0.0,0.0,0.0,3.6812,3.7226,3.7596,3.8119,3.8153,3.8052,3.781,3.7685,3.7431,3.6987,3.7203,3.7279,3.7203,3.7354,3.7449,3.754,3.7594,0.0,0.0,3.7649,3.7449,3.7203,3.7259,3.7105,3.6806,3.6742,3.6742,3.6725,3.6708,3.6708,3.6788,3.6908,3.6908,3.6869,3.6908,3.6908,3.6948,3.697,3.6987,3.6987,3.6987,3.7469,3.8063,3.8734,3.9328,3.9819,3.9941,4.0226,4.0337,4.0271,4.0037,3.9901,3.9986,3.9135,3.8707,3.9208,3.8776,3.8966,4.0451,4.0812,4.0978,4.0977,4.1409,4.1343,4.0569,4.1525,4.2142,4.2142,4.2429,4.2634,4.2775,4.2837,4.2961,4.3007,4.3052,4.3113,4.3113,4.3113,4.3174,4.3312,4.3312,4.3251,3.1225,3.2238,3.2705,3.2866,3.1192,2.8952,2.6952,2.3409,1.9895,1.7623,1.5865,1.5183,1.6734,1.7047,1.7953,2.0559,2.2712,2.4437,2.5609,2.7438,2.9135,3.038,3.0505,3.0867,0.0,3.2221,0.0,0.0,0.0,0.0,0.0,3.7246,3.7756,3.8219,3.8086,3.788,3.7541,3.7301,3.7091,3.6891,3.7069,3.7203,3.7334,3.7429,3.754,3.7613,0.0,0.0,0.0,3.7685,3.7449,3.7147,3.7203,3.7027,3.6725,3.6766,3.6806,3.6806,3.6829,3.6869,3.6851,3.6987,3.6987,3.6987,3.6987,3.6987,3.6987,3.6987,3.7009,3.7101,3.733,3.7451,3.7679,3.8133,3.8616,3.8992,3.9076,3.9583,3.9932,3.9799,3.9885,4.0019,4.0135,3.9462,3.9077,3.964,3.9203,3.9147,4.0166,4.1044,4.1409,4.1142,4.1209,4.1075,4.0447,4.1393,4.2077,4.2077,4.2412,4.2634,4.2837,4.2899,4.2945,4.3052,4.3113,4.3113,4.3113,4.3113,4.3174,4.3312,4.3312,4.3289,2.8355,2.9955,3.1174,3.1294,2.9669,2.7551,2.5729,2.2409,1.8988,1.6447,1.4801,1.4243,1.565,1.613,1.7331,2.0496,2.1803,2.3232,2.5568,2.6377,2.7272,2.8745,2.887,2.9246,3.0303,3.1201,0.0,0.0,0.0,0.0,0.0,3.6921,3.7377,3.7774,3.7931,3.7756,3.7226,3.7188,3.715,3.7108,3.7241,3.7334,3.7411,3.754,3.7649,0.0,0.0,0.0,0.0,3.7703,3.7484,3.7297,3.7147,3.697,3.6829,3.6948,3.6987,3.6987,3.6987,3.6987,3.6987,3.6987,3.6987,3.6987,3.6987,3.6987,3.6987,3.6987,3.7048,3.7284,3.81,3.7629,3.7374,3.8942,3.8338,3.7575,3.8287,3.8845,3.9168,3.9054,3.958,4.0273,4.0702,4.0163,4.0308,4.217,4.0841,4.0213,4.206,4.1884,4.1507,4.1343,4.1754,4.19,4.1525,4.2142,4.2571,4.2571,4.2634,4.2634,4.2634,4.2759,4.2899,4.2899,4.3052,4.3113,4.3113,4.3113,4.3113,4.3113,4.3113,4.3287,2.6431,2.7458,2.7924,2.7999,2.6298,2.4469,2.4076,2.0448,1.697,1.63,1.3917,1.2591,1.4687,1.5075,1.6004,1.8824,2.096,2.2523,2.321,2.5383,2.7278,2.829,2.9816,3.0935,0.0,0.0,0.0,0.0,0.0,0.0,0.0,3.6427,3.7058,3.7523,3.7431,3.7319,3.7188,3.7013,3.6992,3.7108,3.7259,3.7372,3.754,3.7649,0.0,0.0,0.0,0.0,0.0,3.7685,3.7613,3.7484,3.7354,3.7241,3.7143,3.7087,3.7069,3.7069,3.7009,3.6987,3.6987,3.6987,3.7048,3.7069,3.7069,3.7048,3.7009,3.7048,3.7069,3.7161,3.7347,3.7066,3.6795,3.7158,3.7232,3.7261,3.7456,3.8013,3.8435,3.837,3.8933,3.9411,3.9547,4.0085,4.0488,4.0581,4.0734,4.0767,4.036,4.1044,4.1276,4.0615,4.1491,4.19,4.1409,4.1803,4.2061,4.2061,4.2429,4.2634,4.2634,4.2634,4.2696,4.2696,4.2759,4.2743,4.2743,4.2743,4.294,4.3282,4.3138,4.3453,2.3408,2.4775,2.5549,2.563,2.3859,2.213,2.2274,1.9024,1.5809,1.5283,1.3226,1.2066,1.3836,1.4138,1.508,1.7954,2.0295,2.1962,2.2595,2.5023,2.7013,2.7906,2.9667,0.0,0.0,0.0,0.0,0.0,0.0,0.0,0.0,3.5844,3.6484,3.7108,3.7108,3.7108,3.7129,3.697,3.7009,3.7223,3.7354,3.7466,3.7649,3.7631,0.0,0.0,0.0,0.0,0.0,3.7559,3.7577,3.7577,3.7374,3.7279,3.7297,3.7203,3.7147,3.7108,3.7031,3.7009,3.7009,3.7048,3.7069,3.7108,3.7147,3.7048,3.697,3.7126,3.7069,3.7005,3.74,3.7079,3.6678,3.6832,3.6844,3.6808,3.6781,3.7246,3.7682,3.7636,3.8438,3.9139,3.931,4.0255,4.0812,4.0512,4.1128,4.1238,3.9963,4.0821,4.126,4.0409,4.1374,4.1964,4.1623,4.1884,4.2077,4.2077,4.2429,4.2634,4.2634,4.2634,4.2634,4.2634,4.2634,4.2634,4.2634,4.2492,4.259,4.2912,4.3043,4.3416,0.0,2.1842,2.3601,2.3657,2.2002,2.0323,2.026,1.7955,0.0,1.3727,1.2761,1.2446,1.3246,1.3531,1.467,1.7802,1.9856,2.1697,2.3444,2.5266,2.6806,2.7848,2.8895,0.0,0.0,0.0,0.0,0.0,0.0,0.0,0.0,3.5232,3.5711,3.6597,3.6935,3.7069,3.6987,3.7009,3.7164,3.7429,3.754,3.7649,3.7703,3.7649,0.0,0.0,0.0,0.0,0.0,3.7392,3.741,3.754,3.7223,3.7203,3.7297,3.7297,3.7203,3.7108,3.7108,3.7069,3.7009,3.7108,3.7108,3.7147,3.7259,3.7087,3.6873,3.7164,3.697,3.687,3.7928,3.7451,3.6876,3.7537,3.6988,3.6276,3.6208,3.6627,3.699,3.6882,3.798,3.9171,3.9665,4.0492,4.1163,4.1505,4.1783,4.1618,4.0531,4.1149,4.1412,4.0615,4.1358,4.1964,4.2045,4.2365,4.2634,4.2634,4.2634,4.2634,4.2634,4.2634,4.2634,4.2634,4.2634,4.2571,4.2555,4.2238,4.2061,4.2076,4.2705,4.3067,1.6657,0.0,1.8599,1.8614,1.8188,1.779,0.0,1.6336,1.4791,1.4433,1.3216,1.2613,1.396,1.4754,1.5863,1.7962,2.0252,2.2226,2.3515,2.6561,2.9149,3.0525,3.0791,3.0844,0.0,0.0,0.0,0.0,0.0,0.0,0.0,3.4797,3.5588,3.5915,3.6632,3.7009,3.6987,3.7143,3.7334,3.754,3.7577,3.7649,3.7703,3.7667,0.0,0.0,0.0,0.0,3.741,3.7334,3.7372,3.7411,3.7185,3.7203,3.7297,3.7185,3.7147,3.7108,3.7108,3.7108,3.7108,3.7261,3.7337,3.7317,3.7297,3.7066,3.6851,3.7069,3.697,3.6823,3.7015,3.6905,3.6696,3.6651,3.6439,3.6208,3.6208,3.6216,3.6249,3.6205,3.6649,3.7306,3.8275,3.9194,3.9821,4.0127,4.1061,4.1461,4.0526,4.0626,4.0664,4.0485,4.0462,4.0653,4.1209,4.2093,4.2634,4.2634,4.2634,4.2634,4.2634,4.2634,4.2634,4.2634,4.2634,4.2429,4.1997,4.2029,4.1989,4.185,4.2178,4.249,1.5154,1.6015,1.6895,1.6895,1.662,1.6371,1.6442,1.5464,1.4445,1.4101,1.3295,1.3033,1.4219,1.4733,1.5804,1.8365,2.0564,2.2777,2.5213,2.7192,2.8921,3.0418,3.0443,0.0,0.0,0.0,0.0,0.0,0.0,0.0,0.0,3.4172,3.5072,3.5925,3.6461,3.687,3.7203,3.7392,3.7577,3.7774,3.7774,3.781,3.7845,3.7703,3.7577,0.0,0.0,0.0,3.7314,3.7241,3.7279,3.7317,3.7126,3.7126,3.7203,3.7069,3.7069,3.7108,3.7108,3.7147,3.7203,3.7337,3.7317,3.7241,3.7297,3.6987,3.6708,3.697,3.6811,3.6544,3.6643,3.6602,3.6502,3.6343,3.6259,3.6251,3.6251,3.6148,3.6165,3.6437,3.6641,3.7015,3.7884,3.8814,3.9407,3.9288,4.0498,4.1025,4.0011,4.018,4.03,4.0038,4.0002,4.0185,4.06,4.1623,4.2349,4.2571,4.2634,4.2634,4.2634,4.2634,4.2634,4.2634,4.2429,4.2238,4.1948,4.1638,4.1527,4.1495,4.1542,4.1755,1.4477,1.5713,1.6921,1.6598,1.6021,1.5508,1.5508,1.4977,1.4306,1.371,1.357,1.3833,1.4745,1.4904,1.5875,1.8927,2.1197,2.3839,2.7461,2.7872,2.8285,2.954,2.9607,0.0,0.0,0.0,0.0,0.0,0.0,0.0,0.0,3.3618,3.4412,3.5865,3.6221,3.6648,3.7197,3.7542,3.7774,3.7949,3.7949,3.7949,3.7915,3.7721,3.7577,0.0,0.0,0.0,3.7297,3.7203,3.7203,3.7297,3.7105,3.7087,3.7108,3.7066,3.7087,3.7147,3.7147,3.7147,3.7164,3.7299,3.7203,3.7027,3.7143,3.6908,3.662,3.6968,3.6672,3.6293,3.6561,3.6444,3.6301,3.6301,3.6259,3.6259,3.6259,3.6294,3.6439,3.6877,3.7074,3.7386,3.7911,3.8657,3.9088,3.8909,3.9893,4.0426,3.9576,3.9872,3.9989,3.9632,3.978,4.0039,4.02,4.1142,4.1933,4.2429,4.2555,4.2634,4.2634,4.2634,4.2571,4.2508,4.2238,4.2045,4.1916,4.1189,4.0867,4.095,4.0913,4.0974,1.4435,1.589,1.6983,1.521,1.4691,1.4611,1.4611,1.449,1.4593,1.5197,1.5269,1.5623,1.6956,1.7853,1.8756,1.9795,2.3206,2.6498,2.883,2.9982,3.0658,3.0879,0.0,0.0,0.0,0.0,0.0,0.0,0.0,0.0,0.0,0.0,3.395,3.4076,3.5474,3.6256,3.6307,3.722,3.7685,3.7649,3.7703,3.7703,3.7649,3.7613,3.7521,0.0,0.0,3.7297,3.7297,3.7297,3.7297,3.7314,3.7259,3.7259,3.7259,3.7259,3.7259,3.7259,3.7259,3.6952,3.6597,3.7013,3.7087,3.6987,3.6846,3.6725,3.6783,3.7299,3.6861,3.6301,3.636,3.6343,3.6301,3.6251,3.6208,3.6165,3.6062,3.6532,3.6831,3.6404,3.6638,3.703,3.7564,3.7404,3.7672,3.8962,3.9226,3.9572,4.0299,3.9615,3.934,4.0147,3.9283,3.9078,4.0085,4.0737,4.1327,4.1868,4.2349,4.2634,4.2634,4.2634,4.2445,4.2174,4.2109,4.172,4.0987,4.107,4.0867,4.0416,4.0508,4.0624,1.4283,1.5016,1.5816,1.6465,1.7488,1.8357,1.8357,1.8601,1.8656,1.8037,1.818,1.8378,1.827,1.9539,2.1401,2.3867,2.5819,2.7579,2.9161,2.9265,2.9418,0.0,0.0,0.0,0.0,0.0,0.0,0.0,0.0,0.0,0.0,0.0,3.3501,3.3912,3.469,3.5455,3.622,3.672,3.7256,3.7739,3.781,3.7775,3.7739,3.7685,3.7577,3.7484,0.0,3.7466,3.7354,3.7354,3.7334,3.7297,3.7297,3.7297,3.7259,3.7087,3.6935,3.6781,3.6563,3.6215,3.5899,3.6422,3.6776,3.699,3.7193,3.7228,3.717,3.7431,3.6879,3.638,3.6966,3.6757,3.6446,3.6951,3.7053,3.7143,3.7367,3.7686,3.7911,3.7946,3.7653,3.7502,3.7992,3.7358,3.7038,3.7978,3.8084,3.8383,3.9374,3.8787,3.8542,3.9251,3.8846,3.8752,3.9164,4.0056,4.1075,4.2349,4.2492,4.2508,4.2302,4.2302,4.2174,4.1851,4.1654,4.139,4.0935,4.073,4.0608,4.0401,4.0261,4.0261,1.4162,1.4607,1.5365,1.7628,1.902,2.0204,2.1625,2.1873,2.1596,2.089,2.1276,2.1334,1.9949,2.1145,2.3537,2.7144,2.7932,2.8456,2.9696,2.899,0.0,0.0,0.0,0.0,0.0,0.0,0.0,0.0,0.0,0.0,0.0,0.0,3.3072,3.3743,3.3904,3.4513,3.5616,3.6006,3.672,3.7775,3.781,3.7846,3.7846,3.7792,3.7721,3.7613,3.7667,3.7595,3.7466,3.7466,3.7429,3.7372,3.7372,3.7334,3.7203,3.6856,3.6481,3.6071,3.5778,3.5397,3.514,3.5752,3.6222,3.6661,3.6989,3.7094,3.7092,3.7302,3.6768,3.631,3.7263,3.7057,3.6793,3.7381,3.758,3.7677,3.804,3.8286,3.8482,3.8802,3.8316,3.7976,3.8309,3.746,3.6968,3.7401,3.7358,3.7535,3.8399,3.8197,3.8091,3.8215,3.8422,3.859,3.8656,3.9388,4.0634,4.2492,4.2508,4.2302,4.1916,4.198,4.1851,4.1522,4.1205,4.107,4.0935,4.0539,4.0401,4.0455,4.0277,4.0207,1.4107,1.5622,1.7041,1.7232,1.5818,1.5836,2.1361,2.0977,2.0228,2.2946,2.4095,2.4209,2.2848,2.3377,2.4795,2.7126,2.8566,2.9799,3.0997,0.0,0.0,0.0,0.0,0.0,0.0,0.0,0.0,0.0,0.0,0.0,0.0,0.0,0.0,3.2727,3.316,3.344,3.3615,3.4923,3.6201,3.7429,3.7649,3.7703,3.7703,3.7846,3.781,3.7703,3.7703,3.7649,3.7594,3.7594,3.7577,3.7594,3.7594,3.7392,3.7052,3.6666,3.6011,3.5295,3.5307,3.4925,3.4464,3.4941,3.5362,3.5611,3.5135,3.5367,3.5943,3.6786,3.639,3.586,3.6535,3.7026,3.7236,3.6851,3.6934,3.6951,3.6697,3.7239,3.7642,3.7109,3.7585,3.8051,3.7985,3.7389,3.7329,3.8238,3.7854,3.7594,3.8042,3.8257,3.8215,3.7794,3.7958,3.8446,3.9349,3.9002,3.9566,4.1541,4.198,4.1916,4.139,4.1522,4.1456,4.1122,4.1138,4.0935,4.0524,4.0524,4.0455,4.0524,4.0455,4.0401,1.3836,1.5921,1.7869,1.8335,1.8044,1.8859,2.3477,2.4526,2.4914,2.6133,2.6956,2.704,2.573,2.6444,2.7465,2.8338,2.9675,3.0725,0.0,0.0,0.0,0.0,0.0,0.0,0.0,0.0,0.0,0.0,0.0,0.0,0.0,0.0,0.0,3.2318,3.2529,3.2914,3.3421,3.4471,3.5837,3.7465,3.7982,3.8196,3.8271,3.8956,3.8957,3.8363,3.8122,3.7838,3.7577,3.7281,3.7356,3.7649,3.7374,3.7073,3.6666,3.6028,3.5323,3.4688,3.4464,3.4118,3.3809,3.4756,3.5498,3.6092,3.6604,3.6937,3.7153,3.75,3.7209,3.6918,3.7485,3.7396,3.7253,3.7606,3.7775,3.7899,3.8114,3.8434,3.8578,3.8308,3.8244,3.8197,3.8042,3.7449,3.6964,3.6758,3.6476,3.6216,3.6299,3.6142,3.6115,3.6398,3.6831,3.7308,3.7856,3.8077,3.8432,3.8888,4.0405,4.1209,4.1189,4.1256,4.1138,4.073,4.073,4.0662,4.0524,4.0524,4.0524,4.0524,4.0401,4.0347,1.3906,1.5522,1.7082,1.8783,1.9515,2.0901,2.5014,2.6505,2.7384,2.8691,2.9168,2.9089,2.8012,2.8681,2.9321,0.0,3.0234,0.0,0.0,0.0,0.0,0.0,0.0,0.0,0.0,0.0,0.0,0.0,0.0,0.0,0.0,0.0,0.0,0.0,3.202,3.2227,3.2782,3.381,3.4969,3.625,3.7994,3.8915,3.907,3.9582,3.9383,3.864,3.809,3.7644,3.7261,3.6917,3.69,3.7152,3.7017,3.6626,3.6011,3.5431,3.4996,3.4676,3.422,3.4085,3.4143,3.4963,3.5626,3.6291,3.6955,3.7261,3.7416,3.7486,3.7297,3.7198,3.785,3.7648,3.7423,3.793,3.8084,3.8197,3.8606,3.8662,3.8662,3.8662,3.8327,3.8042,3.81,3.7377,3.656,3.6119,3.5574,3.522,3.5086,3.4821,3.491,3.5477,3.5789,3.6081,3.6566,3.6939,3.7154,3.7199,3.8507,3.9573,4.0185,4.017,4.0115,4.0146,4.0146,4.0231,4.0524,4.0524,4.0524,4.0524,4.0331,4.0277,1.4395,1.4341,1.4572,1.8267,1.9337,2.0753,2.562,2.6034,2.6488,3.0219,3.0624,3.0135,2.9506,2.9898,0.0,2.9119,3.001,0.0,0.0,0.0,0.0,0.0,0.0,0.0,0.0,0.0,0.0,0.0,0.0,0.0,0.0,0.0,0.0,0.0,3.1521,3.1291,3.1504,3.2889,3.3556,3.3448,3.755,3.9673,4.0047,3.9389,3.8847,3.8359,3.7482,3.6913,3.6574,3.6474,3.6232,3.6071,3.6504,3.6088,3.5191,3.4894,3.507,3.534,3.4713,3.5013,3.5602,3.545,3.5735,3.6029,3.5562,3.5751,3.6136,3.6331,3.6437,3.6595,3.7291,3.77,3.7817,3.7539,3.7599,3.7658,3.7539,3.748,3.748,3.748,3.7464,3.7626,3.7985,3.7023,3.629,3.6701,3.5603,3.4678,3.4663,3.485,3.5027,3.5145,3.4868,3.5014,3.5834,3.555,3.5758,3.6807,3.647,3.6838,3.8144,3.813,3.8473,3.9305,3.932,3.9692,4.0455,4.0455,4.0455,4.0455,4.0347,4.0207,1.3546,1.6251,1.8633,1.8766,2.1933,2.5412,2.6924,2.7248,2.7874,3.0182,3.079,3.0446,2.8917,2.982,0.0,2.8833,0.0,0.0,0.0,0.0,0.0,0.0,0.0,0.0,0.0,0.0,0.0,0.0,0.0,0.0,0.0,0.0,0.0,0.0,3.0998,3.1038,3.1004,3.2727,3.3953,3.4713,3.7005,3.8171,3.8314,3.9587,3.9376,3.7953,3.7376,3.6936,3.6574,3.6457,3.6585,3.6895,3.6597,3.6464,3.6373,3.6022,3.5808,3.5685,3.5562,3.5559,3.5681,3.6086,3.6342,3.655,3.6921,3.7179,3.7383,3.7319,3.7324,3.727,3.7194,3.7181,3.7241,3.7181,3.7181,3.7105,3.6662,3.6585,3.6585,3.6585,3.6199,3.5995,3.6235,3.5437,3.4685,3.4306,3.386,3.3279,3.2546,3.284,3.3212,3.3632,3.3991,3.4391,3.4835,3.4758,3.4828,3.5181,3.4996,3.5755,3.7798,3.7915,3.8193,3.8899,3.8914,3.9075,3.9292,3.9292,3.9292,3.9292,3.909,3.9031,1.5014,1.7505,1.9674,2.146,2.4381,2.7114,2.8334,2.8904,2.9421,3.0327,3.0867,3.0758,2.9433,3.0005,0.0,0.0,0.0,0.0,0.0,0.0,0.0,0.0,0.0,0.0,0.0,0.0,0.0,0.0,0.0,0.0,0.0,0.0,0.0,0.0,3.0716,3.0948,3.1174,3.2673,3.3804,3.4661,3.6482,3.7136,3.6808,3.8667,3.8804,3.7577,3.6877,3.6583,3.6534,3.6655,3.6823,3.6983,3.6824,3.6671,3.6525,3.6397,3.6379,3.6426,3.6426,3.6525,3.6678,3.702,3.709,3.717,3.7616,3.7817,3.7876,3.7817,3.7685,3.7508,3.721,3.706,3.6954,3.6816,3.6816,3.6677,3.6414,3.6336,3.6336,3.6336,3.6014,3.5661,3.5537,3.4831,3.4081,3.3422,3.2928,3.2322,3.1424,3.1768,3.2149,3.2376,3.3176,3.3813,3.4008,3.4269,3.4369,3.4285,3.4172,3.4797,3.6273,3.6707,3.7154,3.7915,3.8192,3.8323,3.8368,3.8368,3.8279,3.8026,3.8069,3.8098,1.7699,1.8335,1.9014,2.5288,2.6536,2.6913,2.9658,3.0493,3.0634,3.0426,3.068,3.0794,3.0415,3.0251,0.0,0.0,0.0,0.0,0.0,0.0,0.0,0.0,0.0,0.0,0.0,0.0,0.0,0.0,0.0,0.0,0.0,0.0,0.0,0.0,3.0609,3.0874,3.1748,3.261,3.3301,0.0,3.5893,3.6412,3.5594,3.7034,3.7456,3.7048,3.6151,3.5987,3.6444,3.6905,3.6925,3.676,3.717,3.6847,3.6238,3.6427,3.6886,3.742,3.7254,3.7689,3.818,3.7992,3.7934,3.7934,3.7934,3.7934,3.7876,3.7876,3.761,3.7358,3.7358,3.715,3.6877,3.6554,3.6492,3.6492,3.6429,3.6367,3.6367,3.6367,3.6321,3.6075,3.5462,3.471,3.3989,3.3402,3.2505,3.1697,3.1029,3.1289,3.1547,3.1511,3.2436,3.32,3.3456,3.4051,3.421,3.3965,3.3896,3.4,3.4126,3.4905,3.5697,3.6522,3.7106,3.7482,3.7634,3.7558,3.721,3.664,3.7098,3.7357,1.6912,1.953,2.2122,2.5158,2.7268,2.8888,2.9864,2.9569,2.9194,2.9633,2.9697,2.9518,2.9028,0.0,0.0,0.0,0.0,0.0,0.0,0.0,0.0,0.0,0.0,0.0,0.0,0.0,0.0,0.0,0.0,0.0,0.0,0.0,0.0,2.9973,3.0146,3.0678,3.155,3.2288,3.3061,0.0,3.4825,3.5205,3.5245,3.6287,3.6366,3.5585,3.545,3.5773,3.6365,3.6171,3.6771,3.7741,3.7425,3.7622,3.8033,3.7994,3.8091,3.8332,3.8277,3.8318,3.8335,3.8278,3.8221,3.8123,3.8123,3.8033,3.7902,3.7759,3.7508,3.7134,3.6785,3.6677,3.6492,3.6178,3.6226,3.6148,3.5812,3.5604,3.5474,3.5474,3.4976,3.4509,3.4487,3.3469,3.2467,3.1882,3.1382,3.0999,3.0687,3.0623,3.0776,3.131,3.206,3.2789,3.3427,3.3902,3.4128,3.4059,3.3951,3.3884,3.3719,3.4167,3.5008,3.6189,3.5794,3.5852,3.6401,3.5736,3.5332,3.5156,3.5803,3.6056,1.7722,2.0162,2.2257,2.5806,2.7895,2.9088,2.9241,2.8701,2.8288,2.8638,2.8654,2.8529,0.0,0.0,0.0,0.0,0.0,0.0,0.0,0.0,0.0,0.0,0.0,0.0,0.0,0.0,0.0,0.0,0.0,0.0,0.0,3.0284,3.0426,3.0033,3.0662,3.1361,3.2254,3.2817,3.3574,3.4522,3.4921,3.5218,3.5364,3.5763,3.5656,3.5215,3.5706,3.6245,3.6868,3.7037,3.7614,3.841,3.8139,3.8219,3.8504,3.8504,3.856,3.8616,3.8655,3.8655,3.86,3.86,3.8375,3.8148,3.8148,3.7902,3.7653,3.7551,3.7329,3.7044,3.68,3.6616,3.6429,3.6289,3.6085,3.5894,3.5797,3.5589,3.5459,3.5589,3.5175,3.4703,3.4502,3.3242,3.2094,3.1619,3.1145,3.0762,3.0642,3.0507,3.0577,3.0924,3.1531,3.2246,3.2962,3.3521,3.3879,3.4113,3.4005,3.3951,3.3744,3.3691,3.3994,3.4929,3.4994,3.4963,3.4768,3.4735,3.4468,3.3979,3.5182,3.5588,1.8349,2.0405,2.2086,2.6731,2.8207,2.8496,2.8463,2.7978,2.758,2.778,2.768,0.0,0.0,0.0,0.0,0.0,0.0,0.0,0.0,0.0,0.0,0.0,0.0,0.0,0.0,0.0,0.0,0.0,0.0,0.0,2.9396,2.9957,3.0366,3.054,3.1305,3.2224,3.3238,3.3537,3.417,3.5041,3.5317,3.5513,3.5628,3.5326,3.5265,3.5415,3.6095,3.6816,3.7502,3.817,3.8629,3.8876,3.8936,3.8809,3.8537,3.8893,3.8884,3.8688,3.8952,3.8958,3.8805,3.8733,3.8455,3.81,3.7985,3.7653,3.7298,3.7298,3.715,3.6938,3.6938,3.6693,3.6492,3.6492,3.6148,3.5816,3.6022,3.5894,3.5831,3.5973,3.5831,3.5428,3.4751,3.3451,3.2372,3.1938,3.1333,3.0819,3.0657,3.0568,3.0568,3.0568,3.1148,3.1695,3.2168,3.297,3.3489,3.3722,3.3851,3.3854,3.3675,3.3143,3.2938,3.3216,3.4131,3.4232,3.359,3.4179,3.3979,3.3154,3.462,3.5101,1.6196,2.051,2.4907,2.7283,2.7864,2.7864,2.8079,2.753,2.6974,0.0,2.7269,0.0,0.0,0.0,0.0,0.0,0.0,0.0,0.0,0.0,0.0,0.0,0.0,0.0,0.0,0.0,0.0,0.0,0.0,0.0,2.9637,3.0326,3.0858,3.1178,3.1336,3.2221,3.3868,3.3508,3.3776,3.4739,3.4806,3.512,3.5762,3.5182,3.5247,3.5762,3.5959,3.6837,3.8079,3.8058,3.8504,3.9268,3.9621,3.9417,3.9079,4.023,3.9959,3.9068,3.9709,3.9512,3.8914,3.8511,3.827,3.8042,3.7653,3.727,3.706,3.706,3.68,3.6554,3.6554,3.6554,3.6492,3.6492,3.6274,3.6133,3.6148,3.6085,3.5973,3.5973,3.5733,3.5265,3.4435,3.3864,3.3201,3.2344,3.1775,3.1253,3.0835,3.0507,3.0387,3.0568,3.104,3.1272,3.1027,3.2239,3.2805,3.24,3.3044,3.3269,3.2846,3.2417,3.2096,3.1884,3.2744,3.3357,3.3845,3.3456,3.324,3.3081,3.3725,3.3882,1.6123,2.0662,2.4725,2.6422,2.7125,2.7509,2.778,2.7473,2.7196,2.7299,0.0,0.0,0.0,0.0,0.0,0.0,0.0,0.0,0.0,0.0,0.0,0.0,0.0,0.0,0.0,0.0,0.0,0.0,0.0,3.1131,3.0764,3.1413,3.1764,3.1736,3.2406,3.3131,3.3852,3.3921,3.4595,3.5826,3.5465,3.5745,3.6505,3.6224,3.6026,3.5927,3.639,3.7235,3.8245,3.859,3.8937,3.9338,3.9847,3.9857,3.9748,4.0745,4.0729,4.0226,4.0031,3.9992,3.9919,3.9186,3.891,3.8829,3.8647,3.8232,3.7822,3.7822,3.7758,3.7538,3.7153,3.7061,3.6969,3.6584,3.6414,3.6289,3.6006,3.6022,3.6022,3.5752,3.5509,3.5029,3.4141,3.3303,3.2587,3.2023,3.108,3.0459,3.0491,3.0068,2.987,3.0129,3.0077,3.0136,3.0331,3.0928,3.1324,3.1471,3.2207,3.2472,3.2235,3.2154,3.1982,3.1703,3.233,3.2657,3.281,3.3219,3.3313,3.3167,3.3894,3.3882,1.5825,1.9322,2.2239,2.4626,2.5727,2.6456,2.7274,2.7386,2.735,0.0,0.0,0.0,0.0,0.0,0.0,0.0,0.0,0.0,0.0,0.0,0.0,0.0,0.0,0.0,0.0,0.0,0.0,0.0,0.0,3.1948,3.1598,3.2087,3.24,3.2331,3.3247,3.3782,3.3964,3.4512,3.5382,3.6448,3.6058,3.634,3.7203,3.7004,3.6821,3.6688,3.7186,3.7849,3.8615,3.9146,3.9495,3.969,4.0293,4.0502,4.0529,4.1395,4.1321,4.0828,4.0435,4.041,4.0417,3.9725,3.9505,3.9503,3.9456,3.9011,3.8573,3.8573,3.8508,3.8385,3.7892,3.7754,3.7631,3.7123,3.6798,3.644,3.5846,3.5816,3.5737,3.5255,3.5154,3.4824,3.4031,3.2925,3.2154,3.1786,3.0644,2.9882,3.0144,2.9685,2.9435,2.9623,2.9338,2.9201,2.9549,2.9742,3.0031,3.0377,3.1103,3.1419,3.1198,3.1514,3.1548,3.1329,3.1811,3.2079,3.2127,3.2951,3.3085,3.2769,3.3314,3.2988,1.4296,1.5542,1.7009,2.1854,2.3333,2.4176,2.6484,2.7144,2.7233,0.0,0.0,0.0,0.0,0.0,0.0,0.0,0.0,0.0,0.0,0.0,0.0,0.0,0.0,0.0,0.0,0.0,0.0,0.0,0.0,3.171,3.1404,3.1853,3.238,3.2951,3.3257,3.3776,3.4431,3.5168,3.5628,3.5861,3.6074,3.6636,3.7467,3.6764,3.7183,3.8438,3.837,3.8838,3.9627,3.9661,4.0007,4.0617,4.1311,4.1521,4.1468,4.2594,4.1704,4.0075,4.1102,4.0577,3.9515,3.9665,3.972,3.9628,3.9234,3.8978,3.8769,3.8769,3.8639,3.8492,3.8477,3.8462,3.8446,3.8415,3.7648,3.6732,3.5888,3.5285,3.4876,3.4662,3.4662,3.4528,3.4153,3.3389,3.2611,3.2025,3.1033,3.0284,2.9893,2.9498,2.931,2.931,2.9212,2.8908,2.8406,2.9064,2.9295,2.8862,2.9544,2.9864,2.9455,3.0079,3.0296,2.993,3.0829,3.1601,3.2393,3.2307,3.2084,3.1674,3.0855,3.0149,1.2756,1.4436,1.6191,1.8991,2.162,2.3776,2.4685,2.6169,2.7386,2.759,0.0,0.0,0.0,0.0,0.0,0.0,0.0,0.0,0.0,0.0,0.0,0.0,0.0,0.0,0.0,0.0,0.0,0.0,0.0,0.0,3.2908,3.3176,3.3437,3.3596,3.3811,3.4137,3.4497,3.5793,3.6486,3.6638,3.6837,3.7386,3.8187,3.792,3.8137,3.8757,3.9194,3.9495,3.9677,3.9677,4.0165,4.0919,4.1565,4.1738,4.167,4.246,4.2035,4.1059,4.0825,4.09,4.1066,4.0452,4.0482,4.0716,4.0535,4.0419,4.0302,4.0302,4.0235,4.006,3.9477,3.9354,3.9005,3.78,3.6496,3.5429,3.4979,3.4758,3.4595,3.4341,3.407,3.3811,3.3325,3.2235,3.136,3.1124,2.9959,2.9178,2.9303,2.8753,2.8417,2.8675,2.83,2.7987,2.7776,2.804,2.8106,2.7917,2.8578,2.8907,2.8699,2.9248,2.949,2.9503,2.9889,3.0586,3.1588,3.1248,3.0928,3.0592,3.0135,2.9503,1.1089,1.2641,1.4381,1.6418,1.8989,2.1464,2.3163,2.5073,2.6698,2.7505,0.0,0.0,0.0,0.0,0.0,0.0,0.0,0.0,0.0,0.0,0.0,0.0,0.0,0.0,0.0,0.0,0.0,0.0,0.0,0.0,3.3658,3.3899,3.405,3.405,3.4494,3.4644,3.4497,3.6353,3.71,3.6804,3.7235,3.7784,3.842,3.842,3.8605,3.8957,3.9374,3.9696,3.9884,3.9781,4.0148,4.0939,4.1493,4.1704,4.1774,4.2367,4.2108,4.1472,4.1061,4.1197,4.1533,4.1149,4.1175,4.139,4.139,4.1272,4.1169,4.1169,4.1102,4.0925,4.0173,3.9594,3.8886,3.708,3.5837,3.4879,3.4336,3.4249,3.4153,3.3894,3.3632,3.3353,3.2775,3.1654,3.0733,3.0583,2.9347,2.8509,2.8766,2.8314,2.7987,2.8105,2.7789,2.7523,2.7523,2.7523,2.7469,2.7469,2.7821,2.803,2.7962,2.8521,2.877,2.8736,2.8994,2.9428,3.0032,2.9931,2.969,2.9367,2.8919,2.8275,0.0,0.0,0.0,1.4133,1.5376,1.715,2.1972,2.3837,2.5061,2.6946,0.0,0.0,0.0,0.0,0.0,0.0,0.0,0.0,0.0,0.0,0.0,0.0,0.0,0.0,0.0,0.0,0.0,0.0,0.0,3.3591,3.3435,3.3745,3.4016,3.4333,3.5184,3.5267,3.4513,3.6847,3.7415,3.6171,3.7244,3.7867,3.8096,3.806,3.8474,3.9152,3.8978,3.942,4.0238,3.9833,4.0043,4.0708,4.1031,4.1426,4.1829,4.2405,4.1977,4.1228,4.1837,4.147,4.08,4.1627,4.1752,4.1588,4.1588,4.1456,4.1323,4.1323,4.1205,4.0966,4.037,3.9294,3.7993,3.6369,3.5839,3.5375,3.4163,3.3744,3.3536,3.3326,3.3326,3.3157,3.2747,3.1695,3.0787,3.0446,2.9374,2.8536,2.83,2.8197,2.8013,2.7855,2.7656,2.7536,2.7523,2.7523,2.7469,2.7335,2.7403,2.7335,2.7024,2.7867,2.8119,2.7643,2.8188,2.8195,2.7787,2.8479,2.8492,2.7943,2.6966,2.6315,0.8766,0.0,0.0,0.0,0.0,0.0,0.0,0.0,2.1879,0.0,0.0,0.0,0.0,0.0,0.0,0.0,0.0,0.0,0.0,0.0,0.0,0.0,0.0,0.0,0.0,0.0,0.0,0.0,3.278,3.2749,3.2351,3.3093,3.3938,3.4759,3.5953,3.5774,3.4217,3.7444,3.7963,3.5778,3.7702,3.8166,3.7302,3.7822,3.8068,3.8222,3.858,3.8962,3.9262,3.8613,3.9048,4.0151,4.0662,4.1065,4.1426,4.2036,4.1805,4.1273,4.1466,4.1613,4.1741,4.1835,4.1833,4.1833,4.1833,4.1686,4.1522,4.1323,4.1205,4.0935,4.0355,3.9224,3.7957,3.7085,3.6178,3.5252,3.4272,3.3937,3.3675,3.3396,3.3086,3.2707,3.2124,3.1583,3.0869,2.9862,2.9322,2.8878,2.8341,2.8197,2.8079,2.8,2.7947,2.7868,2.7723,2.7723,2.7656,2.7469,2.7403,2.7201,2.6794,2.6922,2.6904,2.6712,2.7138,2.7215,2.693,2.7128,2.7065,2.6904,2.636,2.6061,0.0,0.0,0.0,0.0,0.0,0.0,0.0,0.0,0.0,0.0,0.0,0.0,0.0,0.0,0.0,0.0,0.0,0.0,0.0,0.0,0.0,0.0,0.0,0.0,0.0,0.0,0.0,3.1496,3.1787,3.2004,3.217,3.2826,3.3441,3.4165,3.5239,3.515,3.3764,3.6755,3.7437,3.5695,3.7309,3.7712,3.7068,3.7292,3.744,3.7413,3.7716,3.7873,3.7889,3.7518,3.8299,3.9741,4.0019,4.0459,4.0991,4.1827,4.1753,4.1358,4.1753,4.1821,4.1785,4.2012,4.2028,4.1898,4.1898,4.1686,4.139,4.1256,4.0851,4.0378,3.9725,3.8817,3.7875,3.7238,3.631,3.5463,3.481,3.4329,3.3951,3.3396,3.2877,3.229,3.1722,3.1196,3.0663,2.9889,2.9443,2.9013,2.8651,2.8278,2.8013,2.7868,2.7868,2.7908,2.793,2.7957,2.7913,2.7898,2.7692,2.7447,2.7034,2.6809,2.6537,2.6332,2.6523,2.6468,2.6172,2.63,2.6187,2.5978,2.5757,2.5767,0.0,0.0,0.0,0.0,0.0,0.0,0.0,0.0,0.0,0.0,0.0,0.0,0.0,0.0,0.0,0.0,0.0,0.0,0.0,0.0,0.0,0.0,0.0,0.0,0.0,2.9396,2.94,3.0257,3.0639,3.1348,3.2609,3.2672,3.2819,3.3058,3.3871,3.3963,3.3145,3.5411,3.6206,3.5623,3.6319,3.6736,3.6841,3.66,3.6569,3.6768,3.6692,3.6615,3.6662,3.6755,3.781,3.9291,3.9329,3.9785,4.059,4.1677,4.1704,4.1374,4.2238,4.1964,4.1374,4.198,4.1996,4.1767,4.1767,4.1406,4.1003,4.1003,4.0316,3.9546,3.8928,3.837,3.7881,3.7131,3.6457,3.5878,3.5473,3.4828,3.4106,3.3494,3.2751,3.2028,3.14,3.0936,3.0444,3.0115,2.9562,2.9159,2.8958,2.8425,2.7948,2.7603,2.7603,2.7665,2.8049,2.8014,2.8119,2.8214,2.8035,2.7713,2.7236,2.7065,2.6759,2.6223,2.6268,2.6077,2.5635,2.6005,2.5904,2.5316,2.5491,2.5615,0.0,0.0,0.0,0.0,0.0,0.0,0.0,1.3213,1.4784,0.0,0.0,0.0,0.0,0.0,0.0,0.0,0.0,0.0,0.0,0.0,0.0,0.0,0.0,0.0,0.0,2.865,2.861,2.9022,2.9462,3.0658,3.2806,3.2405,3.2486,3.3352,3.4069,3.3909,3.2749,3.502,3.5614,3.4455,3.5556,3.5856,3.5416,3.5604,3.5767,3.5991,3.6477,3.6707,3.6876,3.7452,3.7738,3.7913,3.9,3.976,4.0362,4.1494,4.1541,4.1142,4.1738,4.1541,4.1008,4.0888,4.082,4.0836,4.1091,4.082,4.0355,4.0261,3.9839,3.9451,3.9331,3.9071,3.8603,3.7405,3.6939,3.6432,3.5362,3.4391,3.3726,3.3768,3.3409,3.2751,3.1679,3.1714,3.1348,2.983,2.9438,2.9165,2.8765,2.8186,2.7803,2.7987,2.8013,2.7987,2.7881,2.7674,2.748,2.7381,2.7115,2.6767,2.6206,2.6316,2.617,2.5639,2.5833,2.5926,2.5861,2.6048,2.6093,2.603,2.6227,2.6341,0.0,0.0,0.0,0.9034,0.0,0.0,0.0,0.0,1.3934,1.7227,0.0,0.0,0.0,0.0,0.0,0.0,0.0,0.0,0.0,0.0,0.0,0.0,0.0,0.0,0.0,0.0,2.7499,2.8062,2.8654,2.9768,3.1534,3.1377,3.1626,3.2638,3.3058,3.3113,3.2793,3.4177,3.4747,3.4429,3.5202,3.5457,3.525,3.534,3.5474,3.5688,3.6054,3.6305,3.6522,3.7602,3.7923,3.7835,3.8977,3.984,4.0578,4.1241,4.1158,4.0805,4.1343,4.1142,4.0662,4.1001,4.0824,4.0601,4.1333,4.0792,3.9826,3.9017,3.8649,3.8501,3.8501,3.8412,3.8175,3.7543,3.7092,3.6553,3.5868,3.5008,3.4329,3.3831,3.3367,3.2544,3.1211,3.0929,3.0481,2.9393,2.9287,2.906,2.8325,2.7723,2.7334,2.711,2.7039,2.7067,2.7197,2.6869,2.6673,2.6718,2.6089,2.5577,2.5157,2.4974,2.48,2.4573,2.4897,2.5245,2.5622,2.5898,2.6001,2.6066,2.6443,2.6568,0.0,0.0,0.0,0.0,0.0,0.9933,0.0,0.0,0.0,0.0,0.0,0.0,0.0,0.0,0.0,0.0,0.0,0.0,0.0,0.0,0.0,0.0,0.0,0.0,0.0,0.0,2.6274,2.742,2.7715,2.8557,3.0238,3.0451,3.0878,3.1826,3.1883,3.2182,3.2728,3.3201,3.3788,3.4512,3.4837,3.516,3.5554,3.5279,3.5329,3.5544,3.5688,3.5831,3.6001,3.7628,3.8193,3.815,3.9078,3.9994,4.0662,4.0935,4.0783,4.0493,4.0972,4.0777,4.042,4.1152,4.0898,4.0542,4.1455,4.0681,3.9305,3.827,3.7939,3.7939,3.7939,3.7853,3.7782,3.7756,3.7201,3.658,3.6515,3.5829,3.498,3.3996,3.3159,3.2125,3.068,2.9834,2.9262,2.8948,2.8736,2.8371,2.7866,2.7274,2.6687,2.6165,2.6124,2.6223,2.65,2.612,2.5992,2.6345,2.5376,2.4755,2.4598,2.4057,2.3831,2.4085,2.4234,2.4829,2.5676,2.5762,2.5939,2.6246,2.662,2.6661,0.0,0.0,0.0,0.0,1.0417,0.0,0.0,0.0,0.0,1.1085,0.0,0.0,0.0,0.0,0.0,0.0,0.0,0.0,0.0,0.0,0.0,0.0,0.0,0.0,0.0,0.0,0.0,2.7319,2.6044,2.6674,3.0302,3.0507,3.0934,3.1981,3.1796,3.1769,3.186,3.2347,3.3006,3.3834,3.4152,3.4763,3.5703,3.5344,3.5133,3.5023,3.5688,3.5752,3.5634,3.7678,3.8376,3.8335,3.965,4.0146,4.0137,4.0662,4.0524,4.0121,4.0493,4.0613,4.057,4.0337,4.0055,3.9876,4.0246,3.978,3.9127,3.919,3.9187,3.9187,3.9187,3.8774,3.841,3.8305,3.747,3.6781,3.7235,3.6156,3.5023,3.4733,3.3296,3.1817,3.0768,2.9593,2.8733,2.8578,2.738,2.6691,2.7311,2.6671,2.6239,2.6598,2.6463,2.6335,2.6394,2.5803,2.5632,2.6307,2.5337,2.4968,2.5239,2.4726,2.4742,2.5341,2.5026,2.5441,2.6506,2.6184,2.6567,2.7379,2.7253,2.7396,0.0,0.0,0.0,0.0,0.0,0.0,0.9927,0.0,0.9845,0.0,0.0,0.0,0.0,0.0,0.0,0.0,0.0,0.0,0.0,0.0,0.0,0.0,0.0,0.0,0.0,0.0,0.0,0.0,0.0,2.585,2.9327,3.0014,3.0582,3.1207,3.1656,3.2173,3.2766,3.287,3.3466,3.4573,3.4728,3.5011,3.5379,3.489,3.4758,3.4876,3.4743,3.5149,3.5896,3.7188,3.8091,3.8796,3.9756,4.0066,3.9996,4.0261,4.0191,3.9996,3.9737,3.9703,3.9712,3.9411,3.9886,4.0282,3.9449,3.9389,3.9465,3.8978,3.9031,3.9308,3.9137,3.8944,3.8649,3.8537,3.8125,3.7736,3.7824,3.718,3.6389,3.5712,3.4244,3.2872,3.197,2.9854,2.8033,2.6971,2.6314,2.5957,2.5915,2.5249,2.4794,2.4798,2.4608,2.4419,2.4419,2.4079,2.3999,2.4267,2.3467,2.3215,2.3634,2.3684,2.3989,2.4693,2.4978,2.5496,2.6116,2.6184,2.6715,2.7623,2.7796,2.8174,1.6126,0.0,0.0,0.0,0.0,0.0,0.0,0.0,0.0,0.0,0.0,0.0,0.0,0.0,0.0,0.0,0.0,0.0,0.0,0.0,0.0,0.0,0.0,0.0,0.0,0.0,0.0,0.0,0.0,0.0,2.8671,2.9681,3.035,3.0674,3.1407,3.2195,3.3032,3.3087,3.3691,3.4881,3.4912,3.492,3.492,3.4259,3.4109,3.4274,3.3919,3.4401,3.5575,3.6497,3.754,3.8622,3.9369,3.9711,3.9854,3.994,4.0117,4.0238,3.9469,3.9269,3.9431,3.9387,4.0082,4.0703,3.9564,3.9626,3.9925,3.9312,3.9468,3.9704,3.9432,3.9311,3.914,3.9015,3.8698,3.8474,3.8517,3.8174,3.7505,3.6294,3.5251,3.3994,3.2264,2.9741,2.7684,2.6662,2.6063,2.5583,2.5137,2.4605,2.4084,2.3722,2.339,2.3208,2.3208,2.3029,2.3024,2.3158,2.2982,2.2939,2.3249,2.3423,2.3905,2.4715,2.5076,2.5691,2.6454,2.6546,2.7074,2.8003,2.8035,2.8249,0.0,0.0,0.0,1.4223,0.0,0.0,0.0,0.0,1.0635,0.0,0.0,0.0,0.0,0.0,0.0,0.0,0.0,0.0,0.0,0.0,0.0,0.0,0.0,0.0,0.0,0.0,0.0,0.0,0.0,0.0,2.8713,2.9644,3.0243,3.0674,3.1108,3.1486,3.1863,3.246,3.3245,3.4006,3.4066,3.4192,3.4312,3.3561,3.3101,3.2832,3.352,3.386,3.4038,3.5583,3.6734,3.7521,3.8517,3.9104,3.9496,3.9854,4.0548,4.1076,3.9851,3.9802,4.0397,4.064,4.0741,4.08,4.1058,4.0632,4.0282,4.0865,4.1042,4.0962,4.0749,4.0226,3.9851,4.0147,3.9137,3.8425,3.9638,3.8955,3.7723,3.637,3.6093,3.4773,3.0666,2.8794,2.8166,2.8827,2.681,2.5343,2.5678,2.5159,2.4711,2.419,2.3977,2.3894,2.3894,2.3476,2.3463,2.4042,2.5016,2.5469,2.5307,2.5118,2.5385,2.6509,2.5936,2.6433,2.831,2.7701,2.7941,2.8986,2.758,2.7207,0.0,0.0,2.2128,1.7516,0.0,0.0,0.0,0.0,0.0,0.0,0.0,0.0,0.0,0.0,0.0,0.0,0.0,0.0,0.0,0.0,0.0,0.0,0.0,0.0,0.0,0.0,0.0,0.0,0.0,0.0,0.0,2.9733,3.0281,3.0548,3.1051,3.1634,3.2242,3.224,3.2731,3.3835,3.3614,3.3506,3.3561,3.2791,3.2605,3.2917,3.2646,3.3356,3.4741,3.5319,3.6134,3.712,3.7922,3.8098,3.8069,3.9162,3.9775,3.9986,3.9372,3.9407,3.9762,4.0461,4.08,4.0965,4.1474,4.1503,4.1435,4.1639,4.1978,4.2194,4.1783,4.1443,4.1143,4.0361,3.9482,3.878,3.8652,3.7399,3.626,3.591,3.4801,3.3634,3.3049,3.1002,2.905,2.7804,2.6894,2.6261,2.6133,2.508,2.4356,2.4409,2.4137,2.4007,2.4007,2.4072,2.4251,2.4418,2.4783,2.5149,2.5536,2.5738,2.6338,2.7271,2.764,2.8179,2.8566,2.8587,2.8735,2.879,2.8282,2.8251,2.2915,2.4074,0.0,1.9951,1.9789,0.0,1.4707,0.0,0.0,0.0,0.0,0.0,0.0,0.0,0.0,0.0,0.0,0.0,0.0,0.0,0.0,0.0,0.0,0.0,0.0,0.0,0.0,0.0,0.0,0.0,0.0,0.0,2.9917,3.0007,3.0557,3.1285,3.2098,3.1891,3.2365,3.352,3.2863,3.2737,3.2875,3.1809,3.1792,3.2632,3.1793,3.2448,3.4237,3.4293,3.4926,3.6027,3.6668,3.7035,3.7346,3.8559,3.8944,3.8865,3.926,3.9434,3.955,4.0006,4.0789,4.1625,4.1934,4.2205,4.2221,4.1933,4.2299,4.2484,4.1458,4.1345,4.1145,3.9943,3.8976,3.8311,3.769,3.6368,3.5266,3.5189,3.4069,3.3304,3.3346,3.2086,3.0528,2.881,2.7841,2.7036,2.6448,2.546,2.473,2.4583,2.4293,2.4239,2.4239,2.4709,2.5047,2.5047,2.5103,2.5514,2.616,2.6643,2.7194,2.7927,2.8933,2.9456,2.9343,2.9757,2.9862,2.9569,2.9447,2.9414]}]]